[[{"header":{"parameterUnit":"m.s-1","parameterCategory":1,"la1":31.0,"la2":29.5877,"lo1":-88.7671,"lo2":-86.6584,"dy":0.0162,"dx":0.0185,"nx":115,"ny":88,"refTime":"2023-09-26T06:00:00:Z","depth":0,"parameterNumber":2,"parameterNumberName":"U-component_of_WINDS"},"data":[0.0,0.0,0.0,0.0,0.0,0.0,0.0,0.0,0.0,0.0,0.0,0.0,0.0,0.0,0.0,0.0,0.0,0.0,0.0,0.0,0.0,0.0,0.0,0.0,0.0,0.0,0.0,0.0,0.0,0.0,0.0,0.0,0.0,0.0,0.0,0.0,0.0,0.0,0.0,0.0,0.0,0.0,0.0,0.0,0.0,0.0,0.0,0.0,0.0,0.0,0.0,0.0,0.0,0.0,0.0,0.0,0.0,0.0,0.0,0.0,0.0,0.0,0.0,0.0,0.0,0.0,0.0,0.0,0.0,0.0,0.0,0.0,0.0,0.0,0.0,0.0,0.0,0.0,0.0,0.0,0.0,0.0,0.0,0.0,0.0,0.0,0.0,0.0,0.0,0.0,0.0,0.0,0.0,0.0,0.0,0.0,0.0,0.0,0.0,0.0,0.0,0.0,0.0,0.0,0.0,0.0,0.0,0.0,0.0,0.0,0.0,0.0,0.0,0.0,0.0,0.0,0.0,0.0,0.0,0.0,0.0,0.0,0.0,0.0,0.0,0.0,0.0,0.0,0.0,0.0,0.0,0.0,0.0,0.0,0.0,0.0,0.0,0.0,0.0,0.0,0.0,0.0,0.0,0.0,0.0,0.0,0.0,0.0,0.0,0.0,0.0,0.0,0.0,0.0,0.0,0.0,0.0,0.0,0.0,0.0,0.0,0.0,0.0,0.0,0.0,0.0,0.0,0.0,0.0,0.0,0.0,0.0,0.0,0.0,0.0,0.0,0.0,0.0,0.0,0.0,0.0,0.0,0.0,0.0,0.0,0.0,0.0,0.0,0.0,0.0,0.0,0.0,0.0,0.0,0.0,0.0,0.0,0.0,0.0,0.0,0.0,0.0,0.0,0.0,0.0,0.0,0.0,0.0,0.0,0.0,0.0,0.0,0.0,0.0,0.0,0.0,0.0,0.0,0.0,0.0,0.0,0.0,0.0,0.0,0.0,0.0,0.0,0.0,0.0,0.0,0.0,0.0,0.0,0.0,0.0,0.0,0.0,0.0,0.0,0.0,0.0,0.0,0.0,0.0,0.0,0.0,0.0,0.0,0.0,0.0,0.0,0.0,0.0,0.0,0.0,0.0,0.0,0.0,0.0,0.0,0.0,0.0,0.0,0.0,0.0,0.0,0.0,0.0,0.0,0.0,0.0,0.0,0.0,0.0,0.0,0.0,0.0,0.0,0.0,0.0,0.0,0.0,0.0,0.0,0.0,0.0,0.0,0.0,0.0,0.0,0.0,0.0,0.0,0.0,0.0,0.0,0.0,0.0,0.0,0.0,0.0,0.0,0.0,0.0,0.0,0.0,0.0,0.0,0.0,0.0,0.0,0.0,0.0,0.0,0.0,0.0,0.0,0.0,0.0,0.0,0.0,0.0,0.0,0.0,0.0,0.0,0.0,0.0,0.0,0.0,0.0,0.0,0.0,0.0,0.0,0.0,0.0,0.0,0.0,0.0,0.0,0.0,0.0,0.0,0.0,0.0,0.0,0.0,0.0,0.0,0.0,0.0,0.0,0.0,0.0,0.0,0.0,0.0,0.0,0.0,0.0,0.0,0.0,0.0,0.0,0.0,0.0,0.0,0.0,0.0,0.0,0.0,0.0,0.0,0.0,0.0,0.0,0.0,0.0,0.0,0.0,0.0,0.0,0.0,0.0,0.0,0.0,0.0,0.0,0.0,0.0,0.0,0.0,0.0,0.0,0.0,0.0,0.0,0.0,0.0,0.0,0.0,0.0,0.0,0.0,0.0,0.0,0.0,0.0,0.0,0.0,0.0,0.0,0.0,0.0,0.0,0.0,0.0,0.0,0.0,0.0,0.0,0.0,0.0,0.0,0.0,0.0,0.0,0.0,0.0,0.0,0.0,0.0,0.0,0.0,0.0,0.0,0.0,0.0,0.0,0.0,0.0,0.0,0.0,0.0,0.0,0.0,0.0,0.0,0.0,0.0,0.0,0.0,0.0,0.0,0.0,0.0,0.0,0.0,0.0,0.0,0.0,0.0,0.0,0.0,0.0,0.0,0.0,0.0,0.0,0.0,0.0,0.0,0.0,0.0,0.0,0.0,0.0,0.0,0.0,0.0,0.0,0.0,0.0,0.0,0.0,0.0,0.0,0.0,0.0,0.0,0.0,0.0,0.0,0.0,0.0,0.0,0.0,0.0,0.0,0.0,0.0,0.0,0.0,0.0,0.0,0.0,0.0,0.0,0.0,0.0,0.0,0.0,0.0,0.0,0.0,0.0,0.0,0.0,0.0,0.0,0.0,0.0,0.0,0.0,0.0,0.0,0.0,0.0,0.0,0.0,0.0,0.0,0.0,0.0,0.0,0.0,0.0,0.0,0.0,0.0,0.0,0.0,0.0,0.0,0.0,0.0,0.0,0.0,0.0,0.0,0.0,0.0,0.0,0.0,0.0,0.0,0.0,0.0,0.0,0.0,0.0,0.0,0.0,0.0,0.0,0.0,0.0,0.0,0.0,0.0,0.0,0.0,0.0,0.0,0.0,0.0,0.0,0.0,0.0,0.0,0.0,0.0,0.0,0.0,0.0,0.0,0.0,0.0,0.0,0.0,0.0,0.0,0.0,0.0,0.0,0.0,0.0,0.0,0.0,0.0,0.0,0.0,0.0,0.0,0.0,0.0,0.0,0.0,0.0,0.0,0.0,0.0,0.0,0.0,0.0,0.0,0.0,0.0,0.0,0.0,0.0,0.0,0.0,0.0,0.0,0.0,0.0,0.0,0.0,0.0,0.0,0.0,0.0,0.0,0.0,0.0,0.0,0.0,0.0,0.0,0.0,0.0,0.0,0.0,0.0,0.0,0.0,0.0,0.0,0.0,0.0,0.0,0.0,0.0,0.0,0.0,0.0,0.0,0.0,0.0,0.0,0.0,0.0,0.0,0.0,0.0,0.0,0.0,0.0,0.0,0.0,0.0,0.0,0.0,0.0,0.0,0.0,0.0,0.0,0.0,0.0,0.0,0.0,0.0,0.0,0.0,0.0,0.0,0.0,0.0,0.0,0.0,0.0,0.0,0.0,0.0,0.0,0.0,0.0,0.0,0.0,0.0,0.0,0.0,0.0,0.0,0.0,0.0,0.0,0.0,0.0,0.0,0.0,0.0,0.0,0.0,0.0,0.0,0.0,0.0,0.0,0.0,0.0,0.0,0.0,0.0,0.0,0.0,0.0,0.0,0.0,0.0,0.0,0.0,0.0,0.0,0.0,0.0,0.0,0.0,0.0,0.0,0.0,0.0,0.0,0.0,0.0,0.0,0.0,0.0,0.0,0.0,0.0,0.0,0.0,0.0,0.0,0.0,0.0,0.0,0.0,0.0,0.0,0.0,0.0,0.0,0.0,0.0,0.0,0.0,0.0,0.0,0.0,0.0,0.0,0.0,0.0,0.0,0.0,0.0,0.0,0.0,0.0,0.0,0.0,0.0,0.0,0.0,0.0,0.0,0.0,0.0,0.0,0.0,0.0,0.0,0.0,0.0,0.0,0.0,0.0,0.0,0.0,0.0,0.0,0.0,0.0,0.0,0.0,0.0,0.0,0.0,0.0,0.0,0.0,0.0,0.0,0.0,0.0,0.0,0.0,0.0,0.0,0.0,0.0,0.0,0.0,0.0,0.0,0.0,0.0,0.0,0.0,0.0,0.0,0.0,0.0,0.0,0.0,0.0,0.0,0.0,0.0,0.0,0.0,0.0,0.0,0.0,0.0,0.0,0.0,0.0,0.0,0.0,0.0,0.0,0.0,0.0,0.0,0.0,0.0,0.0,0.0,0.0,0.0,0.0,0.0,0.0,0.0,0.0,0.0,0.0,0.0,0.0,0.0,0.0,0.0,0.0,0.0,0.0,0.0,0.0,0.0,0.0,0.0,0.0,0.0,0.0,0.0,0.0,0.0,0.0,0.0,0.0,0.0,0.0,0.0,0.0,0.0,0.0,0.0,0.0,0.0,0.0,0.0,0.0,0.0,0.0,0.0,0.0,0.0,0.0,0.0,0.0,0.0,0.0,0.0,0.0,0.0,0.0,0.0,0.0,0.0,0.0,0.0,0.0,0.0,0.0,0.0,0.0,0.0,0.0,0.0,0.0,0.0,0.0,0.0,0.0,0.0,0.0,0.0,0.0,0.0,0.0,0.0,0.0,0.0,0.0,0.0,0.0,0.0,0.0,0.0,0.0,0.0,0.0,0.0,0.0,0.0,0.0,0.0,0.0,0.0,0.0,0.0,1.9298,0.0,0.0,0.0,0.0,0.0,0.0,0.0,0.0,0.0,0.0,0.0,0.0,0.0,0.0,0.0,0.0,0.0,0.0,0.0,0.0,0.0,0.0,0.0,0.0,0.0,0.0,0.0,0.0,0.0,0.0,0.0,0.0,0.0,0.0,0.0,0.0,0.0,0.0,0.0,0.0,0.0,0.0,0.0,0.0,0.0,0.0,0.0,0.0,0.0,0.0,0.0,0.0,0.0,0.0,0.0,0.0,0.0,0.0,0.0,0.0,0.0,0.0,0.0,0.0,0.0,0.0,0.0,0.0,0.0,0.0,0.0,0.0,0.0,0.0,0.0,0.0,0.0,0.0,0.0,0.0,0.0,0.0,0.0,0.0,0.0,0.0,0.0,0.0,0.0,0.0,0.0,0.0,0.0,0.0,0.0,0.0,0.0,0.0,0.0,0.0,0.0,0.0,0.0,0.0,0.0,0.0,0.0,0.0,0.0,0.0,1.8628,1.8814,1.9137,1.9298,1.9298,0.0,0.0,0.0,0.0,0.0,0.0,0.0,0.0,0.0,0.0,0.0,0.0,0.0,0.0,0.0,0.0,0.0,0.0,0.0,0.0,0.0,0.0,0.0,0.0,0.0,0.0,0.0,0.0,0.0,0.0,0.0,0.0,0.0,0.0,0.0,0.0,0.0,0.0,0.0,0.0,0.0,0.0,0.0,0.0,0.0,0.0,0.0,0.0,0.0,0.0,0.0,0.0,0.0,0.0,0.0,0.0,0.0,0.0,0.0,0.0,0.0,0.0,0.0,0.0,0.0,0.0,0.0,0.0,0.0,0.0,0.0,0.0,0.0,0.0,0.0,0.0,0.0,0.0,0.0,0.0,0.0,0.0,0.0,0.0,0.0,0.0,0.0,0.0,0.0,0.0,0.0,0.0,0.0,0.0,0.0,0.0,0.0,0.0,0.0,0.0,0.0,0.0,0.0,0.0,0.0,0.0,0.0,0.0,0.0,0.0,0.0,0.0,1.9166,1.9298,1.9298,0.0,0.0,0.0,0.0,0.0,0.0,0.0,0.0,0.0,0.0,0.0,0.0,0.0,0.0,0.0,0.0,0.0,0.0,0.0,0.0,0.0,0.0,0.0,0.0,0.0,0.0,0.0,0.0,0.0,0.0,0.0,0.0,0.0,0.0,0.0,0.0,0.0,0.0,0.0,0.0,0.0,0.0,0.0,0.0,0.0,0.0,0.0,0.0,0.0,0.0,0.0,0.0,0.0,0.0,0.0,0.0,0.0,0.0,0.0,0.0,0.0,0.0,0.0,0.0,0.0,0.0,0.0,0.0,0.0,0.0,0.0,0.0,0.0,0.0,0.0,0.0,0.0,0.0,0.0,0.0,0.0,0.0,0.0,0.0,0.0,0.0,0.0,0.0,0.0,0.0,0.0,0.0,0.0,0.0,0.0,0.0,0.0,0.0,0.0,0.0,0.0,0.0,0.0,0.0,0.0,0.0,0.0,0.0,0.0,0.0,1.8935,1.9239,1.9283,0.0,1.9298,0.0,0.0,0.0,0.0,0.0,0.0,0.0,0.0,0.0,0.0,0.0,0.0,0.0,0.0,0.0,0.0,0.0,0.0,0.0,0.0,0.0,0.0,0.0,0.0,0.0,0.0,0.0,0.0,0.0,0.0,0.0,0.0,0.0,0.0,0.0,0.0,0.0,0.0,0.0,0.0,0.0,0.0,0.0,0.0,0.0,0.0,0.0,0.0,0.0,0.0,0.0,0.0,0.0,0.0,0.0,0.0,0.0,0.0,0.0,0.0,0.0,0.0,0.0,0.0,0.0,0.0,0.0,0.0,0.0,0.0,0.0,0.0,0.0,0.0,0.0,0.0,0.0,0.0,0.0,0.0,0.0,0.0,0.0,0.0,0.0,0.0,0.0,0.0,0.0,0.0,0.0,0.0,0.0,0.0,0.0,0.0,0.0,0.0,0.0,0.0,0.0,0.0,0.0,0.0,0.0,0.0,0.0,0.0,0.0,0.0,1.9166,1.9298,1.9298,1.9298,0.0,0.0,0.0,0.0,0.0,0.0,0.0,0.0,0.0,0.0,0.0,0.0,0.0,0.0,0.0,0.0,0.0,0.0,0.0,0.0,0.0,0.0,0.0,0.0,0.0,0.0,0.0,0.0,0.0,0.0,0.0,0.0,0.0,0.0,0.0,0.0,0.0,0.0,0.0,0.0,0.0,0.0,0.0,0.0,0.0,0.0,0.0,0.0,0.0,0.0,0.0,0.0,0.0,0.0,0.0,0.0,0.0,0.0,0.0,0.0,0.0,0.0,0.0,0.0,0.0,0.0,0.0,0.0,0.0,0.0,0.0,0.0,0.0,0.0,0.0,0.0,0.0,0.0,0.0,0.0,0.0,0.0,0.0,0.0,0.0,0.0,0.0,0.0,0.0,0.0,0.0,0.0,0.0,0.0,0.0,0.0,0.0,0.0,0.0,0.0,0.0,0.0,0.0,0.0,0.0,0.0,0.0,0.0,0.0,0.0,1.9298,1.9298,1.9298,1.9298,1.9298,1.9298,0.0,0.0,0.0,0.0,0.0,0.0,0.0,0.0,0.0,0.0,0.0,0.0,0.0,0.0,0.0,0.0,0.0,0.0,0.0,0.0,0.0,0.0,0.0,0.0,0.0,0.0,0.0,0.0,0.0,0.0,0.0,0.0,0.0,0.0,0.0,0.0,0.0,0.0,0.0,0.0,0.0,0.0,0.0,0.0,0.0,0.0,0.0,0.0,0.0,0.0,0.0,0.0,0.0,0.0,0.0,0.0,0.0,0.0,0.0,0.0,0.0,0.0,0.0,0.0,0.0,0.0,0.0,0.0,0.0,0.0,0.0,0.0,0.0,0.0,0.0,0.0,0.0,0.0,0.0,0.0,0.0,0.0,0.0,0.0,0.0,0.0,0.0,0.0,0.0,0.0,0.0,0.0,0.0,0.0,0.0,0.0,0.0,0.0,0.0,0.0,0.0,0.0,0.0,0.0,0.0,0.0,0.0,0.0,1.9298,1.9298,1.9298,1.9298,1.9272,1.9298,0.0,0.0,0.0,0.0,0.0,0.0,0.0,0.0,0.0,0.0,0.0,0.0,0.0,0.0,0.0,0.0,0.0,0.0,0.0,0.0,0.0,0.0,0.0,0.0,0.0,0.0,0.0,0.0,0.0,0.0,0.0,0.0,0.0,0.0,0.0,0.0,0.0,0.0,0.0,0.0,0.0,0.0,0.0,0.0,0.0,0.0,0.0,0.0,0.0,0.0,0.0,0.0,0.0,0.0,0.0,0.0,0.0,0.0,0.0,0.0,0.0,0.0,0.0,0.0,0.0,0.0,0.0,0.0,0.0,0.0,0.0,0.0,0.0,0.0,0.0,0.0,0.0,0.0,0.0,0.0,0.0,0.0,0.0,0.0,0.0,0.0,0.0,0.0,0.0,0.0,0.0,0.0,0.0,0.0,0.0,0.0,0.0,0.0,0.0,0.0,0.0,0.0,0.0,0.0,0.0,0.0,0.0,0.0,0.0,1.9298,1.9298,1.9298,1.9298,1.9107,1.8964,0.0,0.0,0.0,0.0,0.0,0.0,0.0,0.0,0.0,0.0,0.0,0.0,0.0,0.0,0.0,0.0,0.0,0.0,0.0,0.0,0.0,0.0,0.0,0.0,0.0,0.0,0.0,0.0,0.0,0.0,0.0,0.0,0.0,0.0,0.0,0.0,0.0,0.0,0.0,0.0,0.0,0.0,0.0,0.0,0.0,0.0,0.0,0.0,0.0,0.0,0.0,0.0,0.0,0.0,0.0,0.0,0.0,0.0,0.0,0.0,0.0,0.0,0.0,0.0,0.0,0.0,0.0,0.0,0.0,0.0,0.0,0.0,0.0,0.0,0.0,0.0,0.0,0.0,0.0,0.0,0.0,0.0,0.0,0.0,0.0,0.0,0.0,0.0,0.0,0.0,0.0,0.0,0.0,0.0,0.0,0.0,0.0,0.0,0.0,0.0,0.0,0.0,0.0,0.0,0.0,0.0,0.0,0.0,0.0,1.9298,0.0,1.9298,1.9298,1.8964,1.8858,0.0,0.0,0.0,0.0,0.0,0.0,0.0,0.0,0.0,0.0,0.0,0.0,0.0,0.0,0.0,0.0,0.0,0.0,0.0,0.0,0.0,0.0,0.0,0.0,0.0,0.0,0.0,0.0,0.0,0.0,0.0,0.0,0.0,0.0,0.0,0.0,0.0,0.0,0.0,0.0,0.0,0.0,0.0,0.0,0.0,0.0,0.0,0.0,0.0,0.0,0.0,0.0,0.0,0.0,0.0,0.0,0.0,0.0,0.0,0.0,0.0,0.0,0.0,0.0,0.0,0.0,0.0,0.0,0.0,0.0,0.0,0.0,0.0,0.0,0.0,0.0,0.0,0.0,0.0,0.0,0.0,0.0,0.0,0.0,0.0,0.0,0.0,0.0,0.0,0.0,0.0,0.0,0.0,0.0,0.0,0.0,0.0,0.0,0.0,0.0,0.0,0.0,0.0,0.0,0.0,0.0,0.0,0.0,1.9298,1.9298,1.9298,1.9312,1.9298,1.899,1.8961,0.0,0.0,0.0,0.0,0.0,0.0,0.0,0.0,0.0,0.0,0.0,0.0,0.0,0.0,0.0,0.0,0.0,0.0,0.0,0.0,0.0,0.0,0.0,0.0,0.0,0.0,0.0,0.0,0.0,0.0,0.0,0.0,0.0,0.0,0.0,0.0,0.0,0.0,0.0,0.0,0.0,0.0,0.0,0.0,0.0,0.0,0.0,0.0,0.0,0.0,0.0,0.0,0.0,0.0,0.0,0.0,0.0,0.0,0.0,0.0,0.0,0.0,0.0,0.0,0.0,0.0,0.0,0.0,0.0,0.0,0.0,0.0,0.0,0.0,0.0,0.0,0.0,0.0,0.0,0.0,0.0,0.0,0.0,0.0,0.0,0.0,0.0,0.0,0.0,0.0,0.0,0.0,0.0,0.0,0.0,0.0,0.0,0.0,0.0,0.0,0.0,0.0,0.0,0.0,0.0,0.0,0.0,0.0,0.0,1.9298,1.9298,1.9415,1.9605,1.9107,1.8961,0.0,0.0,0.0,0.0,0.0,0.0,0.0,0.0,0.0,0.0,0.0,0.0,0.0,0.0,0.0,0.0,0.0,0.0,0.0,0.0,0.0,0.0,0.0,0.0,0.0,0.0,0.0,0.0,0.0,0.0,0.0,0.0,0.0,0.0,0.0,0.0,0.0,0.0,0.0,0.0,0.0,0.0,0.0,0.0,0.0,0.0,0.0,0.0,0.0,0.0,0.0,0.0,0.0,0.0,0.0,0.0,0.0,0.0,0.0,0.0,0.0,0.0,0.0,0.0,0.0,0.0,0.0,0.0,0.0,0.0,0.0,0.0,0.0,0.0,0.0,0.0,0.0,0.0,0.0,0.0,0.0,0.0,0.0,0.0,0.0,0.0,0.0,0.0,0.0,0.0,0.0,0.0,0.0,0.0,0.0,0.0,0.0,0.0,0.0,0.0,0.0,0.0,0.0,0.0,0.0,0.0,0.0,0.0,0.0,1.9652,1.9638,1.974,1.9957,1.9459,1.921,1.9283,0.0,0.0,0.0,0.0,0.0,0.0,0.0,0.0,0.0,0.0,0.0,0.0,0.0,0.0,0.0,0.0,0.0,0.0,0.0,0.0,0.0,0.0,0.0,0.0,0.0,0.0,0.0,0.0,0.0,0.0,0.0,0.0,0.0,0.0,0.0,0.0,0.0,0.0,0.0,0.0,0.0,0.0,0.0,0.0,0.0,0.0,0.0,0.0,0.0,0.0,0.0,0.0,0.0,0.0,0.0,0.0,0.0,0.0,0.0,0.0,0.0,0.0,0.0,0.0,0.0,0.0,0.0,0.0,0.0,0.0,0.0,0.0,0.0,0.0,0.0,0.0,0.0,0.0,0.0,0.0,0.0,0.0,0.0,0.0,0.0,0.0,0.0,0.0,0.0,0.0,0.0,0.0,0.0,0.0,0.0,0.0,0.0,0.0,0.0,0.0,0.0,0.0,0.0,0.0,0.0,0.0,0.0,0.0,2.0312,2.0342,2.0342,2.0298,2.0001,1.9679,0.0,0.0,0.0,0.0,0.0,0.0,0.0,0.0,0.0,0.0,0.0,0.0,0.0,0.0,0.0,0.0,0.0,0.0,0.0,0.0,0.0,0.0,0.0,0.0,0.0,0.0,0.0,0.0,0.0,0.0,0.0,0.0,0.0,0.0,0.0,0.0,0.0,0.0,0.0,0.0,0.0,0.0,0.0,0.0,0.0,0.0,0.0,0.0,0.0,0.0,0.0,0.0,0.0,0.0,0.0,0.0,0.0,0.0,0.0,0.0,0.0,0.0,0.0,0.0,0.0,0.0,0.0,0.0,0.0,0.0,0.0,0.0,0.0,0.0,0.0,0.0,0.0,0.0,0.0,0.0,0.0,0.0,0.0,0.0,0.0,0.0,0.0,0.0,0.0,0.0,0.0,0.0,0.0,0.0,0.0,0.0,0.0,0.0,0.0,0.0,0.0,0.0,0.0,0.0,0.0,0.0,0.0,0.0,0.0,2.1642,2.1847,2.1774,2.1292,2.053,2.0194,0.0,0.0,0.0,0.0,0.0,0.0,0.0,0.0,0.0,0.0,0.0,0.0,0.0,0.0,0.0,0.0,0.0,0.0,0.0,0.0,0.0,0.0,0.0,0.0,0.0,0.0,0.0,0.0,0.0,0.0,0.0,0.0,0.0,0.0,0.0,0.0,0.0,0.0,0.0,0.0,0.0,0.0,0.0,0.0,0.0,0.0,0.0,0.0,0.0,0.0,0.0,0.0,0.0,0.0,0.0,0.0,0.0,0.0,0.0,0.0,0.0,0.0,0.0,0.0,0.0,0.0,0.0,0.0,0.0,0.0,0.0,0.0,0.0,0.0,0.0,0.0,0.0,0.0,0.0,0.0,0.0,0.0,0.0,0.0,0.0,0.0,0.0,0.0,0.0,0.0,0.0,0.0,0.0,0.0,0.0,0.0,0.0,0.0,0.0,0.0,0.0,0.0,0.0,0.0,0.0,0.0,0.0,0.0,2.1511,2.2214,2.2871,2.3062,2.271,2.1759,2.0985,0.0,0.0,0.0,0.0,0.0,0.0,0.0,0.0,0.0,0.0,0.0,0.0,0.0,0.0,0.0,0.0,0.0,0.0,0.0,0.0,0.0,0.0,0.0,0.0,0.0,0.0,0.0,0.0,0.0,0.0,0.0,0.0,0.0,0.0,0.0,0.0,0.0,0.0,0.0,0.0,0.0,0.0,0.0,0.0,0.0,0.0,0.0,0.0,0.0,0.0,0.0,0.0,0.0,0.0,0.0,0.0,0.0,0.0,0.0,0.0,0.0,0.0,0.0,0.0,0.0,0.0,0.0,0.0,0.0,0.0,0.0,0.0,0.0,0.0,0.0,0.0,0.0,0.0,0.0,0.0,0.0,0.0,0.0,0.0,0.0,0.0,0.0,0.0,0.0,0.0,0.0,0.0,0.0,0.0,0.0,0.0,0.0,0.0,0.0,0.0,0.0,0.0,0.0,0.0,0.0,0.0,0.0,0.0,2.2462,2.2389,2.3532,2.4177,2.4133,2.312,2.1876,0.0,0.0,0.0,0.0,0.0,0.0,0.0,0.0,0.0,0.0,0.0,0.0,0.0,0.0,0.0,0.0,0.0,0.0,0.0,0.0,0.0,0.0,0.0,0.0,0.0,0.0,0.0,0.0,0.0,0.0,0.0,0.0,0.0,0.0,0.0,0.0,0.0,0.0,0.0,0.0,0.0,0.0,0.0,0.0,0.0,0.0,0.0,0.0,0.0,0.0,0.0,0.0,0.0,0.0,0.0,0.0,0.0,0.0,0.0,0.0,0.0,0.0,0.0,0.0,0.0,0.0,0.0,0.0,0.0,0.0,0.0,0.0,0.0,0.0,0.0,0.0,0.0,0.0,0.0,0.0,0.0,0.0,0.0,0.0,0.0,0.0,0.0,0.0,0.0,0.0,0.0,0.0,0.0,0.0,0.0,0.0,0.0,0.0,0.0,0.0,0.0,0.0,0.0,0.0,0.0,0.0,0.0,0.0,2.2359,2.3281,2.4089,2.4499,2.4485,2.3047,2.2125,0.0,0.0,0.0,0.0,0.0,0.0,0.0,0.0,0.0,0.0,0.0,0.0,0.0,0.0,0.0,0.0,0.0,0.0,0.0,0.0,0.0,0.0,0.0,0.0,0.0,0.0,0.0,0.0,0.0,0.0,0.0,0.0,0.0,0.0,0.0,0.0,0.0,0.0,0.0,0.0,0.0,0.0,0.0,0.0,0.0,0.0,0.0,0.0,2.6191,0.0,0.0,0.0,0.0,0.0,0.0,0.0,0.0,0.0,0.0,0.0,0.0,0.0,0.0,0.0,0.0,0.0,0.0,0.0,0.0,0.0,0.0,0.0,0.0,0.0,0.0,0.0,0.0,0.0,0.0,0.0,0.0,0.0,0.0,0.0,0.0,0.0,0.0,0.0,0.0,0.0,0.0,0.0,0.0,0.0,0.0,0.0,0.0,0.0,0.0,0.0,0.0,0.0,0.0,0.0,0.0,0.0,0.0,0.0,2.2507,2.3574,2.4412,2.4836,2.4778,2.3562,2.2637,0.0,0.0,0.0,0.0,0.0,0.0,0.0,0.0,0.0,0.0,0.0,0.0,0.0,0.0,0.0,0.0,0.0,0.0,0.0,0.0,0.0,0.0,0.0,0.0,0.0,0.0,0.0,0.0,0.0,0.0,0.0,0.0,0.0,0.0,0.0,0.0,0.0,0.0,0.0,0.0,0.0,0.0,0.0,0.0,0.0,0.0,0.0,0.0,0.0,0.0,0.0,0.0,0.0,0.0,0.0,0.0,0.0,0.0,0.0,0.0,0.0,0.0,0.0,0.0,0.0,0.0,0.0,0.0,0.0,0.0,0.0,0.0,0.0,0.0,0.0,0.0,0.0,0.0,0.0,0.0,0.0,0.0,0.0,0.0,0.0,0.0,0.0,0.0,0.0,0.0,0.0,0.0,0.0,0.0,0.0,0.0,0.0,0.0,0.0,0.0,0.0,0.0,0.0,0.0,0.0,0.0,0.0,2.1774,2.274,2.3735,2.4646,2.51,2.5086,2.4192,2.3252,2.2359,0.0,0.0,0.0,0.0,0.0,0.0,0.0,0.0,0.0,0.0,0.0,0.0,0.0,0.0,0.0,0.0,0.0,0.0,0.0,0.0,0.0,0.0,0.0,0.0,0.0,0.0,0.0,0.0,0.0,0.0,0.0,0.0,0.0,0.0,0.0,0.0,0.0,0.0,2.4648,2.5518,0.0,0.0,0.0,0.0,0.0,0.0,0.0,0.0,2.6646,0.0,0.0,0.0,0.0,0.0,0.0,0.0,0.0,0.0,0.0,0.0,0.0,0.0,0.0,0.0,0.0,0.0,0.0,0.0,0.0,0.0,0.0,0.0,0.0,0.0,0.0,0.0,0.0,0.0,0.0,0.0,0.0,0.0,0.0,0.0,0.0,0.0,0.0,0.0,0.0,0.0,0.0,0.0,0.0,0.0,0.0,0.0,0.0,0.0,0.0,0.0,0.0,0.0,0.0,0.0,0.0,2.1525,2.2198,2.3164,2.4412,2.4866,2.51,2.5071,2.4412,2.3676,2.2974,0.0,0.0,0.0,0.0,0.0,0.0,0.0,0.0,0.0,0.0,0.0,0.0,0.0,0.0,0.0,0.0,0.0,0.0,0.0,0.0,0.0,0.0,0.0,0.0,0.0,0.0,0.0,0.0,0.0,0.0,0.0,0.0,0.0,0.0,0.0,0.0,0.0,0.0,0.0,2.5415,2.5708,0.0,0.0,0.0,0.0,0.0,0.0,0.0,0.0,2.7624,0.0,0.0,0.0,0.0,0.0,0.0,0.0,0.0,0.0,0.0,0.0,0.0,0.0,0.0,0.0,0.0,0.0,0.0,0.0,0.0,0.0,0.0,0.0,0.0,0.0,0.0,0.0,0.0,0.0,0.0,0.0,0.0,0.0,0.0,0.0,0.0,0.0,0.0,0.0,0.0,0.0,0.0,0.0,0.0,0.0,0.0,0.0,0.0,0.0,0.0,0.0,0.0,0.0,0.0,0.0,2.1672,2.2476,2.3427,2.4558,2.4924,2.51,2.5071,2.4294,2.3603,0.0,0.0,0.0,0.0,0.0,0.0,0.0,0.0,0.0,0.0,0.0,0.0,0.0,0.0,0.0,0.0,0.0,0.0,0.0,0.0,0.0,0.0,0.0,0.0,0.0,0.0,0.0,0.0,0.0,0.0,0.0,0.0,0.0,0.0,0.0,0.0,0.0,0.0,0.0,0.0,2.6282,2.6805,2.8396,0.0,0.0,0.0,0.0,0.0,0.0,2.7839,2.7839,0.0,0.0,0.0,0.0,0.0,0.0,0.0,0.0,0.0,0.0,0.0,0.0,0.0,0.0,0.0,0.0,0.0,0.0,0.0,0.0,0.0,0.0,0.0,0.0,0.0,0.0,0.0,0.0,0.0,0.0,0.0,0.0,0.0,0.0,0.0,0.0,0.0,0.0,0.0,0.0,0.0,0.0,0.0,0.0,0.0,0.0,0.0,0.0,0.0,0.0,0.0,0.0,0.0,0.0,0.0,2.1876,2.2813,2.3749,2.4661,2.4987,2.51,2.5071,2.4206,2.3515,0.0,0.0,0.0,0.0,0.0,0.0,0.0,0.0,0.0,0.0,0.0,0.0,0.0,0.0,0.0,0.0,0.0,0.0,0.0,0.0,0.0,0.0,0.0,0.0,0.0,0.0,0.0,0.0,0.0,0.0,0.0,0.0,0.0,0.0,0.0,0.0,0.0,0.0,0.0,0.0,0.0,2.766,2.8679,2.8265,0.0,0.0,0.0,0.0,2.8327,2.8406,0.0,0.0,0.0,0.0,0.0,0.0,0.0,0.0,0.0,0.0,0.0,0.0,0.0,0.0,0.0,0.0,0.0,0.0,0.0,0.0,0.0,0.0,0.0,0.0,0.0,0.0,0.0,0.0,0.0,0.0,0.0,0.0,0.0,0.0,0.0,0.0,0.0,0.0,0.0,0.0,0.0,0.0,0.0,0.0,0.0,0.0,0.0,0.0,0.0,0.0,0.0,0.0,0.0,0.0,0.0,0.0,2.2475,2.3471,2.4338,2.4998,2.5071,2.51,2.5086,2.4426,2.3735,0.0,0.0,0.0,0.0,0.0,0.0,0.0,0.0,0.0,0.0,0.0,0.0,0.0,0.0,0.0,0.0,0.0,0.0,0.0,0.0,0.0,0.0,0.0,0.0,0.0,0.0,0.0,0.0,0.0,0.0,0.0,0.0,0.0,0.0,0.0,0.0,0.0,0.0,0.0,0.0,0.0,2.6536,2.838,2.7362,2.6955,0.0,0.0,3.0067,3.0449,3.082,0.0,0.0,0.0,0.0,0.0,0.0,0.0,0.0,0.0,0.0,0.0,0.0,0.0,0.0,0.0,0.0,0.0,0.0,0.0,0.0,0.0,0.0,0.0,0.0,0.0,0.0,0.0,0.0,0.0,0.0,0.0,0.0,0.0,0.0,0.0,0.0,0.0,0.0,0.0,0.0,0.0,0.0,0.0,0.0,0.0,0.0,0.0,0.0,0.0,0.0,0.0,0.0,0.0,0.0,0.0,2.2052,2.2607,2.3764,2.4617,2.5071,2.51,2.51,2.5086,2.428,2.3676,0.0,0.0,0.0,0.0,0.0,0.0,0.0,0.0,0.0,0.0,0.0,0.0,0.0,0.0,0.0,0.0,0.0,0.0,0.0,0.0,0.0,0.0,0.0,0.0,0.0,0.0,0.0,0.0,0.0,0.0,0.0,0.0,0.0,0.0,0.0,0.0,0.0,0.0,0.0,0.0,0.0,0.0,2.8795,2.8535,0.0,0.0,0.0,3.0566,3.0508,0.0,0.0,0.0,0.0,0.0,0.0,0.0,0.0,0.0,0.0,0.0,0.0,0.0,0.0,0.0,0.0,0.0,0.0,0.0,0.0,0.0,0.0,0.0,0.0,0.0,0.0,0.0,0.0,0.0,0.0,0.0,0.0,0.0,0.0,0.0,0.0,0.0,0.0,0.0,0.0,0.0,0.0,0.0,0.0,0.0,0.0,0.0,0.0,0.0,0.0,0.0,0.0,0.0,0.0,0.0,0.0,0.0,2.2754,2.4027,2.4851,2.5071,2.51,2.51,2.5086,2.4294,0.0,0.0,0.0,0.0,0.0,0.0,0.0,0.0,0.0,0.0,0.0,0.0,0.0,0.0,0.0,0.0,0.0,0.0,0.0,0.0,0.0,0.0,0.0,0.0,0.0,0.0,0.0,2.3675,0.0,0.0,0.0,0.0,0.0,0.0,0.0,0.0,0.0,0.0,0.0,0.0,0.0,0.0,2.827,2.8608,2.8726,2.9012,0.0,0.0,3.0301,3.0333,3.0977,3.1095,0.0,0.0,0.0,0.0,0.0,0.0,0.0,0.0,0.0,0.0,0.0,0.0,0.0,0.0,0.0,0.0,0.0,0.0,0.0,0.0,0.0,0.0,0.0,0.0,0.0,0.0,0.0,0.0,0.0,0.0,0.0,0.0,0.0,0.0,0.0,0.0,0.0,0.0,0.0,0.0,0.0,0.0,0.0,0.0,0.0,0.0,0.0,0.0,0.0,0.0,0.0,0.0,0.0,0.0,0.0,2.3074,2.4397,2.5056,2.5086,2.51,2.51,2.5086,2.4734,2.425,0.0,0.0,0.0,0.0,0.0,0.0,0.0,0.0,0.0,0.0,0.0,0.0,0.0,0.0,0.0,0.0,0.0,0.0,0.0,0.0,0.0,0.0,0.0,0.0,0.0,0.0,0.0,0.0,0.0,0.0,0.0,0.0,0.0,0.0,0.0,0.0,0.0,0.0,0.0,0.0,0.0,2.724,2.7056,2.655,2.6864,0.0,0.0,2.9103,3.0448,3.1051,3.1175,3.0543,0.0,0.0,0.0,0.0,0.0,0.0,0.0,0.0,0.0,0.0,0.0,0.0,0.0,0.0,0.0,0.0,0.0,0.0,0.0,0.0,0.0,0.0,0.0,0.0,0.0,0.0,0.0,0.0,0.0,0.0,0.0,0.0,0.0,0.0,0.0,0.0,0.0,0.0,0.0,0.0,0.0,0.0,0.0,0.0,0.0,0.0,0.0,0.0,0.0,0.0,0.0,0.0,0.0,2.2764,2.3096,2.3985,2.451,2.4713,2.4747,2.4849,2.51,2.4763,2.4397,0.0,0.0,0.0,0.0,0.0,0.0,0.0,0.0,0.0,0.0,0.0,0.0,0.0,0.0,0.0,0.0,0.0,0.0,0.0,0.0,0.0,0.0,0.0,0.0,0.0,0.0,0.0,0.0,2.4699,2.4095,2.3502,0.0,0.0,0.0,0.0,0.0,0.0,0.0,0.0,0.0,0.0,2.6775,2.6865,2.6909,0.0,0.0,2.8389,2.8682,2.9035,2.9482,2.9468,2.8526,2.8193,0.0,0.0,0.0,0.0,0.0,0.0,0.0,0.0,0.0,0.0,0.0,0.0,0.0,0.0,0.0,0.0,0.0,0.0,0.0,0.0,0.0,0.0,0.0,0.0,0.0,0.0,0.0,0.0,0.0,0.0,0.0,0.0,0.0,0.0,0.0,0.0,0.0,0.0,0.0,0.0,0.0,0.0,0.0,0.0,0.0,0.0,0.0,0.0,0.0,0.0,0.0,0.0,2.2958,2.3124,2.3923,2.4451,2.4639,2.4741,2.4911,2.5198,2.4979,2.4657,0.0,0.0,0.0,0.0,0.0,0.0,0.0,0.0,0.0,0.0,0.0,0.0,0.0,0.0,0.0,0.0,0.0,0.0,0.0,0.0,0.0,0.0,0.0,0.0,0.0,0.0,0.0,0.0,2.4737,2.3949,2.2759,0.0,0.0,0.0,0.0,0.0,0.0,0.0,0.0,0.0,0.0,2.6276,2.6407,2.6488,2.6712,2.7101,2.7324,2.7448,2.7537,2.7834,2.7796,2.7159,0.0,0.0,0.0,0.0,0.0,0.0,0.0,0.0,0.0,0.0,0.0,0.0,0.0,0.0,0.0,0.0,0.0,0.0,0.0,0.0,0.0,0.0,0.0,0.0,0.0,0.0,0.0,0.0,0.0,0.0,2.0792,0.0,0.0,0.0,0.0,0.0,0.0,0.0,0.0,0.0,0.0,0.0,0.0,0.0,0.0,0.0,0.0,0.0,0.0,0.0,0.0,0.0,0.0,2.3397,2.3139,2.4337,2.5008,2.4988,2.5313,2.5451,2.5451,2.5486,2.5213,2.4617,0.0,0.0,0.0,0.0,0.0,0.0,0.0,0.0,0.0,0.0,0.0,0.0,0.0,0.0,0.0,0.0,0.0,0.0,0.0,0.0,0.0,0.0,0.0,0.0,0.0,0.0,2.2129,2.2722,2.3145,0.0,0.0,0.0,0.0,0.0,0.0,0.0,0.0,0.0,0.0,2.5486,2.5736,2.5301,2.4638,2.4717,2.6039,2.5468,2.5153,2.612,2.6264,2.6424,0.0,0.0,0.0,0.0,0.0,0.0,0.0,0.0,0.0,0.0,0.0,0.0,0.0,0.0,0.0,0.0,0.0,0.0,0.0,0.0,0.0,0.0,0.0,0.0,0.0,0.0,0.0,2.2331,2.2227,0.0,0.0,0.0,0.0,0.0,0.0,0.0,0.0,0.0,0.0,0.0,2.2704,2.2981,0.0,0.0,0.0,0.0,0.0,0.0,0.0,0.0,0.0,0.0,0.0,0.0,2.2921,2.3032,2.3595,2.4122,2.4587,2.4938,2.5213,2.5423,2.5423,2.5169,2.4569,0.0,0.0,0.0,0.0,0.0,0.0,0.0,0.0,0.0,0.0,0.0,0.0,0.0,0.0,0.0,0.0,0.0,0.0,0.0,0.0,0.0,0.0,0.0,0.0,0.0,2.391,0.0,0.0,0.0,0.0,0.0,0.0,0.0,0.0,0.0,0.0,0.0,2.4101,2.4045,2.4222,2.4383,2.4431,2.4281,2.4502,0.0,0.0,0.0,0.0,0.0,0.0,0.0,0.0,0.0,0.0,0.0,0.0,0.0,0.0,2.5369,2.3669,2.4906,2.5975,2.5138,0.0,0.0,0.0,0.0,0.0,0.0,0.0,0.0,0.0,0.0,0.0,0.0,0.0,0.0,2.3014,0.0,2.279,0.0,0.0,0.0,0.0,0.0,0.0,0.0,0.0,2.3267,2.3535,2.3458,2.3839,2.3852,0.0,2.3426,2.307,0.0,0.0,0.0,0.0,0.0,0.0,0.0,0.0,2.2906,2.2979,2.3427,2.3967,2.4525,2.4861,2.5136,2.5349,2.5392,2.5262,2.5011,2.4616,2.4276,0.0,0.0,0.0,0.0,0.0,0.0,0.0,0.0,0.0,0.0,0.0,0.0,0.0,0.0,0.0,0.0,0.0,0.0,0.0,0.0,0.0,0.0,0.0,2.3918,0.0,0.0,0.0,0.0,0.0,0.0,0.0,0.0,0.0,2.2782,2.3179,2.353,2.3767,2.4057,2.4188,2.394,0.0,0.0,0.0,0.0,0.0,0.0,0.0,2.4232,2.413,2.4583,2.5072,2.5478,2.581,2.6085,2.6228,0.0,0.0,2.4532,2.5489,2.6276,2.5594,2.6121,2.6747,2.6943,2.6169,2.581,0.0,0.0,0.0,0.0,0.0,0.0,0.0,0.0,2.4481,2.4491,0.0,2.3818,0.0,0.0,0.0,0.0,0.0,2.3718,0.0,0.0,2.4333,2.4615,2.4375,2.4323,2.4115,2.3843,2.3541,2.3421,2.3427,2.3173,0.0,0.0,0.0,0.0,0.0,0.0,2.3309,2.2996,2.3907,2.4525,2.4792,2.5122,2.5316,2.5302,2.5342,2.5527,2.582,2.5337,2.5213,2.5442,2.3995,0.0,0.0,0.0,0.0,0.0,0.0,0.0,0.0,0.0,0.0,0.0,0.0,0.0,0.0,0.0,0.0,0.0,0.0,0.0,0.0,2.2636,0.0,0.0,0.0,0.0,0.0,0.0,0.0,0.0,0.0,0.0,2.3143,2.3627,2.4071,2.4057,0.0,0.0,0.0,0.0,2.4744,2.3863,2.3454,2.3393,2.3758,2.4809,2.565,2.6006,0.0,0.0,2.7488,2.6777,2.6514,2.6856,2.7143,2.701,2.6765,2.6648,2.6713,2.6991,2.71,2.7086,2.7086,2.7166,2.7152,2.6289,0.0,0.0,0.0,0.0,2.428,2.4511,2.4664,2.4931,2.4764,2.4322,2.4174,0.0,0.0,0.0,0.0,0.0,0.0,2.4261,2.4366,2.5025,2.5422,2.5534,2.5702,2.5504,2.5024,2.493,2.466,2.4237,2.4003,2.3673,2.3304,0.0,0.0,0.0,0.0,2.3481,2.3556,2.4037,2.4453,2.4797,2.5089,2.5249,2.5235,2.5019,2.5074,2.5432,2.5109,2.5076,2.5451,2.4593,0.0,0.0,0.0,0.0,0.0,0.0,0.0,0.0,0.0,0.0,0.0,0.0,0.0,0.0,0.0,0.0,0.0,0.0,0.0,2.331,2.353,2.3491,0.0,0.0,0.0,0.0,0.0,0.0,0.0,0.0,0.0,2.3978,2.3436,2.3125,0.0,0.0,2.3021,2.2918,2.3819,2.4671,2.5087,2.5582,0.0,2.6889,2.6932,2.6974,2.7245,2.8438,2.9241,2.9075,2.9411,2.9802,2.9902,2.976,2.9677,2.9733,2.8718,2.8075,2.8443,2.8575,2.8575,2.8575,2.8811,2.9027,2.8093,2.6213,2.5787,2.5652,2.5769,2.5805,2.5948,2.6226,2.6131,2.5968,2.5704,2.5234,2.4986,2.4903,2.4685,0.0,0.0,0.0,2.5249,2.5391,2.6094,2.6503,2.6693,2.6827,2.6653,2.6213,2.6092,2.5785,2.5317,2.5037,2.4696,2.42,0.0,0.0,2.3383,2.3516,2.3678,2.3958,2.4237,2.4586,2.5073,2.5225,2.532,2.532,2.5255,2.5382,2.5589,2.5355,2.5406,2.5823,2.5086,2.4645,0.0,0.0,0.0,0.0,0.0,0.0,0.0,0.0,0.0,0.0,0.0,2.2612,2.2335,0.0,0.0,0.0,2.3128,2.3411,2.376,2.3634,0.0,0.0,0.0,0.0,0.0,0.0,0.0,2.3034,2.3915,2.4632,2.4792,2.4408,2.4184,2.4466,2.4441,2.44,2.4354,0.0,2.6084,2.6578,2.7031,2.755,2.8257,2.8563,2.898,2.9786,3.0364,3.0704,3.0591,3.0942,3.124,3.1363,3.1148,3.1075,3.1591,3.0602,2.9737,2.9987,2.9915,2.9901,3.0128,3.0352,3.0437,2.9645,2.8853,2.8385,2.7915,2.7522,2.7373,2.7614,2.8179,2.7762,2.7683,2.7785,2.6721,2.6366,2.6543,2.5988,0.0,2.5323,2.6205,2.6554,2.656,2.7388,2.7789,2.7802,2.7802,2.7655,2.7403,2.7094,2.6814,2.652,2.6265,2.5971,2.5585,2.4539,2.3849,2.3508,2.3753,2.3985,2.4262,2.4506,2.4906,2.5491,2.5518,2.5518,2.5504,2.5862,2.6052,2.6063,2.588,2.598,2.6355,2.5491,2.5146,2.5449,0.0,0.0,0.0,0.0,0.0,0.0,0.0,0.0,0.0,0.0,0.0,0.0,0.0,0.0,0.0,2.3568,0.0,2.4218,2.3483,0.0,0.0,0.0,2.4178,2.5538,2.5482,2.5442,2.5643,0.0,0.0,2.5717,2.6213,2.6637,2.689,2.7467,2.7661,2.7065,2.7719,2.8329,2.7957,2.8095,2.8262,2.8827,2.9947,3.125,3.25,3.2734,3.2313,3.2034,3.1725,3.1645,3.1987,3.1665,3.1578,3.2334,3.1955,3.1665,3.1388,3.1123,3.1112,3.1544,3.1578,3.1511,3.1298,3.066,3.0565,2.9507,2.7903,2.7968,2.8111,2.829,2.8342,2.8105,2.7741,2.7472,2.7257,2.7109,2.6974,2.6879,2.6787,2.7203,2.7524,2.7791,2.8177,2.8511,2.8681,2.8681,2.8521,2.8297,2.8217,2.803,2.7764,2.7469,2.7014,2.6507,2.601,2.5297,2.4335,2.4361,2.4576,2.49,2.4943,2.5157,2.5504,2.5518,2.5518,2.5518,2.5594,2.5785,2.6052,2.5764,2.5896,2.6561,2.5843,2.551,2.5636,2.5049,0.0,0.0,0.0,0.0,0.0,0.0,0.0,0.0,0.0,2.3049,2.2617,0.0,2.3551,0.0,2.4428,2.5388,2.5676,2.5861,0.0,0.0,2.5672,2.5894,2.626,2.658,2.6629,2.6235,2.6625,2.7068,2.7496,2.7843,2.8449,2.9319,2.8079,2.7053,2.6965,2.8056,2.8861,2.8928,3.0061,3.108,3.118,3.1881,3.2549,3.2954,3.3085,3.3121,3.304,3.2942,3.2942,3.3027,3.2804,3.271,3.2834,3.2415,3.2147,3.2225,3.2163,3.2055,3.2206,3.2459,3.2515,3.2097,3.1582,3.1443,3.0494,2.9097,2.9096,2.9123,2.9065,2.9031,2.8804,2.8484,2.8364,2.8136,2.7924,2.8003,2.7976,2.7896,2.8297,2.8577,2.8794,2.9045,2.9272,2.9375,2.9299,2.9152,2.8991,2.8858,2.8711,2.858,2.8377,2.807,2.7574,2.7321,2.6707,2.5825,2.5291,2.517,2.5516,2.5732,2.5999,2.6279,2.6293,2.6172,2.5919,2.5772,2.57,2.5672,2.5176,2.5229,2.5797,2.5299,2.5103,2.5321,2.4778,2.4408,0.0,0.0,0.0,0.0,0.0,0.0,0.0,0.0,0.0,0.0,0.0,2.4241,2.4372,2.5295,2.5954,2.6095,2.637,2.6555,2.6623,2.7019,2.7526,2.8149,2.8377,2.8495,2.8567,2.8711,2.9102,2.9677,3.0132,3.0627,3.1296,3.0314,2.944,2.9155,2.986,3.0448,3.0635,3.1677,3.2545,3.2666,3.2959,3.3173,3.3187,3.3307,3.3414,3.3414,3.3414,3.3414,3.34,3.328,3.3173,3.316,3.2933,3.2746,3.2875,3.2924,3.28,3.2699,3.277,3.2743,3.2368,3.1857,3.1612,3.1129,3.0413,3.0249,3.0141,2.9988,2.9649,2.953,2.9472,2.9259,2.8961,2.8791,2.9001,2.8975,2.8818,2.9299,2.9539,2.9553,2.9793,2.9913,2.9913,2.9686,2.9593,2.9593,2.9379,2.9228,2.9215,2.9188,2.9045,2.8724,2.846,2.8005,2.7403,2.636,2.5905,2.6065,2.6547,2.6947,2.7242,2.7175,2.6894,2.636,2.6051,2.5636,2.5128,2.4556,2.443,2.4729,2.4497,2.4545,2.5013,2.4526,2.4247,0.0,2.382,0.0,0.0,0.0,0.0,0.0,0.0,0.0,0.0,2.4443,2.4989,2.6222,2.628,2.6343,2.6508,2.657,2.6934,2.7724,2.8312,2.9182,3.048,3.0381,3.0515,3.1356,3.1196,3.1269,3.1698,3.2286,3.2581,3.2514,3.2621,3.2332,3.2005,3.1931,3.2185,3.2621,3.2902,3.3066,3.328,3.3374,3.34,3.34,3.34,3.3414,3.3414,3.3414,3.3414,3.3414,3.34,3.34,3.3414,3.34,3.3387,3.336,3.3334,3.329,3.3089,3.2911,3.2795,3.2479,3.1725,3.1658,3.1289,3.0702,3.0673,3.0276,2.9618,2.953,2.953,2.9499,2.9673,2.9713,2.9673,2.9682,2.9668,2.9673,2.978,2.9833,2.9788,2.9887,2.9913,2.9927,3.01,3.0239,3.0253,3.0381,3.0461,3.0461,3.0221,2.9878,2.9325,2.9018,2.8564,2.8045,0.0,0.0,0.0,2.6653,2.6814,2.6881,2.6453,2.6198,2.6065,2.5556,0.0,2.5115,2.4743,2.4556,2.4616,2.4563,0.0,0.0,0.0,0.0,0.0,0.0,0.0,0.0,0.0,0.0,0.0,2.592,2.565,2.5043,2.5127,2.5868,2.7294,2.7662,2.8138,2.9078,2.961,3.0034,3.0434,3.0782,3.135,3.2072,3.1912,3.1944,3.2559,3.2433,3.2286,3.2407,3.2541,3.2607,3.2634,3.2848,3.2906,3.2795,3.2759,3.2826,3.2955,3.3133,3.3334,3.34,3.3414,3.3414,3.3414,3.3414,3.3414,3.3414,3.3414,3.3414,3.3414,3.3414,3.3414,3.3414,3.3414,3.3414,3.3414,3.3414,3.34,3.3347,3.328,3.32,3.3223,3.2746,3.2438,3.2112,0.0,3.1503,3.1022,3.0327,3.0194,3.0047,2.9972,3.0074,3.006,2.99,2.9766,2.97,2.97,2.9508,2.9522,2.97,2.97,2.978,2.9927,3.0074,3.0266,3.04,3.056,3.0648,3.0782,3.0648,3.0421,3.0127,2.9686,2.9312,2.9018,2.8724,2.8136,2.7309,2.7402,2.7468,2.751,2.7229,2.6934,2.664,2.6172,0.0,0.0,0.0,0.0,0.0,0.0,0.0,0.0,2.5655,0.0,2.6393,2.6371,2.65,2.6898,2.6925,2.7051,2.7338,2.7743,2.7608,2.6703,2.6988,2.7724,2.8955,2.9323,2.9753,3.0488,3.1089,3.1503,3.1664,3.2051,3.25,3.2728,3.2625,3.2706,3.3066,3.2933,3.2862,3.2959,3.2973,3.3022,3.3022,3.3093,3.3187,3.3187,3.32,3.3187,3.32,3.3307,3.34,3.3414,3.3414,3.3414,3.3414,3.3414,3.3414,3.3414,3.3414,3.3414,3.3414,3.3414,3.3414,3.3414,3.3414,3.3414,3.3414,3.3414,3.3414,3.3414,3.3414,3.3374,3.3988,3.3841,3.3293,3.2942,3.2648,3.2353,3.1877,3.1356,0.0,0.0,0.0,3.0467,3.0301,3.006,2.9766,2.9633,2.9619,2.9325,2.9282,2.9553,2.9566,2.9686,2.9913,2.9967,3.0127,3.04,3.0453,3.0581,3.0862,3.0822,3.0822,3.0822,3.0327,3.0047,2.9967,2.9415,2.8925,2.8446,2.8312,2.8272,2.8259,2.8165,2.7871,2.7348,2.7001,2.66,2.6158,2.5825,2.5665,2.5665,2.5665,2.5745,2.5892,2.5905,2.6079,2.6506,2.6533,2.6814,2.7522,2.767,2.8058,2.8858,2.9419,2.9423,2.8634,2.8991,2.9646,3.056,3.0855,3.1102,3.1503,3.1957,3.2278,3.2332,3.2759,3.3066,3.3133,3.3183,3.324,3.3427,3.3293,3.3187,3.336,3.3374,3.3414,3.34,3.3374,3.3414,3.3414,3.3387,3.3387,3.3387,3.34,3.3414,3.3414,3.3414,3.3414,3.3414,3.3414,3.3414,3.3414,3.3414,3.3414,3.3414,3.3414,3.3414,3.3414,3.3414,3.3414,3.3414,3.3414,3.3414,3.3414,3.3414,3.34,3.44,3.3855,3.3494,3.3187,3.2893,3.2648,3.2291,3.1917,3.1142,3.0635,3.0426,3.0667,3.0702,3.0648,3.0413,3.0279,3.0266,2.9927,2.982,2.986,2.9815,2.9873,2.9927,3.0181,3.0373,3.0426,3.0608,3.0875,3.1116,3.0902,3.0915,3.1102,3.0835,3.0541,3.0333,2.9967,2.9633,2.9329,2.8791,2.8537,2.8537,2.803,2.7736,2.7629,2.7121,2.6787,2.6707,2.644,2.6266,2.6266,2.6266,2.66,2.7335,2.7388,2.7749,2.8481,2.8561,2.8628,2.8748,2.9018,2.949,3.0105,3.0421,3.0448,3.0132,3.0172,3.0587,3.143,3.1577,3.1877,3.2612,3.2786,3.2933,3.316,3.328,3.3454,3.3681,3.3708,3.3721,3.3761,3.3788,3.3614,3.344,3.3414,3.3414,3.3414,3.3414,3.3414,3.3414,3.3414,3.3414,3.3414,3.3414,3.3414,3.3414,3.3414,3.3414,3.3414,3.3414,3.3414,3.3414,3.3414,3.3414,3.3414,3.3414,3.3414,3.3414,3.3414,3.3414,3.3414,3.3414,3.3414,3.3414,3.3414,3.3414,3.4843,3.4576,3.4217,3.3924,3.3668,3.3213,3.2853,3.2545,3.2158,3.1543,3.0875,3.0969,3.0942,3.0755,3.0327,3.0114,3.01,2.9646,2.9526,2.9673,2.9686,2.9766,2.9869,3.006,3.0253,3.0413,3.0533,3.0715,3.0955,3.0849,3.0942,3.1196,3.1089,3.0889,3.0608,3.0461,3.0327,3.0181,2.9459,2.9005,2.8801,2.8521,2.8388,2.8417,2.8108,2.7988,2.7988,2.7854,2.7787,2.7829,2.7829,2.8016,2.8361,2.8577,2.8925,2.9428,2.9673,2.982,2.998,3.0261,3.0608,3.1082,3.133,3.1517,3.1604,3.1443,3.1543,3.2139,3.2326,3.2581,3.2946,3.312,3.3267,3.3387,3.3414,3.3467,3.3587,3.3627,3.3627,3.3627,3.3627,3.3574,3.3427,3.3414,3.3414,3.3414,3.3414,3.3414,3.3414,3.3414,3.3414,3.3414,3.3414,3.3414,3.3414,3.3414,3.3414,3.3414,3.3414,3.3414,3.3414,3.3414,3.3414,3.3414,3.3414,3.3414,3.3414,3.3414,3.3414,3.3414,3.3414,3.3414,3.3414,3.3414,3.3414,3.5204,3.5177,3.487,3.4549,3.4189,3.3721,3.332,3.2986,3.2973,3.2438,3.1597,3.1463,3.1263,3.0942,3.0381,3.0154,3.0127,2.9562,2.9499,2.9753,2.978,2.99,3.01,3.0114,3.0234,3.048,3.0507,3.0608,3.0862,3.0889,3.1036,3.1289,3.1216,3.1116,3.0889,3.0835,3.0795,3.0755,3.0127,2.9633,2.9352,2.9228,2.9232,2.9188,2.9188,2.9202,2.9188,2.9188,2.9228,2.9295,2.9339,2.9366,2.9432,2.9646,2.9873,3.0114,3.0373,3.0654,3.0969,3.1263,3.1557,3.1898,3.2179,3.2447,3.2648,3.2492,3.2452,3.2688,3.2875,3.2986,3.3093,3.3267,3.3414,3.3414,3.3414,3.3414,3.3414,3.3414,3.3414,3.3414,3.3414,3.3414,3.3414,3.3414,3.3414,3.3414,3.3414,3.3414,3.3414,3.3414,3.3414,3.3414,3.3414,3.3414,3.3414,3.3414,3.3414,3.3414,3.3414,3.3414,3.3414,3.3414,3.3414,3.3414,3.3414,3.3414,3.3414,3.3414,3.3414,3.3414,3.3414,3.3414,3.3414,3.3414,3.3414,3.5191,3.5151,3.4883,3.4494,3.3975,3.3868,3.3507,3.3026,3.2986,3.2835,3.2433,3.2144,3.1851,3.1577,3.0969,3.0835,3.0962,3.0501,3.0426,3.0608,3.0675,3.0688,3.0675,3.0688,3.0728,3.0742,3.0742,3.0862,3.1116,3.1169,3.133,3.157,3.1356,3.1223,3.1169,3.0942,3.0808,3.0795,3.0715,3.0528,3.0293,2.998,2.9788,2.9833,2.9833,2.9788,2.9833,2.9833,2.9953,3.0253,3.0266,3.0341,3.0568,3.0648,3.0675,3.0715,3.0755,3.0996,3.1577,3.1864,3.2144,3.25,3.2719,3.2843,3.2946,3.3146,3.3173,3.3013,3.2973,3.3093,3.3334,3.34,3.3414,3.3414,3.3414,3.3414,3.3414,3.3414,3.3414,3.3414,3.3414,3.3414,3.3414,3.3414,3.3414,3.3414,3.3414,3.3414,3.3414,3.3414,3.3414,3.3414,3.3414,3.3414,3.3414,3.3414,3.3414,3.3414,3.3414,3.3414,3.3414,3.3414,3.3414,3.3414,3.3414,3.3414,3.3414,3.3414,3.3414,3.3414,3.3414,3.3414,3.3414,3.3414,3.3414,3.5097,3.495,3.5056,3.4776,3.4389,3.4042,3.3748,3.3507,3.3307,3.3066,3.2812,3.2666,3.2372,3.1904,3.1537,3.1289,3.1149,3.0795,3.0675,3.0782,3.0795,3.0795,3.0795,3.0795,3.0795,3.0795,3.0795,3.0862,3.0982,3.1096,3.137,3.1623,3.1543,3.149,3.1476,3.137,3.1316,3.1303,3.1129,3.0996,3.0849,3.0581,3.0434,3.0434,3.0434,3.0434,3.0434,3.0434,3.0488,3.0608,3.0621,3.0675,3.0782,3.1116,3.1316,3.1376,3.1698,3.1979,3.2219,3.25,3.2679,3.2848,3.2471,3.2542,3.314,3.2797,3.2659,3.3167,3.3227,3.3293,3.3387,3.3414,3.3414,3.3414,3.3414,3.3414,3.3414,3.3414,3.3414,3.3414,3.3414,3.3414,3.3414,3.3414,3.3414,3.3414,3.3414,3.3414,3.3414,3.3414,3.3414,3.3414,3.3414,3.3414,3.3414,3.3414,3.3414,3.3414,3.3414,3.3414,3.3414,3.3414,3.3414,3.3414,3.3414,3.3414,3.3414,3.3414,3.3414,3.3414,3.3414,3.3414,3.3414,3.3414,3.3414,3.5084,3.4923,3.511,3.503,3.4775,3.4309,3.4082,3.3961,3.3681,3.3414,3.3227,3.3133,3.2826,3.2332,3.1957,3.1704,3.1557,3.1289,3.1196,3.1263,3.1323,3.1276,3.1263,3.1323,3.1276,3.131,3.1303,3.1289,3.1303,3.1463,3.1664,3.1784,3.1784,3.1791,3.1724,3.1724,3.1724,3.1698,3.145,3.1343,3.1316,3.1142,3.0955,3.0822,3.0795,3.0795,3.0795,3.0795,3.0835,3.0902,3.0982,3.0936,3.0748,3.121,3.133,3.1129,3.1497,3.1819,3.177,3.2043,3.2249,3.2212,3.1654,3.1706,3.2209,3.1806,3.1756,3.2347,3.2762,3.3013,3.3364,3.3414,3.3414,3.3414,3.3414,3.3414,3.3414,3.3414,3.3414,3.3414,3.3414,3.3414,3.3414,3.3414,3.3414,3.3414,3.3414,3.3414,3.3414,3.3414,3.3414,3.3414,3.3414,3.3414,3.3414,3.3414,3.3414,3.3414,3.3414,3.3414,3.3414,3.3414,3.3414,3.3414,3.3414,3.3414,3.3414,3.3414,3.3414,3.3414,3.3414,3.3414,3.3414,3.3414,3.3414,3.5191,3.5177,3.5191,3.503,3.475,3.471,3.4549,3.4128,3.3937,3.3855,3.371,3.3521,3.3227,3.2942,3.2372,3.2286,3.2447,3.2131,3.2118,3.2393,3.2433,3.2487,3.2514,3.2527,3.2487,3.2393,3.2353,3.2407,3.246,3.2487,3.2345,3.2104,3.2043,3.1944,3.1757,3.1683,3.169,3.1778,3.1643,3.1616,3.1616,3.1589,3.1242,3.0757,3.0776,3.0816,3.0849,3.0776,3.0909,3.1162,3.1348,3.122,3.0629,3.0764,3.0475,2.9689,2.9771,2.9917,3.0003,3.031,3.0507,3.0406,3.0368,3.0341,3.0595,3.0443,3.0392,3.038,3.1403,3.2259,3.3013,3.3263,3.3364,3.3414,3.3414,3.3414,3.3414,3.3414,3.3414,3.3414,3.3414,3.3414,3.3414,3.3414,3.3414,3.3414,3.3414,3.3414,3.3414,3.3414,3.3414,3.3414,3.3414,3.3414,3.3414,3.3414,3.3414,3.3414,3.3414,3.3414,3.3414,3.3414,3.3414,3.3414,3.3414,3.3414,3.3414,3.3414,3.3414,3.3414,3.3414,3.3414,3.3414,3.3414,3.3414,3.5204,3.5177,3.5004,3.4963,3.4964,3.4046,3.3576,3.346,3.3188,3.2955,3.2953,3.3457,3.3547,3.324,3.304,3.2799,3.2594,3.2474,3.2487,3.2594,3.2594,3.2594,3.2594,3.2594,3.2701,3.2835,3.2688,3.2688,3.2835,3.2688,3.2648,3.2479,3.1747,3.1591,3.2058,3.1548,3.1499,3.2128,3.1596,3.116,3.1099,3.0529,3.0027,2.99,3.0347,3.1016,3.1904,3.061,3.0179,3.0957,3.0478,3.0031,2.98,2.9996,3.008,2.9938,2.9984,2.9994,3.0057,3.0129,3.024,3.0189,2.9569,2.9467,2.9936,2.9631,2.9428,3.0088,3.0493,3.0999,3.1491,3.2548,3.3364,3.3414,3.3364,3.3364,3.3414,3.3414,3.3414,3.3414,3.3414,3.3414,3.3414,3.3414,3.3414,3.3414,3.3414,3.3414,3.3414,3.3414,3.3414,3.3414,3.3414,3.3414,3.3414,3.3414,3.3414,3.3414,3.3414,3.3414,3.3414,3.3414,3.3414,3.3414,3.3414,3.3414,3.3414,3.3414,3.3414,3.3414,3.3414,3.3414,3.3414,3.3414,3.3414,3.4068,3.4108,3.3874,3.3952,3.3989,3.3071,3.2601,3.2576,3.2314,3.2101,3.2094,3.2673,3.2775,3.2682,3.2895,3.281,3.2528,3.2731,3.2826,3.2875,3.2875,3.2875,3.2875,3.2875,3.2969,3.3066,3.2919,3.2785,3.2583,3.2426,3.2399,3.2402,3.1147,3.081,3.1287,3.0722,3.0833,3.1261,3.0771,3.0378,3.0279,2.9689,2.9342,2.9428,2.964,3.0278,3.147,3.0083,2.959,3.0193,2.9774,2.9314,2.911,2.8913,2.8886,2.91,2.9123,2.9123,2.9123,2.9123,2.9123,2.9123,2.8512,2.841,2.9022,2.8461,2.8512,2.9022,2.953,2.9682,3.0037,3.129,3.2511,3.2812,3.2862,3.3063,3.3364,3.3414,3.3414,3.3414,3.3414,3.3414,3.3364,3.3414,3.3414,3.3414,3.3414,3.3414,3.3414,3.3414,3.3414,3.3414,3.3414,3.3414,3.3414,3.3414,3.3414,3.3414,3.3414,3.3414,3.3414,3.3414,3.3414,3.3414,3.3414,3.3414,3.3414,3.3414,3.3414,3.3414,3.3414,3.3414,3.3414,3.3414,3.3414,3.1889,3.1996,3.1836,3.2025,3.2103,3.1853,3.1771,3.1698,3.144,3.1296,3.1199,3.1147,3.1274,3.1213,3.1854,3.2162,3.2213,3.2676,3.3047,3.3134,3.3184,3.3147,3.3034,3.2997,3.3023,3.3063,3.325,3.2736,3.1768,3.173,3.1628,3.1251,3.0253,2.9744,2.9429,2.9527,2.9392,2.9465,2.9428,2.9354,2.9257,2.9119,2.9077,2.9205,2.8515,2.8361,2.9156,2.9144,2.918,2.9329,2.9471,2.9258,2.8472,2.7674,2.699,2.7144,2.7052,2.7001,2.7052,2.7155,2.7257,2.7246,2.7001,2.7093,2.7246,2.7155,2.7155,2.74,2.8013,2.8614,2.8716,2.9518,3.0645,3.1567,3.1806,3.2159,3.2862,3.3263,3.3314,3.3163,3.3,3.3314,3.3314,3.3,3.2899,3.2912,3.3113,3.3163,3.3163,3.3263,3.3364,3.3414,3.3414,3.3414,3.3414,3.3414,3.3414,3.3414,3.3414,3.3414,3.3414,3.3414,3.3414,3.3414,3.3414,3.3414,3.3414,3.3414,3.3414,3.3414,3.3414,3.3414,3.3414,3.3414,3.3414,3.1783,3.1783,3.1783,3.1783,3.1676,3.097,3.0649,3.0584,3.0502,3.0374,3.0264,3.0867,3.1051,3.0958,3.1201,3.1331,3.1307,3.1396,3.1731,3.2185,3.2272,3.192,3.139,3.1388,3.1412,3.1412,3.1476,3.1223,3.0771,3.0645,3.0647,3.0384,2.9451,2.9365,2.9673,2.9232,2.8778,2.8755,2.8766,2.8464,2.7745,2.7615,2.7366,2.6697,2.631,2.5962,2.5481,2.6815,2.7981,2.8665,2.8161,2.768,2.7389,2.7093,2.6899,2.6899,2.6899,2.6899,2.6899,2.6899,2.6899,2.6899,2.6899,2.6899,2.6899,2.6899,2.6899,2.6899,2.7246,2.7451,2.7502,2.7707,2.8767,3.0493,3.0696,3.0847,3.1302,3.1302,3.1189,3.1189,3.1189,3.1189,3.1239,3.129,3.1391,3.1441,3.1857,3.231,3.241,3.2963,3.3364,3.3414,3.3414,3.3414,3.3414,3.3414,3.3414,3.3414,3.3414,3.3414,3.3414,3.3414,3.3414,3.3414,3.3414,3.3414,3.3414,3.3414,3.3414,3.3414,3.3414,3.3414,3.3414,3.3414,3.3414,3.0553,3.0553,3.0553,3.0553,3.05,2.9749,2.948,2.9469,2.9469,2.9326,2.9363,2.9884,3.0122,3.0054,3.0194,3.0309,3.0326,3.0387,3.0326,3.0346,3.1097,3.0943,3.0455,3.0464,2.9947,2.9564,3.007,2.9888,2.9022,2.8947,2.8947,2.8795,2.748,2.6958,2.7674,2.7122,2.6702,2.6691,2.6702,2.6395,2.583,2.5697,2.5347,2.478,2.4677,2.4306,2.3738,2.4986,2.6005,2.6508,2.6005,2.5861,2.6232,2.6272,2.6488,2.6847,2.6899,2.6899,2.6899,2.6899,2.6899,2.6899,2.6899,2.6899,2.6899,2.6899,2.6899,2.6899,2.6899,2.6899,2.6899,2.6899,2.7605,2.8767,2.9377,2.9733,3.0037,3.024,3.024,3.0341,3.0291,3.024,3.024,3.024,3.024,3.0341,3.0746,3.1454,3.1756,3.2373,3.2812,3.3213,3.3414,3.3414,3.3414,3.3414,3.3414,3.3414,3.3414,3.3414,3.3414,3.3414,3.3414,3.3414,3.3414,3.3414,3.3414,3.3414,3.3414,3.3414,3.3414,3.3414,3.3414,3.3414,3.3414,2.8414,2.836,2.836,2.836,2.8414,2.8306,2.8188,2.8145,2.8468,2.835,2.8177,2.8479,2.849,2.85,2.8862,2.9011,2.9212,2.9342,2.8847,2.8254,2.8968,2.9659,2.9718,2.9446,2.8527,2.7595,2.8661,2.8461,2.6805,2.6743,2.6743,2.6497,2.4966,2.3738,2.4245,2.3738,2.3935,2.3883,2.3841,2.3883,2.3686,2.379,2.3635,2.3531,2.3531,2.3376,2.3169,2.3324,2.3531,2.3635,2.3945,2.4358,2.4986,2.5192,2.5604,2.654,2.6745,2.6796,2.6847,2.6899,2.6899,2.6899,2.6899,2.6899,2.6899,2.6899,2.6899,2.6899,2.6899,2.6899,2.6899,2.6899,2.7001,2.7052,2.7962,2.8818,2.9784,2.9834,2.9631,2.9733,2.9987,2.9987,2.9682,2.9733,2.9733,2.9784,2.9885,3.0493,3.1302,3.1857,3.236,3.2862,3.3364,3.3414,3.3414,3.3414,3.3414,3.3414,3.3414,3.3414,3.3414,3.3414,3.3414,3.3414,3.3414,3.3414,3.3414,3.3414,3.3414,3.3414,3.3414,3.3414,3.3414,3.3414,3.3414,2.8414,2.8306,2.7432,2.7043,2.7097,2.7097,2.6566,2.6132,2.7702,2.7378,2.6511,2.7658,2.7821,2.7141,2.7243,2.7287,2.7194,2.6538,2.6568,2.6671,2.6102,2.6114,2.6084,2.5886,2.5585,2.5246,2.5509,2.5018,2.4503,2.4564,2.4564,2.4451,2.3922,2.3498,2.3583,2.3498,2.3117,2.2651,2.323,2.3136,2.2617,2.3188,2.3169,2.2444,2.2401,2.2037,2.1301,2.1197,2.2029,2.3479,2.3583,2.3686,2.3996,2.4048,2.4564,2.5501,2.5759,2.6129,2.6694,2.6899,2.6899,2.6899,2.6899,2.6899,2.6899,2.6899,2.6899,2.6899,2.6899,2.6899,2.6899,2.6899,2.6899,2.6899,2.7257,2.7553,2.7809,2.7758,2.7758,2.7758,2.786,2.7962,2.7962,2.7962,2.7962,2.8065,2.8665,2.953,3.0544,3.1554,3.2172,3.2912,3.3414,3.3414,3.3414,3.3414,3.3414,3.3414,3.3414,3.3414,3.3414,3.3414,3.3414,3.3414,3.3414,3.3414,3.3414,3.3414,3.3414,3.3414,3.3414,3.3414,3.3414,3.3414,3.3414,2.7648,2.754,2.6393,2.5905,2.5905,2.5851,2.548,2.5208,2.624,2.6566,2.5915,2.6403,2.6837,2.6546,2.6023,2.5703,2.5586,2.4877,2.4725,2.4604,2.3774,2.3827,2.428,2.4211,2.3887,2.3499,2.3544,2.3395,2.3032,2.2993,2.3029,2.2961,2.265,2.2476,2.2398,2.2433,2.2214,2.1758,2.217,2.2118,2.1645,2.2118,2.2065,2.1507,2.1377,2.0985,2.0388,2.032,2.1154,2.2444,2.2547,2.2444,2.291,2.2962,2.3428,2.4461,2.4986,2.5604,2.6118,2.658,2.6899,2.6899,2.6899,2.6899,2.6899,2.6899,2.6899,2.6899,2.6899,2.6899,2.6899,2.6899,2.6899,2.6899,2.6899,2.6899,2.6899,2.7001,2.6899,2.6899,2.6899,2.6899,2.6899,2.6899,2.6899,2.7144,2.8104,2.9072,3.0076,3.11,3.2071,3.2812,3.3364,3.3414,3.3414,3.3414,3.3414,3.3414,3.3414,3.3414,3.3414,3.3414,3.3414,3.3414,3.3414,3.3414,3.3414,3.3414,3.3414,3.3414,3.3414,3.3414,3.3414,3.3414,3.3414,2.6393,2.6339,2.5208,2.4719,2.4719,2.4719,2.4555,2.4501,2.4936,2.5317,2.5525,2.5154,2.548,2.6156,2.4839,2.4393,2.4348,2.4034,2.3494,2.2915,2.2361,2.2687,2.3691,2.3589,2.3035,2.2407,2.3005,2.2628,2.21,2.2004,2.2082,2.1959,2.1344,2.1037,2.1218,2.1082,2.0947,2.1021,2.1111,2.1209,2.105,2.1148,2.1082,2.0888,2.0717,2.0599,2.0353,2.032,2.0789,2.1769,2.0833,2.0997,2.1726,2.1821,2.2392,2.3272,2.4151,2.478,2.5192,2.5861,2.6375,2.6272,2.6478,2.6642,2.6386,2.6386,2.654,2.654,2.6694,2.6694,2.6899,2.6899,2.6899,2.6899,2.6899,2.6899,2.6899,2.6899,2.6899,2.6899,2.6899,2.6899,2.6899,2.6899,2.6899,2.6899,2.7656,2.841,2.9479,3.0544,3.1655,3.2712,3.3113,3.3414,3.3414,3.3414,3.3414,3.3414,3.3414,3.3414,3.3414,3.3414,3.3414,3.3414,3.3414,3.3414,3.3414,3.3414,3.34,3.3414,3.3414,3.3414,3.3414,3.3414,3.3414,2.5263,2.5154,2.4001,2.351,2.3464,2.3464,2.2973,2.2371,2.4119,2.401,2.3182,2.4174,2.4446,2.3947,2.3629,2.3393,2.3284,2.2676,2.1874,2.1874,2.2555,2.2206,2.2178,2.1994,2.166,2.1394,2.1397,2.1297,2.1035,2.1233,2.1173,2.1181,2.1124,2.091,2.0934,2.095,2.091,2.091,2.0918,2.0934,2.0942,2.0934,2.0807,2.0637,2.0491,2.0385,2.0336,2.0268,2.0424,2.0529,2.0485,2.0501,2.0737,2.0789,2.1258,2.2132,2.2599,2.3169,2.3841,2.4254,2.4358,2.4564,2.5192,2.5295,2.4461,2.5244,2.5553,2.5656,2.5656,2.5964,2.6642,2.6847,2.6899,2.6899,2.6899,2.6899,2.6899,2.6899,2.6899,2.6899,2.6899,2.6899,2.6899,2.6899,2.6899,2.695,2.7349,2.7849,2.8869,3.0037,3.1151,3.231,3.2762,3.3063,3.3414,3.3414,3.3414,3.3414,3.3414,3.3414,3.3414,3.34,3.3387,3.34,3.3414,3.3374,3.3253,3.336,3.3334,3.3374,3.336,3.3293,3.3253,3.3307,3.3347,2.4056,2.3956,2.2808,2.2316,2.2316,2.2261,2.1979,2.1713,2.2644,2.2918,2.2425,2.3128,2.318,2.3141,2.2632,2.235,2.2299,2.1746,2.1439,2.154,2.2034,2.1874,2.1442,2.1222,2.1124,2.095,2.0955,2.0844,2.0836,2.088,2.104,2.0994,2.1051,2.1178,2.1162,2.1092,2.117,2.117,2.11,2.11,2.1154,2.11,2.1019,2.0848,2.0677,2.0572,2.058,2.0572,2.0523,2.0474,2.045,2.0401,2.0336,2.0268,2.0633,2.1101,2.183,2.2132,2.2755,2.3324,2.3635,2.3531,2.4203,2.4048,2.379,2.4203,2.4409,2.4512,2.4616,2.4925,2.6016,2.6745,2.6796,2.6899,2.6899,2.6899,2.6899,2.6899,2.6899,2.6899,2.6899,2.6899,2.6899,2.6899,2.6899,2.6899,2.7707,2.8206,2.8614,2.9733,3.0746,3.1706,3.2259,3.2712,3.3213,3.3414,3.3414,3.3414,3.3414,3.3414,3.3414,3.3387,3.336,3.3347,3.3307,3.3066,3.2986,3.3106,3.3187,3.3013,3.2946,3.3,3.3053,3.3106,3.3133,2.2854,2.2754,2.1823,2.1384,2.1384,2.1439,2.1439,2.1384,2.1384,2.2042,2.2535,2.1768,2.2227,2.2642,2.1999,2.1537,2.1585,2.1528,2.1384,2.1439,2.1494,2.1532,2.136,2.1327,2.1238,2.1007,2.1032,2.1007,2.0954,2.1043,2.1116,2.1173,2.1246,2.1278,2.1343,2.1376,2.1335,2.1319,2.1319,2.1327,2.1335,2.1335,2.1246,2.1083,2.0905,2.0861,2.0853,2.0853,2.0828,2.0653,2.0612,2.0515,2.0409,2.0328,2.0268,2.0372,2.1206,2.1561,2.1769,2.2392,2.2858,2.3117,2.3324,2.3169,2.3065,2.3169,2.3376,2.3479,2.3635,2.41,2.4986,2.5553,2.6221,2.654,2.6591,2.6745,2.6847,2.6899,2.6899,2.6899,2.6899,2.6899,2.6899,2.6899,2.6899,2.7052,2.786,2.8461,2.8728,2.9428,3.0404,3.1454,3.2109,3.2762,3.3263,3.3414,3.3414,3.3414,3.3414,3.3414,3.3387,3.328,3.3227,3.3213,3.312,3.2959,3.2946,3.3133,3.3066,3.2755,3.2822,3.3066,3.3053,3.2933,3.2986,2.1658,2.1658,2.1494,2.1384,2.1384,2.1384,2.1384,2.1384,2.1384,2.1494,2.1658,2.1494,2.1502,2.1699,2.1628,2.1408,2.1433,2.1376,2.136,2.136,2.1352,2.1335,2.1327,2.1343,2.1319,2.1319,2.1262,2.1189,2.1108,2.1062,2.1213,2.1287,2.1246,2.1254,2.136,2.1384,2.1384,2.1384,2.1384,2.1384,2.1384,2.1368,2.1319,2.1157,2.1002,2.0975,2.0934,2.0918,2.0893,2.0853,2.0677,2.0596,2.0499,2.0385,2.0328,2.0372,2.0581,2.0789,2.0841,2.0841,2.0885,2.1041,2.1717,2.1717,2.1457,2.1717,2.2184,2.2495,2.3014,2.3635,2.3841,2.4316,2.4729,2.5244,2.5707,2.6026,2.6642,2.6899,2.6899,2.6899,2.6899,2.6899,2.6899,2.6899,2.6899,2.6931,2.7312,2.7671,2.7784,2.8836,3.0124,3.1125,3.2109,3.2762,3.3364,3.3414,3.3414,3.3414,3.3414,3.3414,3.3334,3.3146,3.308,3.3187,3.3227,3.3173,3.3187,3.3187,3.3106,3.2893,3.304,3.32,3.308,3.2959,3.3133,2.1384,2.1384,2.1384,2.1384,2.1384,2.1384,2.1384,2.1384,2.1384,2.1384,2.1352,2.1303,2.1368,2.1433,2.1311,2.1295,2.1343,2.1278,2.1254,2.1246,2.1165,2.1162,2.1148,2.1205,2.1303,2.1352,2.1376,2.1352,2.127,2.1262,2.1303,2.1335,2.1287,2.1303,2.136,2.1384,2.1384,2.1384,2.1384,2.1384,2.1384,2.1384,2.1327,2.1254,2.1181,2.1132,2.1132,2.1124,2.1089,2.0934,2.0828,2.0637,2.0491,2.0393,2.0268,2.0268,2.0268,2.0268,2.0268,2.0268,2.0372,2.0372,2.0893,2.0893,2.0581,2.0833,2.1154,2.1405,2.2089,2.28,2.29,2.3234,2.4157,2.5106,2.5366,2.5769,2.654,2.6796,2.6899,2.6899,2.6899,2.6899,2.6899,2.6899,2.6899,2.6942,2.7017,2.7101,2.7174,2.8313,2.9774,3.0972,3.2009,3.2799,3.3314,3.3414,3.3414,3.3414,3.3414,3.3414,3.3387,3.324,3.324,3.3334,3.3334,3.328,3.3066,3.2933,3.2986,3.3053,3.2986,3.3009,3.2986,3.3026,3.32,2.1384,2.1384,2.1384,2.1384,2.1384,2.1384,2.1384,2.1384,2.1384,2.136,2.1311,2.1205,2.1262,2.1368,2.1238,2.114,2.1262,2.1116,2.1075,2.1051,2.0962,2.088,2.08,2.0835,2.0895,2.0819,2.111,2.1298,2.1408,2.1335,2.1335,2.1352,2.136,2.136,2.1368,2.1384,2.1384,2.1384,2.1384,2.1384,2.1384,2.1384,2.1384,2.1329,2.1274,2.114,2.1124,2.0841,2.0776,2.0701,2.0655,2.0555,2.0373,2.0344,2.0268,2.0268,2.0268,2.0268,2.0268,2.0268,2.0268,2.032,2.032,2.032,2.032,2.0372,2.0424,2.0476,2.1049,2.1656,2.1847,2.2429,2.3408,2.4338,2.4808,2.5295,2.618,2.6642,2.6899,2.6899,2.6899,2.6899,2.6899,2.7028,2.7049,2.7114,2.7241,2.7868,2.792,2.8275,2.9505,3.0841,3.1921,3.2738,3.3213,3.3364,3.3414,3.3414,3.3414,3.3414,3.3414,3.3374,3.34,3.34,3.332,3.3213,3.2946,3.2839,3.3053,3.3093,3.2875,3.2875,3.3066,3.3146,3.324,2.1384,2.1384,2.1384,2.1384,2.1384,2.1376,2.1376,2.1376,2.136,2.1295,2.1157,2.1116,2.1043,2.104,2.1007,2.0958,2.0975,2.0859,2.0835,2.0765,2.0717,2.0444,2.0286,2.0295,2.0186,2.0152,2.045,2.0993,2.1285,2.1218,2.1208,2.1281,2.1224,2.1175,2.1266,2.1384,2.1384,2.1384,2.1384,2.1384,2.1384,2.1384,2.1384,2.1274,2.1,2.078,2.0701,2.0396,2.0031,2.0294,2.0074,2.0144,2.0434,2.0401,2.0336,2.0268,2.0268,2.0268,2.0268,2.0268,2.0268,2.0268,2.0268,2.0268,2.0268,2.0268,2.0268,2.032,2.0529,2.0666,2.0768,2.0762,2.1431,2.2437,2.3484,2.4367,2.5347,2.6232,2.6478,2.6899,2.6899,2.6899,2.6899,2.7122,2.7273,2.7348,2.7528,2.8074,2.8659,2.8917,2.962,3.102,3.2022,3.2838,3.3213,3.3364,3.3414,3.3414,3.3414,3.3414,3.3414,3.3414,3.3414,3.3387,3.3307,3.3293,3.32,3.3187,3.3293,3.324,3.3093,3.3173,3.3334,3.3347,3.3293,2.1384,2.1384,2.1384,2.1384,2.1368,2.1287,2.1238,2.1213,2.1124,2.1043,2.0962,2.0864,2.0775,2.0742,2.0853,2.091,2.0832,2.0439,2.0277,2.0154,1.9903,1.9607,1.9517,1.9546,1.948,1.9643,1.9868,2.0157,2.0622,2.1048,2.1218,2.0913,2.11,2.1092,2.1102,2.1274,2.1384,2.1384,2.1384,2.1384,2.1384,2.1384,2.1384,2.1384,2.111,2.0937,2.0733,2.0342,1.9931,2.0054,1.9646,1.9326,1.9399,1.9419,1.9433,1.9851,1.9851,2.0007,2.0268,2.0268,2.0268,2.0268,2.0268,2.0268,2.0268,2.0276,2.0276,2.0268,2.0268,2.0361,2.0418,2.0377,2.1029,2.1812,2.2333,2.3489,2.4564,2.5398,2.6016,2.6478,2.6796,2.6653,2.6612,2.6882,2.7094,2.7327,2.7359,2.7611,2.8443,2.9244,3.0187,3.1466,3.2349,3.3076,3.3263,3.3414,3.3414,3.3414,3.3414,3.3414,3.3414,3.3414,3.3414,3.3414,3.3374,3.3374,3.3414,3.34,3.336,3.3387,3.34,3.3414,3.3414,3.34,3.336,2.136,2.1327,2.1368,2.1384,2.1368,2.1238,2.1173,2.1116,2.1059,2.1007,2.0885,2.0734,2.0677,2.0632,2.0684,2.058,2.0572,1.9912,1.9653,1.9379,1.9069,1.8856,1.892,1.8938,1.9045,1.9184,1.9302,1.9471,1.9888,2.0457,2.0874,2.0505,2.0654,2.0882,2.0882,2.1,2.1164,2.1384,2.1384,2.1384,2.1384,2.1384,2.1384,2.1313,2.1124,2.0873,2.0795,1.9822,1.9332,1.9348,1.8917,1.8602,1.8723,1.8806,1.8903,1.9224,1.9276,1.9433,1.9746,2.0007,2.0216,2.0268,2.0268,2.0268,2.0328,2.0344,2.0393,2.0409,2.0483,2.0531,2.0539,2.0353,2.0486,2.0993,2.1474,2.2678,2.3677,2.409,2.4616,2.5141,2.5522,2.6037,2.6129,2.6509,2.6873,2.721,2.7327,2.7327,2.8072,2.9061,2.9805,3.0733,3.1403,3.2159,3.2762,3.2963,3.3113,3.3364,3.3364,3.3414,3.3414,3.3414,3.3414,3.3414,3.3414,3.3414,3.3414,3.3414,3.3414,3.3414,3.3414,3.3414,3.3414,3.3414,3.3414,2.1287,2.1157,2.1311,2.136,2.136,2.1368,2.1254,2.1092,2.123,2.1075,2.0869,2.0861,2.0812,2.0692,2.034,2.0105,2.0029,1.9394,1.9219,1.9112,1.9064,1.8757,1.8636,1.8506,1.8401,1.8281,1.8585,1.8765,1.9048,1.9773,2.0285,2.0505,2.0458,2.067,2.078,2.089,2.1055,2.1329,2.1384,2.1368,2.136,2.136,2.1352,2.1037,2.0295,1.9557,1.9488,1.8488,1.8071,1.8408,1.8111,1.8071,1.823,1.8327,1.8439,1.8589,1.8701,1.8798,1.9059,1.9634,2.0164,2.0268,2.0268,2.0268,2.0328,2.0474,2.0547,2.0523,2.0547,2.0612,2.0499,2.0247,2.0188,2.0288,2.0718,2.1118,2.1916,2.2227,2.2797,2.3531,2.4222,2.4881,2.5469,2.5841,2.6295,2.6681,2.7003,2.7065,2.7541,2.8374,2.8746,2.9448,3.0049,3.0898,3.1806,3.2259,3.2712,3.3063,3.3213,3.3314,3.3414,3.3414,3.3414,3.3414,3.3414,3.3414,3.3414,3.3414,3.3414,3.3414,3.3414,3.3414,3.3414,3.3414,3.3414,2.1019,2.097,2.1081,2.1113,2.1105,2.0945,2.0864,2.0791,2.0751,2.0669,2.0547,2.0523,2.0523,2.0389,2.0004,1.9688,1.9529,1.8676,1.8607,1.8456,1.8301,1.817,1.8075,1.812,1.7937,1.7943,1.8143,1.8419,1.8813,1.9081,1.9735,2.0065,2.034,2.0348,2.0513,2.0819,2.1156,2.1211,2.1368,2.1343,2.123,2.1159,2.101,2.0456,2.0263,1.9554,1.9254,1.832,1.8028,1.7851,1.7573,1.7577,1.7653,1.7706,1.7863,1.8065,1.8125,1.8222,1.8536,1.9007,1.9373,1.9851,2.0059,2.0268,2.0164,2.0349,2.0418,2.0442,2.047,2.0405,2.0353,2.0216,2.0168,2.0023,1.9955,1.9999,2.026,2.0564,2.118,2.202,2.3065,2.4016,2.4552,2.5068,2.5602,2.6151,2.6494,2.6835,2.7258,2.773,2.8063,2.8632,2.9338,2.9834,3.0746,3.1605,3.236,3.2712,3.2963,3.3163,3.3263,3.3414,3.3414,3.3414,3.3414,3.3414,3.3414,3.3414,3.3414,3.3414,3.3414,3.3414,3.3414,3.3414,3.3263,2.0872,2.0844,2.0885,2.0901,2.0893,2.0783,2.0718,2.0661,2.0629,2.0556,2.0511,2.0564,2.0596,2.0462,2.0078,1.9843,1.957,1.8808,1.8504,1.8288,1.8011,1.7777,1.7935,1.7936,1.7834,1.7908,1.7915,1.8143,1.8364,1.8198,1.875,1.957,2.045,2.027,2.0592,2.0764,2.1256,2.1092,2.1077,2.0904,2.0668,2.0527,2.0394,1.9769,1.9486,1.9119,1.8701,1.8053,1.7717,1.7569,1.7303,1.7037,1.7031,1.7031,1.7188,1.7451,1.7608,1.7758,1.8073,1.8484,1.8746,1.9224,1.9485,1.9694,1.9798,1.9838,1.9767,1.9812,1.9888,1.9978,2.0043,1.9759,1.9555,1.9262,1.8656,1.8649,1.8858,1.9164,1.9835,2.0556,2.1449,2.208,2.3489,2.4067,2.4943,2.5447,2.5851,2.6192,2.6624,2.7055,2.7495,2.8076,2.8829,2.9276,2.9784,3.0544,3.1403,3.2159,3.2461,3.2963,3.3113,3.3213,3.3364,3.3414,3.3414,3.3414,3.3414,3.3414,3.3414,3.3414,3.3414,3.3414,3.3414,3.3364,3.3063,2.0897,2.0637,2.0775,2.0832,2.0832,2.1027,2.0978,2.0815,2.0875,2.0878,2.0746,2.0824,2.0905,2.0893,2.0209,1.9954,1.9752,1.894,1.8565,1.8421,1.8025,1.7882,1.7909,1.7929,1.7881,1.7908,1.7915,1.797,1.8088,1.8253,1.8419,1.8667,1.9518,2.0068,2.0931,2.1032,2.0815,2.0342,2.0412,2.0084,1.9737,1.9575,1.9477,1.9066,1.8688,1.8371,1.8024,1.7629,1.7303,1.717,1.711,1.6978,1.6978,1.6978,1.7031,1.7083,1.7083,1.7083,1.7136,1.802,1.8432,1.8649,1.8903,1.8955,1.8776,1.8858,1.9084,1.9189,1.922,1.9425,1.9296,1.9008,1.8851,1.8588,1.8035,1.7765,1.802,1.7968,1.8641,1.9208,1.9156,1.9574,2.15,2.3014,2.4048,2.4748,2.5151,2.5604,2.6016,2.6324,2.6683,2.698,2.7696,2.7849,2.8257,2.9428,3.0392,3.1252,3.1857,3.2209,3.2662,3.2912,3.3063,3.3263,3.3414,3.3414,3.3414,3.3414,3.3414,3.3414,3.3414,3.3414,3.3414,3.3113,3.2662,2.0523,2.0365,2.0114,1.9972,2.0041,2.0405,2.0621,2.0632,2.037,2.0028,1.97,1.9646,1.9669,1.9585,1.9444,1.9171,1.9009,1.8383,1.7949,1.8364,1.7964,1.8087,1.8074,1.7991,1.7915,1.7915,1.7915,1.8143,1.8474,1.8364,1.8695,1.8997,1.9009,1.9458,1.9969,2.0194,2.0225,1.9715,1.9667,1.9559,1.9096,1.9005,1.8786,1.8313,1.7984,1.7752,1.7495,1.7104,1.7037,1.6978,1.6978,1.6978,1.6978,1.6978,1.6978,1.6978,1.6978,1.6978,1.7031,1.7451,1.7706,1.802,1.8327,1.8484,1.8604,1.8633,1.8716,1.8685,1.8654,1.8858,1.8783,1.8716,1.8611,1.8506,1.8125,1.7863,1.7811,1.7398,1.7549,1.7915,1.8073,1.9477,2.1189,2.2236,2.3221,2.3996,2.4409,2.4986,2.545,2.5553,2.581,2.581,2.6108,2.6211,2.6723,2.79,2.8654,2.9264,3.0291,3.1201,3.1706,3.2259,3.2662,3.2812,3.3113,3.3364,3.3163,3.3063,3.3314,3.3414,3.3163,3.2862,3.2611,3.2259,3.1806,1.9801,1.9702,1.9398,1.9225,1.9239,1.9652,1.9936,1.9979,1.9668,1.9296,1.9045,1.8991,1.909,1.8989,1.884,1.8734,1.8647,1.8173,1.7962,1.8343,1.7943,1.8012,1.8053,1.8081,1.7964,1.7915,1.7915,1.8088,1.8309,1.8033,1.8212,1.8553,1.8849,1.8708,1.8931,1.9117,1.9424,1.9003,1.8855,1.8747,1.8405,1.8205,1.8042,1.7671,1.7458,1.7353,1.7083,1.6978,1.6978,1.6978,1.6978,1.6978,1.6978,1.6978,1.6978,1.6978,1.6978,1.6978,1.7031,1.7031,1.7286,1.7496,1.7915,1.802,1.802,1.793,1.7975,1.7975,1.8118,1.823,1.8282,1.8275,1.8125,1.802,1.7915,1.7601,1.7444,1.7083,1.7031,1.7346,1.7601,1.9216,2.0616,2.1613,2.2444,2.3065,2.3686,2.4254,2.477,2.4935,2.5089,2.5192,2.5244,2.5491,2.58,2.6313,2.698,2.7389,2.8563,2.9834,3.0797,3.1391,3.1844,3.241,3.2812,3.3013,3.2712,3.2611,3.2297,3.236,3.2461,3.2159,3.1819,3.1466,3.105,1.8783,1.8671,1.8813,1.876,1.8604,1.8685,1.8864,1.905,1.9064,1.9011,1.8957,1.8881,1.8879,1.9149,1.9194,1.9158,1.9097,1.8631,1.8535,1.8432,1.804,1.8005,1.795,1.7964,1.7915,1.7915,1.7915,1.7915,1.7915,1.7915,1.7909,1.7807,1.8143,1.7955,1.7971,1.818,1.8439,1.8195,1.8113,1.7932,1.7646,1.7367,1.7351,1.717,1.7136,1.7083,1.6978,1.6978,1.6978,1.6978,1.6978,1.6978,1.6978,1.6978,1.6978,1.6978,1.6978,1.6978,1.6978,1.6978,1.7031,1.7136,1.7136,1.7083,1.7136,1.7293,1.7346,1.7346,1.7391,1.7549,1.7653,1.7556,1.7398,1.7346,1.7346,1.7188,1.7136,1.6978,1.6978,1.7083,1.7083,1.8073,1.9216,2.026,2.1301,2.1873,2.2392,2.2806,2.3428,2.4316,2.4522,2.4822,2.4925,2.5028,2.5285,2.5491,2.5902,2.657,2.7338,2.8512,2.9479,3.038,3.0785,3.1391,3.236,3.2511,3.1907,3.1252,3.0696,3.0898,3.1302,3.105,3.0645,3.0696,3.0291,1.8522,1.8433,1.8106,1.7878,1.7703,1.7371,1.754,1.815,1.8325,1.817,1.7736,1.7743,1.7948,1.7967,1.8078,1.8155,1.8177,1.8136,1.8122,1.8033,1.8033,1.7915,1.7915,1.7915,1.7915,1.7915,1.7915,1.7915,1.7915,1.7915,1.7717,1.7561,1.7662,1.7444,1.7346,1.7362,1.7422,1.7457,1.7514,1.7374,1.7199,1.706,1.7012,1.6992,1.6978,1.6978,1.6978,1.6978,1.6978,1.6978,1.6978,1.6978,1.6978,1.6978,1.6978,1.6978,1.6978,1.6978,1.6978,1.6978,1.6978,1.6978,1.6978,1.6978,1.6978,1.6978,1.6978,1.6978,1.6978,1.7241,1.7346,1.7188,1.7083,1.7083,1.7083,1.7083,1.6978,1.6978,1.6978,1.6978,1.6978,1.7346,1.8439,1.9007,1.9991,2.0572,2.1093,2.1561,2.2236,2.3221,2.3841,2.4151,2.4667,2.4832,2.477,2.4925,2.5295,2.581,2.6632,2.7451,2.841,2.9213,2.9682,3.024,3.0936,3.1037,3.0746,3.0139,2.953,2.9733,3.0037,2.9721,2.9518,2.953,2.9327,1.7653,1.75,1.7237,1.7035,1.6921,1.665,1.6817,1.7207,1.7454,1.739,1.7242,1.7248,1.7277,1.7473,1.7568,1.7643,1.7663,1.7779,1.7847,1.797,1.7915,1.7915,1.7915,1.7915,1.7915,1.7915,1.7915,1.7915,1.7915,1.7888,1.7717,1.7453,1.7419,1.7236,1.7126,1.7097,1.7044,1.7071,1.7099,1.7039,1.7012,1.6978,1.6978,1.6978,1.6978,1.6978,1.6978,1.6978,1.6978,1.6978,1.6978,1.6978,1.6978,1.6978,1.6978,1.6978,1.6978,1.6978,1.6978,1.6978,1.6978,1.6978,1.6978,1.6978,1.6978,1.6978,1.6978,1.6978,1.6978,1.7031,1.7031,1.6978,1.6978,1.6978,1.6978,1.6978,1.6978,1.6978,1.6978,1.6978,1.7136,1.7346,1.7811,1.8222,1.8746,1.9529,2.0156,2.0685,2.1457,2.2444,2.3014,2.3428,2.41,2.4677,2.4512,2.4512,2.5038,2.5501,2.6067,2.6888,2.7645,2.841,2.9174,2.9327,2.9377,2.9428,2.9428,2.8971,2.8524,2.8716,2.8869,2.8767,2.8512,2.8218,2.786,1.6435,1.6371,1.63,1.6364,1.6327,1.6429,1.6408,1.6327,1.6609,1.6856,1.7087,1.7168,1.7243,1.7358,1.7433,1.7487,1.7507,1.7575,1.7731,1.7902,1.7915,1.7915,1.7915,1.7915,1.7915,1.7915,1.7915,1.7915,1.7915,1.7806,1.767,1.7433,1.7385,1.7236,1.7019,1.6985,1.6978,1.6985,1.6998,1.6998,1.6992,1.6978,1.6978,1.6978,1.6978,1.6978,1.6978,1.6978,1.6978,1.6978,1.6978,1.6978,1.6978,1.6978,1.6978,1.6978,1.6978,1.6978,1.6978,1.6978,1.6978,1.6978,1.6978,1.6978,1.6978,1.6978,1.6978,1.6978,1.6978,1.6978,1.6978,1.6978,1.6978,1.6978,1.6978,1.6978,1.6978,1.6978,1.6978,1.6978,1.7031,1.7241,1.7293,1.7758,1.7968,1.8589,1.8962,1.9485,2.0268,2.1249,2.1873,2.234,2.2806,2.3428,2.41,2.4203,2.4883,2.5347,2.581,2.6324,2.7093,2.79,2.8767,2.8563,2.832,2.8155,2.8053,2.7809,2.7656,2.7605,2.7707,2.7809,2.7553,2.7309,2.7206,1.6341,1.63,1.6185,1.6198,1.6286,1.6218,1.6171,1.613,1.6076,1.6388,1.6809,1.6978,1.7107,1.7236,1.7344,1.7385,1.7358,1.746,1.7595,1.7745,1.7799,1.7902,1.7915,1.7915,1.7915,1.7915,1.7915,1.7908,1.7826,1.7745,1.7623,1.7426,1.7338,1.7161,1.6998,1.6978,1.6978,1.6978,1.6978,1.6978,1.6978,1.6978,1.6978,1.6978,1.6978,1.6978,1.6978,1.6978,1.6978,1.6978,1.6978,1.6978,1.6978,1.6978,1.6978,1.6978,1.6978,1.6978,1.6978,1.6978,1.6978,1.6978,1.6978,1.6978,1.6978,1.6978,1.6978,1.6978,1.6978,1.6978,1.6978,1.6978,1.6978,1.6978,1.6978,1.6978,1.6978,1.6978,1.6978,1.6978,1.6978,1.7031,1.7083,1.7136,1.7293,1.7451,1.7451,1.7818,1.8387,1.9216,2.0103,2.0625,2.0945,2.1613,2.2755,2.3635,2.41,2.4925,2.5491,2.6016,2.6529,2.7246,2.7911,2.7553,2.7257,2.7349,2.74,2.7195,2.7052,2.6847,2.6745,2.6837,2.6888,2.6683,2.6847,1.5974,1.59,1.5818,1.5872,1.5988,1.5988,1.6064,1.6062,1.5988,1.6178,1.6473,1.6659,1.6836,1.706,1.7195,1.7256,1.7209,1.7358,1.7521,1.7643,1.7711,1.7799,1.7881,1.7902,1.7915,1.7915,1.7908,1.784,1.7772,1.7704,1.7527,1.7365,1.727,1.7121,1.6998,1.6978,1.6978,1.6978,1.6978,1.6978,1.6978,1.6978,1.6978,1.6978,1.6978,1.6978,1.6978,1.6978,1.6978,1.6978,1.6978,1.6978,1.6978,1.6978,1.6978,1.6978,1.6978,1.6978,1.6978,1.6978,1.6978,1.6978,1.6978,1.6978,1.6978,1.6978,1.6978,1.6978,1.6978,1.6978,1.6978,1.6978,1.6978,1.6978,1.6978,1.6978,1.6978,1.6978,1.6978,1.6978,1.6978,1.7031,1.7031,1.7031,1.7136,1.7188,1.7031,1.7031,1.7444,1.7706,1.8492,1.9119,1.9642,2.0677,2.2123,2.2797,2.3108,2.3987,2.4863,2.5234,2.5501,2.6375,2.695,2.6847,2.6847,2.7001,2.695,2.6899,2.6437,2.6067,2.6016,2.5964,2.6016,2.6067,2.6118,1.5533,1.5445,1.5452,1.552,1.56,1.5847,1.5976,1.6029,1.6098,1.613,1.6273,1.6273,1.653,1.6822,1.6992,1.7073,1.7154,1.7236,1.7392,1.7507,1.7541,1.765,1.7731,1.7861,1.7806,1.7785,1.7772,1.7731,1.7622,1.7527,1.7412,1.7385,1.7256,1.71,1.7012,1.6978,1.6978,1.6978,1.6978,1.6978,1.6978,1.6978,1.6978,1.6978,1.6978,1.6978,1.6978,1.6978,1.6978,1.6978,1.6978,1.6978,1.6978,1.6978,1.6978,1.6978,1.6978,1.6978,1.6978,1.6978,1.6978,1.6978,1.6978,1.6978,1.6978,1.6978,1.6978,1.6978,1.6978,1.6978,1.6978,1.6978,1.6978,1.6978,1.6978,1.6978,1.6978,1.6978,1.6978,1.6978,1.6978,1.6978,1.6978,1.6978,1.6978,1.6978,1.6978,1.6978,1.7083,1.7241,1.7653,1.823,1.8753,1.9991,2.118,2.1596,2.1751,2.2581,2.3306,2.3883,2.4461,2.5131,2.581,2.6488,2.654,2.6488,2.6745,2.6899,2.6283,2.5604,2.5553,2.5553,2.5192,2.5244,2.5295,1.558,1.5546,1.5546,1.556,1.5607,1.5791,1.5922,1.5942,1.5956,1.603,1.6083,1.6042,1.6246,1.675,1.6937,1.7005,1.7019,1.71,1.7175,1.7277,1.7419,1.748,1.7548,1.7656,1.7629,1.7595,1.7602,1.7575,1.75,1.7412,1.7344,1.7405,1.7134,1.7019,1.6998,1.6978,1.6978,1.6978,1.6978,1.6978,1.6978,1.6978,1.6978,1.6978,1.6978,1.6978,1.6978,1.6978,1.6978,1.6978,1.6978,1.6978,1.6978,1.6978,1.6978,1.6978,1.6978,1.6978,1.6978,1.6978,1.6978,1.6978,1.6978,1.6978,1.6978,1.6978,1.6978,1.6978,1.6978,1.6978,1.6978,1.6978,1.6978,1.6978,1.6978,1.6978,1.6978,1.6978,1.6978,1.6978,1.6978,1.6978,1.6978,1.6978,1.6978,1.6978,1.6978,1.6978,1.6978,1.6978,1.6978,1.7444,1.802,1.8282,1.9059,1.9783,2.02,2.1024,2.1907,2.2694,2.3315,2.3677,2.4358,2.5295,2.5759,2.5759,2.6118,2.617,2.617,2.5553,2.5398,2.5244,2.4677,2.4419,2.4461]},{"header":{"parameterUnit":"m.s-1","parameterCategory":1,"la1":31.0,"la2":29.5877,"lo1":-88.7671,"lo2":-86.6584,"dy":0.0162,"dx":0.0185,"nx":115,"ny":88,"refTime":"2023-09-26T06:00:00:Z","depth":0,"parameterNumber":3,"parameterNumberName":"V-component_of_WINDS"},"data":[0.0,0.0,0.0,0.0,0.0,0.0,0.0,0.0,0.0,0.0,0.0,0.0,0.0,0.0,0.0,0.0,0.0,0.0,0.0,0.0,0.0,0.0,0.0,0.0,0.0,0.0,0.0,0.0,0.0,0.0,0.0,0.0,0.0,0.0,0.0,0.0,0.0,0.0,0.0,0.0,0.0,0.0,0.0,0.0,0.0,0.0,0.0,0.0,0.0,0.0,0.0,0.0,0.0,0.0,0.0,0.0,0.0,0.0,0.0,0.0,0.0,0.0,0.0,0.0,0.0,0.0,0.0,0.0,0.0,0.0,0.0,0.0,0.0,0.0,0.0,0.0,0.0,0.0,0.0,0.0,0.0,0.0,0.0,0.0,0.0,0.0,0.0,0.0,0.0,0.0,0.0,0.0,0.0,0.0,0.0,0.0,0.0,0.0,0.0,0.0,0.0,0.0,0.0,0.0,0.0,0.0,0.0,0.0,0.0,0.0,0.0,0.0,0.0,0.0,0.0,0.0,0.0,0.0,0.0,0.0,0.0,0.0,0.0,0.0,0.0,0.0,0.0,0.0,0.0,0.0,0.0,0.0,0.0,0.0,0.0,0.0,0.0,0.0,0.0,0.0,0.0,0.0,0.0,0.0,0.0,0.0,0.0,0.0,0.0,0.0,0.0,0.0,0.0,0.0,0.0,0.0,0.0,0.0,0.0,0.0,0.0,0.0,0.0,0.0,0.0,0.0,0.0,0.0,0.0,0.0,0.0,0.0,0.0,0.0,0.0,0.0,0.0,0.0,0.0,0.0,0.0,0.0,0.0,0.0,0.0,0.0,0.0,0.0,0.0,0.0,0.0,0.0,0.0,0.0,0.0,0.0,0.0,0.0,0.0,0.0,0.0,0.0,0.0,0.0,0.0,0.0,0.0,0.0,0.0,0.0,0.0,0.0,0.0,0.0,0.0,0.0,0.0,0.0,0.0,0.0,0.0,0.0,0.0,0.0,0.0,0.0,0.0,0.0,0.0,0.0,0.0,0.0,0.0,0.0,0.0,0.0,0.0,0.0,0.0,0.0,0.0,0.0,0.0,0.0,0.0,0.0,0.0,0.0,0.0,0.0,0.0,0.0,0.0,0.0,0.0,0.0,0.0,0.0,0.0,0.0,0.0,0.0,0.0,0.0,0.0,0.0,0.0,0.0,0.0,0.0,0.0,0.0,0.0,0.0,0.0,0.0,0.0,0.0,0.0,0.0,0.0,0.0,0.0,0.0,0.0,0.0,0.0,0.0,0.0,0.0,0.0,0.0,0.0,0.0,0.0,0.0,0.0,0.0,0.0,0.0,0.0,0.0,0.0,0.0,0.0,0.0,0.0,0.0,0.0,0.0,0.0,0.0,0.0,0.0,0.0,0.0,0.0,0.0,0.0,0.0,0.0,0.0,0.0,0.0,0.0,0.0,0.0,0.0,0.0,0.0,0.0,0.0,0.0,0.0,0.0,0.0,0.0,0.0,0.0,0.0,0.0,0.0,0.0,0.0,0.0,0.0,0.0,0.0,0.0,0.0,0.0,0.0,0.0,0.0,0.0,0.0,0.0,0.0,0.0,0.0,0.0,0.0,0.0,0.0,0.0,0.0,0.0,0.0,0.0,0.0,0.0,0.0,0.0,0.0,0.0,0.0,0.0,0.0,0.0,0.0,0.0,0.0,0.0,0.0,0.0,0.0,0.0,0.0,0.0,0.0,0.0,0.0,0.0,0.0,0.0,0.0,0.0,0.0,0.0,0.0,0.0,0.0,0.0,0.0,0.0,0.0,0.0,0.0,0.0,0.0,0.0,0.0,0.0,0.0,0.0,0.0,0.0,0.0,0.0,0.0,0.0,0.0,0.0,0.0,0.0,0.0,0.0,0.0,0.0,0.0,0.0,0.0,0.0,0.0,0.0,0.0,0.0,0.0,0.0,0.0,0.0,0.0,0.0,0.0,0.0,0.0,0.0,0.0,0.0,0.0,0.0,0.0,0.0,0.0,0.0,0.0,0.0,0.0,0.0,0.0,0.0,0.0,0.0,0.0,0.0,0.0,0.0,0.0,0.0,0.0,0.0,0.0,0.0,0.0,0.0,0.0,0.0,0.0,0.0,0.0,0.0,0.0,0.0,0.0,0.0,0.0,0.0,0.0,0.0,0.0,0.0,0.0,0.0,0.0,0.0,0.0,0.0,0.0,0.0,0.0,0.0,0.0,0.0,0.0,0.0,0.0,0.0,0.0,0.0,0.0,0.0,0.0,0.0,0.0,0.0,0.0,0.0,0.0,0.0,0.0,0.0,0.0,0.0,0.0,0.0,0.0,0.0,0.0,0.0,0.0,0.0,0.0,0.0,0.0,0.0,0.0,0.0,0.0,0.0,0.0,0.0,0.0,0.0,0.0,0.0,0.0,0.0,0.0,0.0,0.0,0.0,0.0,0.0,0.0,0.0,0.0,0.0,0.0,0.0,0.0,0.0,0.0,0.0,0.0,0.0,0.0,0.0,0.0,0.0,0.0,0.0,0.0,0.0,0.0,0.0,0.0,0.0,0.0,0.0,0.0,0.0,0.0,0.0,0.0,0.0,0.0,0.0,0.0,0.0,0.0,0.0,0.0,0.0,0.0,0.0,0.0,0.0,0.0,0.0,0.0,0.0,0.0,0.0,0.0,0.0,0.0,0.0,0.0,0.0,0.0,0.0,0.0,0.0,0.0,0.0,0.0,0.0,0.0,0.0,0.0,0.0,0.0,0.0,0.0,0.0,0.0,0.0,0.0,0.0,0.0,0.0,0.0,0.0,0.0,0.0,0.0,0.0,0.0,0.0,0.0,0.0,0.0,0.0,0.0,0.0,0.0,0.0,0.0,0.0,0.0,0.0,0.0,0.0,0.0,0.0,0.0,0.0,0.0,0.0,0.0,0.0,0.0,0.0,0.0,0.0,0.0,0.0,0.0,0.0,0.0,0.0,0.0,0.0,0.0,0.0,0.0,0.0,0.0,0.0,0.0,0.0,0.0,0.0,0.0,0.0,0.0,0.0,0.0,0.0,0.0,0.0,0.0,0.0,0.0,0.0,0.0,0.0,0.0,0.0,0.0,0.0,0.0,0.0,0.0,0.0,0.0,0.0,0.0,0.0,0.0,0.0,0.0,0.0,0.0,0.0,0.0,0.0,0.0,0.0,0.0,0.0,0.0,0.0,0.0,0.0,0.0,0.0,0.0,0.0,0.0,0.0,0.0,0.0,0.0,0.0,0.0,0.0,0.0,0.0,0.0,0.0,0.0,0.0,0.0,0.0,0.0,0.0,0.0,0.0,0.0,0.0,0.0,0.0,0.0,0.0,0.0,0.0,0.0,0.0,0.0,0.0,0.0,0.0,0.0,0.0,0.0,0.0,0.0,0.0,0.0,0.0,0.0,0.0,0.0,0.0,0.0,0.0,0.0,0.0,0.0,0.0,0.0,0.0,0.0,0.0,0.0,0.0,0.0,0.0,0.0,0.0,0.0,0.0,0.0,0.0,0.0,0.0,0.0,0.0,0.0,0.0,0.0,0.0,0.0,0.0,0.0,0.0,0.0,0.0,0.0,0.0,0.0,0.0,0.0,0.0,0.0,0.0,0.0,0.0,0.0,0.0,0.0,0.0,0.0,0.0,0.0,0.0,0.0,0.0,0.0,0.0,0.0,0.0,0.0,0.0,0.0,0.0,0.0,0.0,0.0,0.0,0.0,0.0,0.0,0.0,0.0,0.0,0.0,0.0,0.0,0.0,0.0,0.0,0.0,0.0,0.0,0.0,0.0,0.0,0.0,0.0,0.0,0.0,0.0,0.0,0.0,0.0,0.0,0.0,0.0,0.0,0.0,0.0,0.0,0.0,0.0,0.0,0.0,0.0,0.0,0.0,0.0,0.0,0.0,0.0,0.0,0.0,0.0,0.0,0.0,0.0,0.0,0.0,0.0,0.0,0.0,0.0,0.0,0.0,0.0,0.0,0.0,0.0,0.0,0.0,0.0,0.0,0.0,0.0,0.0,0.0,0.0,0.0,0.0,0.0,0.0,0.0,0.0,0.0,0.0,0.0,0.0,0.0,0.0,0.0,0.0,0.0,0.0,0.0,0.0,0.0,0.0,0.0,0.0,0.0,0.0,0.0,0.0,0.0,0.0,0.0,0.0,0.0,0.0,0.0,0.0,0.0,0.0,0.0,0.0,0.0,0.0,0.0,0.0,0.0,0.0,0.0,0.0,0.0,0.0,0.0,0.0,0.0,0.0,0.0,0.0,4.7689,0.0,0.0,0.0,0.0,0.0,0.0,0.0,0.0,0.0,0.0,0.0,0.0,0.0,0.0,0.0,0.0,0.0,0.0,0.0,0.0,0.0,0.0,0.0,0.0,0.0,0.0,0.0,0.0,0.0,0.0,0.0,0.0,0.0,0.0,0.0,0.0,0.0,0.0,0.0,0.0,0.0,0.0,0.0,0.0,0.0,0.0,0.0,0.0,0.0,0.0,0.0,0.0,0.0,0.0,0.0,0.0,0.0,0.0,0.0,0.0,0.0,0.0,0.0,0.0,0.0,0.0,0.0,0.0,0.0,0.0,0.0,0.0,0.0,0.0,0.0,0.0,0.0,0.0,0.0,0.0,0.0,0.0,0.0,0.0,0.0,0.0,0.0,0.0,0.0,0.0,0.0,0.0,0.0,0.0,0.0,0.0,0.0,0.0,0.0,0.0,0.0,0.0,0.0,0.0,0.0,0.0,0.0,0.0,0.0,0.0,4.6106,4.6494,4.729,4.7689,4.7689,0.0,0.0,0.0,0.0,0.0,0.0,0.0,0.0,0.0,0.0,0.0,0.0,0.0,0.0,0.0,0.0,0.0,0.0,0.0,0.0,0.0,0.0,0.0,0.0,0.0,0.0,0.0,0.0,0.0,0.0,0.0,0.0,0.0,0.0,0.0,0.0,0.0,0.0,0.0,0.0,0.0,0.0,0.0,0.0,0.0,0.0,0.0,0.0,0.0,0.0,0.0,0.0,0.0,0.0,0.0,0.0,0.0,0.0,0.0,0.0,0.0,0.0,0.0,0.0,0.0,0.0,0.0,0.0,0.0,0.0,0.0,0.0,0.0,0.0,0.0,0.0,0.0,0.0,0.0,0.0,0.0,0.0,0.0,0.0,0.0,0.0,0.0,0.0,0.0,0.0,0.0,0.0,0.0,0.0,0.0,0.0,0.0,0.0,0.0,0.0,0.0,0.0,0.0,0.0,0.0,0.0,0.0,0.0,0.0,0.0,0.0,0.0,4.7363,4.7689,4.7689,0.0,0.0,0.0,0.0,0.0,0.0,0.0,0.0,0.0,0.0,0.0,0.0,0.0,0.0,0.0,0.0,0.0,0.0,0.0,0.0,0.0,0.0,0.0,0.0,0.0,0.0,0.0,0.0,0.0,0.0,0.0,0.0,0.0,0.0,0.0,0.0,0.0,0.0,0.0,0.0,0.0,0.0,0.0,0.0,0.0,0.0,0.0,0.0,0.0,0.0,0.0,0.0,0.0,0.0,0.0,0.0,0.0,0.0,0.0,0.0,0.0,0.0,0.0,0.0,0.0,0.0,0.0,0.0,0.0,0.0,0.0,0.0,0.0,0.0,0.0,0.0,0.0,0.0,0.0,0.0,0.0,0.0,0.0,0.0,0.0,0.0,0.0,0.0,0.0,0.0,0.0,0.0,0.0,0.0,0.0,0.0,0.0,0.0,0.0,0.0,0.0,0.0,0.0,0.0,0.0,0.0,0.0,0.0,0.0,0.0,4.6866,4.7544,4.7652,0.0,4.7689,0.0,0.0,0.0,0.0,0.0,0.0,0.0,0.0,0.0,0.0,0.0,0.0,0.0,0.0,0.0,0.0,0.0,0.0,0.0,0.0,0.0,0.0,0.0,0.0,0.0,0.0,0.0,0.0,0.0,0.0,0.0,0.0,0.0,0.0,0.0,0.0,0.0,0.0,0.0,0.0,0.0,0.0,0.0,0.0,0.0,0.0,0.0,0.0,0.0,0.0,0.0,0.0,0.0,0.0,0.0,0.0,0.0,0.0,0.0,0.0,0.0,0.0,0.0,0.0,0.0,0.0,0.0,0.0,0.0,0.0,0.0,0.0,0.0,0.0,0.0,0.0,0.0,0.0,0.0,0.0,0.0,0.0,0.0,0.0,0.0,0.0,0.0,0.0,0.0,0.0,0.0,0.0,0.0,0.0,0.0,0.0,0.0,0.0,0.0,0.0,0.0,0.0,0.0,0.0,0.0,0.0,0.0,0.0,0.0,0.0,4.7363,4.7689,4.7689,4.7689,0.0,0.0,0.0,0.0,0.0,0.0,0.0,0.0,0.0,0.0,0.0,0.0,0.0,0.0,0.0,0.0,0.0,0.0,0.0,0.0,0.0,0.0,0.0,0.0,0.0,0.0,0.0,0.0,0.0,0.0,0.0,0.0,0.0,0.0,0.0,0.0,0.0,0.0,0.0,0.0,0.0,0.0,0.0,0.0,0.0,0.0,0.0,0.0,0.0,0.0,0.0,0.0,0.0,0.0,0.0,0.0,0.0,0.0,0.0,0.0,0.0,0.0,0.0,0.0,0.0,0.0,0.0,0.0,0.0,0.0,0.0,0.0,0.0,0.0,0.0,0.0,0.0,0.0,0.0,0.0,0.0,0.0,0.0,0.0,0.0,0.0,0.0,0.0,0.0,0.0,0.0,0.0,0.0,0.0,0.0,0.0,0.0,0.0,0.0,0.0,0.0,0.0,0.0,0.0,0.0,0.0,0.0,0.0,0.0,0.0,4.7689,4.7689,4.7689,4.7689,4.7689,4.7689,0.0,0.0,0.0,0.0,0.0,0.0,0.0,0.0,0.0,0.0,0.0,0.0,0.0,0.0,0.0,0.0,0.0,0.0,0.0,0.0,0.0,0.0,0.0,0.0,0.0,0.0,0.0,0.0,0.0,0.0,0.0,0.0,0.0,0.0,0.0,0.0,0.0,0.0,0.0,0.0,0.0,0.0,0.0,0.0,0.0,0.0,0.0,0.0,0.0,0.0,0.0,0.0,0.0,0.0,0.0,0.0,0.0,0.0,0.0,0.0,0.0,0.0,0.0,0.0,0.0,0.0,0.0,0.0,0.0,0.0,0.0,0.0,0.0,0.0,0.0,0.0,0.0,0.0,0.0,0.0,0.0,0.0,0.0,0.0,0.0,0.0,0.0,0.0,0.0,0.0,0.0,0.0,0.0,0.0,0.0,0.0,0.0,0.0,0.0,0.0,0.0,0.0,0.0,0.0,0.0,0.0,0.0,0.0,4.7689,4.7689,4.7689,4.7689,4.7699,4.7689,0.0,0.0,0.0,0.0,0.0,0.0,0.0,0.0,0.0,0.0,0.0,0.0,0.0,0.0,0.0,0.0,0.0,0.0,0.0,0.0,0.0,0.0,0.0,0.0,0.0,0.0,0.0,0.0,0.0,0.0,0.0,0.0,0.0,0.0,0.0,0.0,0.0,0.0,0.0,0.0,0.0,0.0,0.0,0.0,0.0,0.0,0.0,0.0,0.0,0.0,0.0,0.0,0.0,0.0,0.0,0.0,0.0,0.0,0.0,0.0,0.0,0.0,0.0,0.0,0.0,0.0,0.0,0.0,0.0,0.0,0.0,0.0,0.0,0.0,0.0,0.0,0.0,0.0,0.0,0.0,0.0,0.0,0.0,0.0,0.0,0.0,0.0,0.0,0.0,0.0,0.0,0.0,0.0,0.0,0.0,0.0,0.0,0.0,0.0,0.0,0.0,0.0,0.0,0.0,0.0,0.0,0.0,0.0,0.0,4.7689,4.7689,4.7689,4.7689,4.7218,4.6939,0.0,0.0,0.0,0.0,0.0,0.0,0.0,0.0,0.0,0.0,0.0,0.0,0.0,0.0,0.0,0.0,0.0,0.0,0.0,0.0,0.0,0.0,0.0,0.0,0.0,0.0,0.0,0.0,0.0,0.0,0.0,0.0,0.0,0.0,0.0,0.0,0.0,0.0,0.0,0.0,0.0,0.0,0.0,0.0,0.0,0.0,0.0,0.0,0.0,0.0,0.0,0.0,0.0,0.0,0.0,0.0,0.0,0.0,0.0,0.0,0.0,0.0,0.0,0.0,0.0,0.0,0.0,0.0,0.0,0.0,0.0,0.0,0.0,0.0,0.0,0.0,0.0,0.0,0.0,0.0,0.0,0.0,0.0,0.0,0.0,0.0,0.0,0.0,0.0,0.0,0.0,0.0,0.0,0.0,0.0,0.0,0.0,0.0,0.0,0.0,0.0,0.0,0.0,0.0,0.0,0.0,0.0,0.0,0.0,4.7689,0.0,4.7689,4.7689,4.6939,4.6602,0.0,0.0,0.0,0.0,0.0,0.0,0.0,0.0,0.0,0.0,0.0,0.0,0.0,0.0,0.0,0.0,0.0,0.0,0.0,0.0,0.0,0.0,0.0,0.0,0.0,0.0,0.0,0.0,0.0,0.0,0.0,0.0,0.0,0.0,0.0,0.0,0.0,0.0,0.0,0.0,0.0,0.0,0.0,0.0,0.0,0.0,0.0,0.0,0.0,0.0,0.0,0.0,0.0,0.0,0.0,0.0,0.0,0.0,0.0,0.0,0.0,0.0,0.0,0.0,0.0,0.0,0.0,0.0,0.0,0.0,0.0,0.0,0.0,0.0,0.0,0.0,0.0,0.0,0.0,0.0,0.0,0.0,0.0,0.0,0.0,0.0,0.0,0.0,0.0,0.0,0.0,0.0,0.0,0.0,0.0,0.0,0.0,0.0,0.0,0.0,0.0,0.0,0.0,0.0,0.0,0.0,0.0,0.0,4.7689,4.7689,4.7689,4.7725,4.7689,4.6928,4.6856,0.0,0.0,0.0,0.0,0.0,0.0,0.0,0.0,0.0,0.0,0.0,0.0,0.0,0.0,0.0,0.0,0.0,0.0,0.0,0.0,0.0,0.0,0.0,0.0,0.0,0.0,0.0,0.0,0.0,0.0,0.0,0.0,0.0,0.0,0.0,0.0,0.0,0.0,0.0,0.0,0.0,0.0,0.0,0.0,0.0,0.0,0.0,0.0,0.0,0.0,0.0,0.0,0.0,0.0,0.0,0.0,0.0,0.0,0.0,0.0,0.0,0.0,0.0,0.0,0.0,0.0,0.0,0.0,0.0,0.0,0.0,0.0,0.0,0.0,0.0,0.0,0.0,0.0,0.0,0.0,0.0,0.0,0.0,0.0,0.0,0.0,0.0,0.0,0.0,0.0,0.0,0.0,0.0,0.0,0.0,0.0,0.0,0.0,0.0,0.0,0.0,0.0,0.0,0.0,0.0,0.0,0.0,0.0,0.0,4.7689,4.7689,4.7978,4.8449,4.7218,4.6856,0.0,0.0,0.0,0.0,0.0,0.0,0.0,0.0,0.0,0.0,0.0,0.0,0.0,0.0,0.0,0.0,0.0,0.0,0.0,0.0,0.0,0.0,0.0,0.0,0.0,0.0,0.0,0.0,0.0,0.0,0.0,0.0,0.0,0.0,0.0,0.0,0.0,0.0,0.0,0.0,0.0,0.0,0.0,0.0,0.0,0.0,0.0,0.0,0.0,0.0,0.0,0.0,0.0,0.0,0.0,0.0,0.0,0.0,0.0,0.0,0.0,0.0,0.0,0.0,0.0,0.0,0.0,0.0,0.0,0.0,0.0,0.0,0.0,0.0,0.0,0.0,0.0,0.0,0.0,0.0,0.0,0.0,0.0,0.0,0.0,0.0,0.0,0.0,0.0,0.0,0.0,0.0,0.0,0.0,0.0,0.0,0.0,0.0,0.0,0.0,0.0,0.0,0.0,0.0,0.0,0.0,0.0,0.0,0.0,4.8641,4.8605,4.8858,4.9318,4.8087,4.7471,4.7652,0.0,0.0,0.0,0.0,0.0,0.0,0.0,0.0,0.0,0.0,0.0,0.0,0.0,0.0,0.0,0.0,0.0,0.0,0.0,0.0,0.0,0.0,0.0,0.0,0.0,0.0,0.0,0.0,0.0,0.0,0.0,0.0,0.0,0.0,0.0,0.0,0.0,0.0,0.0,0.0,0.0,0.0,0.0,0.0,0.0,0.0,0.0,0.0,0.0,0.0,0.0,0.0,0.0,0.0,0.0,0.0,0.0,0.0,0.0,0.0,0.0,0.0,0.0,0.0,0.0,0.0,0.0,0.0,0.0,0.0,0.0,0.0,0.0,0.0,0.0,0.0,0.0,0.0,0.0,0.0,0.0,0.0,0.0,0.0,0.0,0.0,0.0,0.0,0.0,0.0,0.0,0.0,0.0,0.0,0.0,0.0,0.0,0.0,0.0,0.0,0.0,0.0,0.0,0.0,0.0,0.0,0.0,0.0,5.0354,5.0427,5.0427,5.0318,4.9427,4.863,0.0,0.0,0.0,0.0,0.0,0.0,0.0,0.0,0.0,0.0,0.0,0.0,0.0,0.0,0.0,0.0,0.0,0.0,0.0,0.0,0.0,0.0,0.0,0.0,0.0,0.0,0.0,0.0,0.0,0.0,0.0,0.0,0.0,0.0,0.0,0.0,0.0,0.0,0.0,0.0,0.0,0.0,0.0,0.0,0.0,0.0,0.0,0.0,0.0,0.0,0.0,0.0,0.0,0.0,0.0,0.0,0.0,0.0,0.0,0.0,0.0,0.0,0.0,0.0,0.0,0.0,0.0,0.0,0.0,0.0,0.0,0.0,0.0,0.0,0.0,0.0,0.0,0.0,0.0,0.0,0.0,0.0,0.0,0.0,0.0,0.0,0.0,0.0,0.0,0.0,0.0,0.0,0.0,0.0,0.0,0.0,0.0,0.0,0.0,0.0,0.0,0.0,0.0,0.0,0.0,0.0,0.0,0.0,0.0,5.3566,5.4158,5.3892,5.2781,5.0814,4.9981,0.0,0.0,0.0,0.0,0.0,0.0,0.0,0.0,0.0,0.0,0.0,0.0,0.0,0.0,0.0,0.0,0.0,0.0,0.0,0.0,0.0,0.0,0.0,0.0,0.0,0.0,0.0,0.0,0.0,0.0,0.0,0.0,0.0,0.0,0.0,0.0,0.0,0.0,0.0,0.0,0.0,0.0,0.0,0.0,0.0,0.0,0.0,0.0,0.0,0.0,0.0,0.0,0.0,0.0,0.0,0.0,0.0,0.0,0.0,0.0,0.0,0.0,0.0,0.0,0.0,0.0,0.0,0.0,0.0,0.0,0.0,0.0,0.0,0.0,0.0,0.0,0.0,0.0,0.0,0.0,0.0,0.0,0.0,0.0,0.0,0.0,0.0,0.0,0.0,0.0,0.0,0.0,0.0,0.0,0.0,0.0,0.0,0.0,0.0,0.0,0.0,0.0,0.0,0.0,0.0,0.0,0.0,0.0,5.3325,5.4894,5.6609,5.708,5.621,5.3856,5.2021,0.0,0.0,0.0,0.0,0.0,0.0,0.0,0.0,0.0,0.0,0.0,0.0,0.0,0.0,0.0,0.0,0.0,0.0,0.0,0.0,0.0,0.0,0.0,0.0,0.0,0.0,0.0,0.0,0.0,0.0,0.0,0.0,0.0,0.0,0.0,0.0,0.0,0.0,0.0,0.0,0.0,0.0,0.0,0.0,0.0,0.0,0.0,0.0,0.0,0.0,0.0,0.0,0.0,0.0,0.0,0.0,0.0,0.0,0.0,0.0,0.0,0.0,0.0,0.0,0.0,0.0,0.0,0.0,0.0,0.0,0.0,0.0,0.0,0.0,0.0,0.0,0.0,0.0,0.0,0.0,0.0,0.0,0.0,0.0,0.0,0.0,0.0,0.0,0.0,0.0,0.0,0.0,0.0,0.0,0.0,0.0,0.0,0.0,0.0,0.0,0.0,0.0,0.0,0.0,0.0,0.0,0.0,0.0,5.5595,5.5329,5.8153,5.9747,5.9638,5.7224,5.423,0.0,0.0,0.0,0.0,0.0,0.0,0.0,0.0,0.0,0.0,0.0,0.0,0.0,0.0,0.0,0.0,0.0,0.0,0.0,0.0,0.0,0.0,0.0,0.0,0.0,0.0,0.0,0.0,0.0,0.0,0.0,0.0,0.0,0.0,0.0,0.0,0.0,0.0,0.0,0.0,0.0,0.0,0.0,0.0,0.0,0.0,0.0,0.0,0.0,0.0,0.0,0.0,0.0,0.0,0.0,0.0,0.0,0.0,0.0,0.0,0.0,0.0,0.0,0.0,0.0,0.0,0.0,0.0,0.0,0.0,0.0,0.0,0.0,0.0,0.0,0.0,0.0,0.0,0.0,0.0,0.0,0.0,0.0,0.0,0.0,0.0,0.0,0.0,0.0,0.0,0.0,0.0,0.0,0.0,0.0,0.0,0.0,0.0,0.0,0.0,0.0,0.0,0.0,0.0,0.0,0.0,0.0,0.0,5.5341,5.7623,5.9529,6.0543,6.0507,5.7043,5.4762,0.0,0.0,0.0,0.0,0.0,0.0,0.0,0.0,0.0,0.0,0.0,0.0,0.0,0.0,0.0,0.0,0.0,0.0,0.0,0.0,0.0,0.0,0.0,0.0,0.0,0.0,0.0,0.0,0.0,0.0,0.0,0.0,0.0,0.0,0.0,0.0,0.0,0.0,0.0,0.0,0.0,0.0,0.0,0.0,0.0,0.0,0.0,0.0,4.5365,0.0,0.0,0.0,0.0,0.0,0.0,0.0,0.0,0.0,0.0,0.0,0.0,0.0,0.0,0.0,0.0,0.0,0.0,0.0,0.0,0.0,0.0,0.0,0.0,0.0,0.0,0.0,0.0,0.0,0.0,0.0,0.0,0.0,0.0,0.0,0.0,0.0,0.0,0.0,0.0,0.0,0.0,0.0,0.0,0.0,0.0,0.0,0.0,0.0,0.0,0.0,0.0,0.0,0.0,0.0,0.0,0.0,0.0,0.0,5.5619,5.8347,6.0326,6.1376,6.1231,5.8226,5.6029,0.0,0.0,0.0,0.0,0.0,0.0,0.0,0.0,0.0,0.0,0.0,0.0,0.0,0.0,0.0,0.0,0.0,0.0,0.0,0.0,0.0,0.0,0.0,0.0,0.0,0.0,0.0,0.0,0.0,0.0,0.0,0.0,0.0,0.0,0.0,0.0,0.0,0.0,0.0,0.0,0.0,0.0,0.0,0.0,0.0,0.0,0.0,0.0,0.0,0.0,0.0,0.0,0.0,0.0,0.0,0.0,0.0,0.0,0.0,0.0,0.0,0.0,0.0,0.0,0.0,0.0,0.0,0.0,0.0,0.0,0.0,0.0,0.0,0.0,0.0,0.0,0.0,0.0,0.0,0.0,0.0,0.0,0.0,0.0,0.0,0.0,0.0,0.0,0.0,0.0,0.0,0.0,0.0,0.0,0.0,0.0,0.0,0.0,0.0,0.0,0.0,0.0,0.0,0.0,0.0,0.0,0.0,5.3892,5.6283,5.8746,6.0905,6.2028,6.1992,5.9783,5.755,5.5341,0.0,0.0,0.0,0.0,0.0,0.0,0.0,0.0,0.0,0.0,0.0,0.0,0.0,0.0,0.0,0.0,0.0,0.0,0.0,0.0,0.0,0.0,0.0,0.0,0.0,0.0,0.0,0.0,0.0,0.0,0.0,0.0,0.0,0.0,0.0,0.0,0.0,0.0,4.2692,4.4535,0.0,0.0,0.0,0.0,0.0,0.0,0.0,0.0,4.6094,0.0,0.0,0.0,0.0,0.0,0.0,0.0,0.0,0.0,0.0,0.0,0.0,0.0,0.0,0.0,0.0,0.0,0.0,0.0,0.0,0.0,0.0,0.0,0.0,0.0,0.0,0.0,0.0,0.0,0.0,0.0,0.0,0.0,0.0,0.0,0.0,0.0,0.0,0.0,0.0,0.0,0.0,0.0,0.0,0.0,0.0,0.0,0.0,0.0,0.0,0.0,0.0,0.0,0.0,0.0,0.0,5.3277,5.4943,5.7333,6.0326,6.1448,6.2028,6.1955,6.0326,5.8601,5.6862,0.0,0.0,0.0,0.0,0.0,0.0,0.0,0.0,0.0,0.0,0.0,0.0,0.0,0.0,0.0,0.0,0.0,0.0,0.0,0.0,0.0,0.0,0.0,0.0,0.0,0.0,0.0,0.0,0.0,0.0,0.0,0.0,0.0,0.0,0.0,0.0,0.0,0.0,0.0,4.5849,4.6981,0.0,0.0,0.0,0.0,0.0,0.0,0.0,0.0,4.7785,0.0,0.0,0.0,0.0,0.0,0.0,0.0,0.0,0.0,0.0,0.0,0.0,0.0,0.0,0.0,0.0,0.0,0.0,0.0,0.0,0.0,0.0,0.0,0.0,0.0,0.0,0.0,0.0,0.0,0.0,0.0,0.0,0.0,0.0,0.0,0.0,0.0,0.0,0.0,0.0,0.0,0.0,0.0,0.0,0.0,0.0,0.0,0.0,0.0,0.0,0.0,0.0,0.0,0.0,0.0,5.3639,5.5631,5.7985,6.0688,6.1593,6.2028,6.1955,6.0036,5.842,0.0,0.0,0.0,0.0,0.0,0.0,0.0,0.0,0.0,0.0,0.0,0.0,0.0,0.0,0.0,0.0,0.0,0.0,0.0,0.0,0.0,0.0,0.0,0.0,0.0,0.0,0.0,0.0,0.0,0.0,0.0,0.0,0.0,0.0,0.0,0.0,0.0,0.0,0.0,0.0,4.6572,4.7802,4.9369,0.0,0.0,0.0,0.0,0.0,0.0,4.8157,4.8157,0.0,0.0,0.0,0.0,0.0,0.0,0.0,0.0,0.0,0.0,0.0,0.0,0.0,0.0,0.0,0.0,0.0,0.0,0.0,0.0,0.0,0.0,0.0,0.0,0.0,0.0,0.0,0.0,0.0,0.0,0.0,0.0,0.0,0.0,0.0,0.0,0.0,0.0,0.0,0.0,0.0,0.0,0.0,0.0,0.0,0.0,0.0,0.0,0.0,0.0,0.0,0.0,0.0,0.0,0.0,5.4146,5.6464,5.8782,6.0942,6.1652,6.2028,6.1955,5.9819,5.8202,0.0,0.0,0.0,0.0,0.0,0.0,0.0,0.0,0.0,0.0,0.0,0.0,0.0,0.0,0.0,0.0,0.0,0.0,0.0,0.0,0.0,0.0,0.0,0.0,0.0,0.0,0.0,0.0,0.0,0.0,0.0,0.0,0.0,0.0,0.0,0.0,0.0,0.0,0.0,0.0,0.0,4.8889,5.0242,4.9894,0.0,0.0,0.0,0.0,4.9003,4.9138,0.0,0.0,0.0,0.0,0.0,0.0,0.0,0.0,0.0,0.0,0.0,0.0,0.0,0.0,0.0,0.0,0.0,0.0,0.0,0.0,0.0,0.0,0.0,0.0,0.0,0.0,0.0,0.0,0.0,0.0,0.0,0.0,0.0,0.0,0.0,0.0,0.0,0.0,0.0,0.0,0.0,0.0,0.0,0.0,0.0,0.0,0.0,0.0,0.0,0.0,0.0,0.0,0.0,0.0,0.0,0.0,5.5716,5.8094,6.0145,6.1774,6.1955,6.2028,6.1992,6.0362,5.8746,0.0,0.0,0.0,0.0,0.0,0.0,0.0,0.0,0.0,0.0,0.0,0.0,0.0,0.0,0.0,0.0,0.0,0.0,0.0,0.0,0.0,0.0,0.0,0.0,0.0,0.0,0.0,0.0,0.0,0.0,0.0,0.0,0.0,0.0,0.0,0.0,0.0,0.0,0.0,0.0,0.0,5.0437,5.1396,5.1326,5.1232,0.0,0.0,5.2013,5.2739,5.3382,0.0,0.0,0.0,0.0,0.0,0.0,0.0,0.0,0.0,0.0,0.0,0.0,0.0,0.0,0.0,0.0,0.0,0.0,0.0,0.0,0.0,0.0,0.0,0.0,0.0,0.0,0.0,0.0,0.0,0.0,0.0,0.0,0.0,0.0,0.0,0.0,0.0,0.0,0.0,0.0,0.0,0.0,0.0,0.0,0.0,0.0,0.0,0.0,0.0,0.0,0.0,0.0,0.0,0.0,0.0,5.4581,5.6042,5.8818,6.0833,6.1955,6.2028,6.2028,6.1992,6.0,5.8601,0.0,0.0,0.0,0.0,0.0,0.0,0.0,0.0,0.0,0.0,0.0,0.0,0.0,0.0,0.0,0.0,0.0,0.0,0.0,0.0,0.0,0.0,0.0,0.0,0.0,0.0,0.0,0.0,0.0,0.0,0.0,0.0,0.0,0.0,0.0,0.0,0.0,0.0,0.0,0.0,0.0,0.0,5.2282,5.2691,0.0,0.0,0.0,5.2942,5.2841,0.0,0.0,0.0,0.0,0.0,0.0,0.0,0.0,0.0,0.0,0.0,0.0,0.0,0.0,0.0,0.0,0.0,0.0,0.0,0.0,0.0,0.0,0.0,0.0,0.0,0.0,0.0,0.0,0.0,0.0,0.0,0.0,0.0,0.0,0.0,0.0,0.0,0.0,0.0,0.0,0.0,0.0,0.0,0.0,0.0,0.0,0.0,0.0,0.0,0.0,0.0,0.0,0.0,0.0,0.0,0.0,0.0,5.6319,5.947,6.1412,6.1955,6.2028,6.2028,6.1992,6.0036,0.0,0.0,0.0,0.0,0.0,0.0,0.0,0.0,0.0,0.0,0.0,0.0,0.0,0.0,0.0,0.0,0.0,0.0,0.0,0.0,0.0,0.0,0.0,0.0,0.0,0.0,0.0,4.1899,0.0,0.0,0.0,0.0,0.0,0.0,0.0,0.0,0.0,0.0,0.0,0.0,0.0,0.0,5.2612,5.3451,5.4096,5.4563,0.0,0.0,5.4037,5.375,5.4822,5.489,0.0,0.0,0.0,0.0,0.0,0.0,0.0,0.0,0.0,0.0,0.0,0.0,0.0,0.0,0.0,0.0,0.0,0.0,0.0,0.0,0.0,0.0,0.0,0.0,0.0,0.0,0.0,0.0,0.0,0.0,0.0,0.0,0.0,0.0,0.0,0.0,0.0,0.0,0.0,0.0,0.0,0.0,0.0,0.0,0.0,0.0,0.0,0.0,0.0,0.0,0.0,0.0,0.0,0.0,0.0,5.7201,6.029,6.1919,6.1992,6.2028,6.2028,6.1992,6.1123,5.9928,0.0,0.0,0.0,0.0,0.0,0.0,0.0,0.0,0.0,0.0,0.0,0.0,0.0,0.0,0.0,0.0,0.0,0.0,0.0,0.0,0.0,0.0,0.0,0.0,0.0,0.0,0.0,0.0,0.0,0.0,0.0,0.0,0.0,0.0,0.0,0.0,0.0,0.0,0.0,0.0,0.0,5.4117,5.5168,5.5586,5.6086,0.0,0.0,5.628,5.7339,5.8168,5.7792,5.5244,0.0,0.0,0.0,0.0,0.0,0.0,0.0,0.0,0.0,0.0,0.0,0.0,0.0,0.0,0.0,0.0,0.0,0.0,0.0,0.0,0.0,0.0,0.0,0.0,0.0,0.0,0.0,0.0,0.0,0.0,0.0,0.0,0.0,0.0,0.0,0.0,0.0,0.0,0.0,0.0,0.0,0.0,0.0,0.0,0.0,0.0,0.0,0.0,0.0,0.0,0.0,0.0,0.0,5.7241,5.8076,6.0791,6.2222,6.2141,6.2128,6.2087,6.2028,6.1195,6.029,0.0,0.0,0.0,0.0,0.0,0.0,0.0,0.0,0.0,0.0,0.0,0.0,0.0,0.0,0.0,0.0,0.0,0.0,0.0,0.0,0.0,0.0,0.0,0.0,0.0,0.0,0.0,0.0,4.6946,4.7609,4.8253,0.0,0.0,0.0,0.0,0.0,0.0,0.0,0.0,0.0,0.0,5.6215,5.7123,5.7706,0.0,0.0,5.8125,5.7763,5.7761,5.8411,5.8068,5.561,5.5035,0.0,0.0,0.0,0.0,0.0,0.0,0.0,0.0,0.0,0.0,0.0,0.0,0.0,0.0,0.0,0.0,0.0,0.0,0.0,0.0,0.0,0.0,0.0,0.0,0.0,0.0,0.0,0.0,0.0,0.0,0.0,0.0,0.0,0.0,0.0,0.0,0.0,0.0,0.0,0.0,0.0,0.0,0.0,0.0,0.0,0.0,0.0,0.0,0.0,0.0,0.0,0.0,5.8004,5.8611,6.1025,6.2371,6.2549,6.2508,6.2441,6.2367,6.1824,6.1027,0.0,0.0,0.0,0.0,0.0,0.0,0.0,0.0,0.0,0.0,0.0,0.0,0.0,0.0,0.0,0.0,0.0,0.0,0.0,0.0,0.0,0.0,0.0,0.0,0.0,0.0,0.0,0.0,4.9211,4.9859,5.067,0.0,0.0,0.0,0.0,0.0,0.0,0.0,0.0,0.0,0.0,5.7825,5.8452,5.9059,5.9386,5.921,5.8848,5.8446,5.8058,5.8436,5.8194,5.6464,0.0,0.0,0.0,0.0,0.0,0.0,0.0,0.0,0.0,0.0,0.0,0.0,0.0,0.0,0.0,0.0,0.0,0.0,0.0,0.0,0.0,0.0,0.0,0.0,0.0,0.0,0.0,0.0,0.0,0.0,5.1382,0.0,0.0,0.0,0.0,0.0,0.0,0.0,0.0,0.0,0.0,0.0,0.0,0.0,0.0,0.0,0.0,0.0,0.0,0.0,0.0,0.0,0.0,5.846,5.8647,6.0903,6.2486,6.3335,6.3247,6.3192,6.3192,6.3178,6.2404,6.0833,0.0,0.0,0.0,0.0,0.0,0.0,0.0,0.0,0.0,0.0,0.0,0.0,0.0,0.0,0.0,0.0,0.0,0.0,0.0,0.0,0.0,0.0,0.0,0.0,0.0,0.0,4.9412,4.9787,5.0495,0.0,0.0,0.0,0.0,0.0,0.0,0.0,0.0,0.0,0.0,5.7751,5.8836,5.9067,5.9389,5.9398,5.8916,5.8399,5.8195,5.8667,5.8731,5.8573,0.0,0.0,0.0,0.0,0.0,0.0,0.0,0.0,0.0,0.0,0.0,0.0,0.0,0.0,0.0,0.0,0.0,0.0,0.0,0.0,0.0,0.0,0.0,0.0,0.0,0.0,0.0,5.3664,5.3496,0.0,0.0,0.0,0.0,0.0,0.0,0.0,0.0,0.0,0.0,0.0,5.8859,5.9966,0.0,0.0,0.0,0.0,0.0,0.0,0.0,0.0,0.0,0.0,0.0,0.0,5.8942,5.9611,6.2073,6.346,6.3533,6.4025,6.4212,6.4129,6.4129,6.3389,6.1778,0.0,0.0,0.0,0.0,0.0,0.0,0.0,0.0,0.0,0.0,0.0,0.0,0.0,0.0,0.0,0.0,0.0,0.0,0.0,0.0,0.0,0.0,0.0,0.0,0.0,5.2465,0.0,0.0,0.0,0.0,0.0,0.0,0.0,0.0,0.0,0.0,0.0,5.6606,5.7605,5.8208,5.8776,5.9348,5.9536,6.0078,0.0,0.0,0.0,0.0,0.0,0.0,0.0,0.0,0.0,0.0,0.0,0.0,0.0,0.0,5.9675,5.6704,5.694,5.7747,5.8159,0.0,0.0,0.0,0.0,0.0,0.0,0.0,0.0,0.0,0.0,0.0,0.0,0.0,0.0,5.7141,0.0,5.6852,0.0,0.0,0.0,0.0,0.0,0.0,0.0,0.0,6.0316,6.1511,6.1916,6.3234,6.3479,0.0,6.2345,6.0893,0.0,0.0,0.0,0.0,0.0,0.0,0.0,0.0,5.9576,6.0552,6.2762,6.4103,6.4519,6.4976,6.5164,6.5081,6.4771,6.4234,6.3494,6.1507,6.0086,0.0,0.0,0.0,0.0,0.0,0.0,0.0,0.0,0.0,0.0,0.0,0.0,0.0,0.0,0.0,0.0,0.0,0.0,0.0,0.0,0.0,0.0,0.0,5.46,0.0,0.0,0.0,0.0,0.0,0.0,0.0,0.0,0.0,5.6476,5.7369,5.8239,5.8733,5.9542,5.9868,5.9253,0.0,0.0,0.0,0.0,0.0,0.0,0.0,5.9977,5.9724,6.0846,6.225,6.356,6.49,6.5799,6.5742,0.0,0.0,6.0909,6.1065,6.2091,6.2755,6.2579,6.2442,6.2996,6.2983,6.3088,0.0,0.0,0.0,0.0,0.0,0.0,0.0,0.0,6.0593,6.1388,0.0,6.0563,0.0,0.0,0.0,0.0,0.0,6.0308,0.0,0.0,6.4759,6.5946,6.5411,6.6263,6.6256,6.5398,6.4677,6.3806,6.2762,6.1063,0.0,0.0,0.0,0.0,0.0,0.0,6.0426,6.1506,6.2999,6.4519,6.6089,6.6089,6.6057,6.6021,6.5168,6.5012,6.5652,6.3406,6.2404,6.3069,5.9483,0.0,0.0,0.0,0.0,0.0,0.0,0.0,0.0,0.0,0.0,0.0,0.0,0.0,0.0,0.0,0.0,0.0,0.0,0.0,0.0,5.6114,0.0,0.0,0.0,0.0,0.0,0.0,0.0,0.0,0.0,0.0,5.7552,5.8663,5.9579,5.9542,0.0,0.0,0.0,0.0,6.1245,5.9157,5.8143,5.8083,5.8989,6.1598,6.3786,6.4569,0.0,0.0,6.9781,6.9304,6.907,6.8728,7.0251,7.0135,6.6874,6.6163,6.6221,6.6909,6.7076,6.704,6.704,6.7133,6.7097,6.4159,0.0,0.0,0.0,0.0,6.1052,6.1927,6.2413,6.3903,6.4093,6.3259,6.2771,0.0,0.0,0.0,0.0,0.0,0.0,6.3617,6.4955,6.7044,6.8564,6.9563,7.0375,7.0073,6.8752,6.8495,6.7637,6.6253,6.5173,6.3212,6.0511,0.0,0.0,0.0,0.0,6.2283,6.3214,6.4828,6.584,6.6212,6.677,6.7085,6.7049,6.6254,6.5857,6.5929,6.4672,6.3762,6.3192,6.1642,0.0,0.0,0.0,0.0,0.0,0.0,0.0,0.0,0.0,0.0,0.0,0.0,0.0,0.0,0.0,0.0,0.0,0.0,0.0,5.7695,5.8239,5.7959,0.0,0.0,0.0,0.0,0.0,0.0,0.0,0.0,0.0,6.1758,6.0167,5.8988,0.0,0.0,5.8819,5.781,6.0856,6.3543,6.4512,6.5996,0.0,6.9595,6.9705,6.9814,7.063,7.3603,7.5805,7.5619,7.687,7.7892,7.777,7.7782,7.7563,7.7081,7.4207,7.2194,7.2092,7.2081,7.2081,7.2081,7.1987,7.2069,6.975,6.5496,6.4025,6.349,6.378,6.5196,6.6189,6.6793,6.7962,6.8317,6.7957,6.6715,6.6057,6.5838,6.4835,0.0,0.0,0.0,6.7419,6.8825,7.0731,7.2203,7.3215,7.3707,7.323,7.2018,7.1688,7.0844,6.9559,6.8788,6.7166,6.4725,0.0,0.0,6.1819,6.2687,6.3753,6.494,6.6253,6.7206,6.7735,6.8262,6.8518,6.8518,6.8,6.7661,6.7541,6.6377,6.5436,6.4726,6.338,6.2168,0.0,0.0,0.0,0.0,0.0,0.0,0.0,0.0,0.0,0.0,0.0,5.6587,5.5982,0.0,0.0,0.0,5.8526,5.896,5.9367,5.9333,0.0,0.0,0.0,0.0,0.0,0.0,0.0,6.0698,6.3121,6.5231,6.6089,6.5065,6.3938,6.3119,6.3464,6.3564,6.2828,0.0,6.8398,6.9464,7.088,7.2479,7.4217,7.502,7.6115,7.8232,8.0144,8.131,8.1144,8.2347,8.3278,8.3191,8.2896,8.2839,8.3522,8.1307,7.8878,7.7486,7.6927,7.689,7.7473,7.7301,7.7268,7.4305,7.3483,7.1148,6.9527,6.8549,6.949,7.0781,7.2112,7.244,7.3431,7.4561,7.1706,7.0755,7.1231,6.8936,0.0,6.8184,7.044,7.1977,7.2973,7.5249,7.635,7.6387,7.6387,7.5983,7.516,7.4441,7.367,7.2863,7.2041,7.1233,7.0293,6.6516,6.4106,6.3191,6.385,6.5014,6.6659,6.7444,6.8545,7.0036,7.011,7.011,7.0073,6.9984,6.9913,6.9825,6.8309,6.735,6.712,6.5025,6.3734,6.3487,0.0,0.0,0.0,0.0,0.0,0.0,0.0,0.0,0.0,0.0,0.0,0.0,0.0,0.0,0.0,6.1498,0.0,6.1581,6.0484,0.0,0.0,0.0,6.3398,6.7185,6.7039,6.7263,6.8815,0.0,0.0,7.0536,7.2018,7.2446,7.0975,7.226,7.2771,7.1201,7.3042,7.4649,7.3913,7.4278,7.4842,7.6465,7.9174,8.2482,8.5642,8.6973,8.6714,8.6109,8.614,8.6211,8.6127,8.6121,8.6319,8.6915,8.6763,8.6121,8.2847,8.161,8.1447,8.2579,8.2398,8.2089,8.0874,7.9613,7.8979,7.6122,7.2219,7.37,7.4565,7.504,7.6438,7.6567,7.5702,7.4969,7.4382,7.3978,7.3362,7.3106,7.3223,7.436,7.5365,7.6225,7.7414,7.8332,7.8935,7.8935,7.8494,7.7745,7.7524,7.7011,7.6151,7.5344,7.4221,7.2826,7.1219,6.9151,6.6633,6.6706,6.7293,6.8298,6.8531,6.9119,7.0073,7.011,7.011,7.011,7.0082,7.0012,6.9913,6.9603,6.9262,6.8968,6.7988,6.7112,6.6352,6.3898,0.0,0.0,0.0,0.0,0.0,0.0,0.0,0.0,0.0,5.8514,5.7509,0.0,5.9408,0.0,6.3636,6.603,6.6672,6.748,0.0,0.0,6.7426,6.8345,7.0002,7.1092,7.1699,7.1594,7.2658,7.3993,7.5417,7.6497,7.7897,7.9741,7.6368,7.3208,7.2241,7.5794,7.8495,7.8678,8.1758,8.4671,8.4801,8.6707,8.8376,8.9476,9.0135,9.0538,9.0318,9.0354,9.0354,9.0281,8.9822,8.9565,8.9603,8.8758,8.8024,8.7496,8.6311,8.5309,8.5711,8.5532,8.526,8.4165,8.3358,8.2993,8.0888,7.7824,7.795,7.8023,7.8128,7.9223,7.914,7.8259,7.7928,7.7304,7.6592,7.6937,7.6864,7.6644,7.7745,7.8516,7.8977,7.98,8.0424,8.0844,8.0498,8.0094,7.9653,7.9286,7.8883,7.839,7.7965,7.7121,7.5888,7.5065,7.3377,7.0954,6.9486,6.9155,6.9986,7.0697,7.1431,7.2202,7.2239,7.1908,7.1211,7.0807,7.0251,6.9471,6.8821,6.8385,6.8089,6.7442,6.6807,6.618,6.413,6.2765,0.0,0.0,0.0,0.0,0.0,0.0,0.0,0.0,0.0,0.0,0.0,6.2536,6.37,6.6985,6.9074,6.9104,7.0295,7.1143,7.1326,7.2387,7.3991,7.6301,7.705,7.7631,7.8353,7.8883,7.9821,8.1399,8.2647,8.4005,8.584,8.3287,8.0612,7.9427,8.1624,8.3654,8.4168,8.7031,8.9417,8.9748,9.0555,9.1143,9.1179,9.151,9.1803,9.1803,9.1803,9.1803,9.1767,9.1436,9.1143,9.1106,9.0482,8.9968,9.017,8.9695,8.8908,8.8487,8.8086,8.7721,8.5859,8.5633,8.4974,8.4237,8.3418,8.1855,8.102,8.0744,8.091,8.0995,8.0975,8.0388,7.9706,7.9103,7.9816,7.9743,7.9176,8.0498,8.1158,8.1195,8.1856,8.2186,8.2186,8.1562,8.1305,8.1305,8.0718,8.044,8.0404,8.033,7.98,7.8919,7.806,7.6812,7.516,7.2422,7.1174,7.149,7.2936,7.4037,7.472,7.4536,7.3766,7.2422,7.1454,7.0316,6.8921,6.7467,6.6556,6.6362,6.574,6.543,6.5588,6.4101,6.3371,0.0,6.2154,0.0,0.0,0.0,0.0,0.0,0.0,0.0,0.0,6.5594,6.6724,6.9098,7.0995,7.1888,7.1494,7.2387,7.3876,7.6041,7.7656,8.0041,8.3601,8.3471,8.3838,8.6151,8.571,8.5766,8.6941,8.8556,8.9363,8.9179,8.9473,8.883,8.7785,8.7729,8.8426,8.9473,9.0244,9.0849,9.1436,9.1693,9.1767,9.1767,9.1767,9.1803,9.1803,9.1803,9.1803,9.1803,9.1767,9.1767,9.1803,9.1767,9.173,9.1657,9.1583,9.1308,9.0758,9.0116,8.995,8.8485,8.6723,8.6539,8.5676,8.4352,8.3988,8.2761,8.0963,8.0995,8.0995,8.1048,8.1525,8.1636,8.1525,8.1689,8.1652,8.1525,8.1819,8.1966,8.1982,8.2113,8.2186,8.2223,8.27,8.2941,8.2977,8.3471,8.3691,8.3691,8.303,8.195,8.0571,7.9727,7.8479,7.6922,0.0,0.0,0.0,7.323,7.3795,7.3854,7.2679,7.1857,7.149,7.0096,0.0,6.8885,6.7981,6.7467,6.7403,6.7257,0.0,0.0,0.0,0.0,0.0,0.0,0.0,0.0,0.0,0.0,0.0,6.9212,6.8604,6.7204,6.8339,7.0356,7.3244,7.5107,7.7179,7.9622,8.1216,8.2517,8.3618,8.4572,8.5987,8.7968,8.7528,8.7766,8.9454,8.8959,8.8556,8.8886,8.9253,8.9436,8.951,9.0097,9.0408,8.995,9.0005,9.0188,9.0391,9.1033,9.1583,9.1767,9.1803,9.1803,9.1803,9.1803,9.1803,9.1803,9.1803,9.1803,9.1803,9.1803,9.1803,9.1803,9.1803,9.1803,9.1803,9.1803,9.1767,9.162,9.1436,9.1216,9.1125,8.9968,8.9124,8.8078,0.0,8.6554,8.5233,8.3324,8.2957,8.2553,8.2207,8.2627,8.259,8.215,8.1782,8.1599,8.1599,8.1211,8.1248,8.1599,8.1599,8.1819,8.2223,8.2627,8.3014,8.3381,8.3821,8.4205,8.4572,8.4205,8.3581,8.2774,8.1562,8.0534,7.9727,7.8919,7.7304,7.4903,7.5285,7.5469,7.5454,7.4683,7.3876,7.3068,7.1908,0.0,0.0,0.0,0.0,0.0,0.0,0.0,0.0,6.9893,0.0,7.1661,7.1003,7.0996,7.2182,7.2255,7.2834,7.4102,7.5327,7.496,7.2504,7.3898,7.6041,7.8752,8.0156,8.1746,8.3765,8.5416,8.6554,8.6995,8.8059,8.9143,8.9767,8.9638,8.9858,9.0849,9.0482,9.0134,9.0555,9.0592,9.0574,9.0574,9.0922,9.1179,9.1179,9.1216,9.1179,9.1216,9.151,9.1767,9.1803,9.1803,9.1803,9.1803,9.1803,9.1803,9.1803,9.1803,9.1803,9.1803,9.1803,9.1803,9.1803,9.1803,9.1803,9.1803,9.1803,9.1803,9.1803,9.1803,9.1693,9.3382,9.2978,9.1473,9.0354,8.9546,8.8739,8.7582,8.6151,0.0,0.0,0.0,8.3564,8.3251,8.259,8.1782,8.1415,8.1379,8.0571,8.0587,8.1195,8.1232,8.1562,8.2186,8.2333,8.2774,8.3381,8.3528,8.4022,8.4792,8.4682,8.4682,8.4682,8.3324,8.2553,8.2333,8.0954,7.947,7.8023,7.7656,7.7546,7.7509,7.7252,7.6445,7.5139,7.4184,7.3083,7.1747,7.0954,7.0513,7.0513,7.0513,7.0734,7.1138,7.1174,7.1651,7.2701,7.2775,7.367,7.5616,7.5894,7.6959,7.9286,8.0828,8.0702,7.8537,7.9653,8.1452,8.3821,8.4629,8.5453,8.6554,8.7802,8.8683,8.883,9.0005,9.0849,9.1033,9.1014,9.1326,9.184,9.1473,9.1179,9.1657,9.1693,9.1803,9.1767,9.1693,9.1803,9.1803,9.173,9.173,9.173,9.1767,9.1803,9.1803,9.1803,9.1803,9.1803,9.1803,9.1803,9.1803,9.1803,9.1803,9.1803,9.1803,9.1803,9.1803,9.1803,9.1803,9.1803,9.1803,9.1803,9.1803,9.1803,9.1767,9.4354,9.3015,9.2024,9.1179,9.0372,8.9546,8.872,8.7692,8.5563,8.4168,8.3454,8.4115,8.4352,8.4205,8.3418,8.3051,8.3014,8.2223,8.1929,8.2039,8.2056,8.2076,8.2223,8.292,8.3308,8.3454,8.4095,8.4829,8.549,8.4903,8.4939,8.5453,8.4719,8.3911,8.3197,8.2333,8.1415,8.0445,7.9103,7.8405,7.8405,7.7011,7.6203,7.5909,7.4515,7.3597,7.3377,7.2642,7.2165,7.2165,7.2165,7.3083,7.5102,7.5249,7.624,7.8384,7.8605,7.8788,7.9119,7.9727,8.0885,8.2574,8.3581,8.3654,8.2647,8.2757,8.3895,8.6207,8.6611,8.7582,8.9601,9.0078,9.0482,9.1106,9.1436,9.1913,9.2537,9.2611,9.2648,9.2758,9.2831,9.2354,9.1877,9.1803,9.1803,9.1803,9.1803,9.1803,9.1803,9.1803,9.1803,9.1803,9.1803,9.1803,9.1803,9.1803,9.1803,9.1803,9.1803,9.1803,9.1803,9.1803,9.1803,9.1803,9.1803,9.1803,9.1803,9.1803,9.1803,9.1803,9.1803,9.1803,9.1803,9.1803,9.1803,9.5731,9.4997,9.4171,9.3364,9.2501,9.1253,9.0262,8.9417,8.8353,8.6664,8.4829,8.5086,8.5013,8.4499,8.3324,8.2737,8.27,8.1452,8.1122,8.1525,8.1562,8.1782,8.2203,8.259,8.2977,8.3418,8.3748,8.4389,8.5049,8.4756,8.5013,8.571,8.5416,8.4866,8.4095,8.3691,8.3324,8.292,8.0938,7.969,7.9265,7.8494,7.8127,7.8075,7.7356,7.7026,7.7026,7.6659,7.6475,7.646,7.646,7.6974,7.8054,7.8516,7.947,8.0991,8.1525,8.1929,8.237,8.3141,8.4095,8.5253,8.6077,8.6591,8.6684,8.6244,8.6664,8.8152,8.8666,8.9363,9.0519,9.0996,9.14,9.173,9.1803,9.195,9.2281,9.2391,9.2391,9.2391,9.2391,9.2244,9.184,9.1803,9.1803,9.1803,9.1803,9.1803,9.1803,9.1803,9.1803,9.1803,9.1803,9.1803,9.1803,9.1803,9.1803,9.1803,9.1803,9.1803,9.1803,9.1803,9.1803,9.1803,9.1803,9.1803,9.1803,9.1803,9.1803,9.1803,9.1803,9.1803,9.1803,9.1803,9.1803,9.6722,9.6649,9.5804,9.4923,9.3932,9.2648,9.1546,9.0629,9.0592,8.9124,8.6811,8.6444,8.5894,8.5013,8.3471,8.2847,8.2774,8.1358,8.1048,8.1746,8.1819,8.215,8.27,8.2737,8.3067,8.3601,8.3675,8.4095,8.4792,8.4866,8.527,8.5967,8.5911,8.549,8.4866,8.4719,8.4609,8.4499,8.2774,8.1415,8.0645,8.044,8.0314,8.033,8.033,8.0367,8.033,8.033,8.044,8.0624,8.0608,8.0681,8.0865,8.1452,8.2076,8.2737,8.3308,8.4078,8.5086,8.5894,8.6701,8.7491,8.8262,8.8996,8.9546,8.9271,8.916,8.9657,9.017,9.0629,9.0922,9.14,9.1803,9.1803,9.1803,9.1803,9.1803,9.1803,9.1803,9.1803,9.1803,9.1803,9.1803,9.1803,9.1803,9.1803,9.1803,9.1803,9.1803,9.1803,9.1803,9.1803,9.1803,9.1803,9.1803,9.1803,9.1803,9.1803,9.1803,9.1803,9.1803,9.1803,9.1803,9.1803,9.1803,9.1803,9.1803,9.1803,9.1803,9.1803,9.1803,9.1803,9.1803,9.1803,9.1803,9.6685,9.6575,9.5841,9.4611,9.3345,9.3051,9.206,9.0739,9.0629,9.006,8.8959,8.8316,8.7509,8.6611,8.5086,8.4719,8.5213,8.3801,8.3454,8.4095,8.4278,8.4315,8.4278,8.4315,8.4425,8.4462,8.4462,8.4792,8.549,8.5637,8.6077,8.6738,8.6151,8.5783,8.5637,8.5013,8.4646,8.4609,8.4389,8.3875,8.3087,8.237,8.1982,8.1966,8.1966,8.1982,8.1966,8.1966,8.2296,8.2977,8.3014,8.3361,8.3985,8.4205,8.4278,8.4389,8.4499,8.5159,8.6611,8.7545,8.8316,8.9143,8.9895,9.039,9.0519,9.1069,9.1143,9.0702,9.0592,9.0922,9.1583,9.1767,9.1803,9.1803,9.1803,9.1803,9.1803,9.1803,9.1803,9.1803,9.1803,9.1803,9.1803,9.1803,9.1803,9.1803,9.1803,9.1803,9.1803,9.1803,9.1803,9.1803,9.1803,9.1803,9.1803,9.1803,9.1803,9.1803,9.1803,9.1803,9.1803,9.1803,9.1803,9.1803,9.1803,9.1803,9.1803,9.1803,9.1803,9.1803,9.1803,9.1803,9.1803,9.1803,9.1803,9.6428,9.6025,9.6152,9.5547,9.4483,9.3529,9.2721,9.206,9.151,9.0849,9.0152,8.9748,8.894,8.7655,8.65,8.5967,8.5727,8.4609,8.4278,8.4572,8.4609,8.4609,8.4609,8.4609,8.4609,8.4609,8.4609,8.4792,8.5123,8.558,8.6187,8.6885,8.6664,8.6518,8.6481,8.6187,8.604,8.6004,8.5527,8.5159,8.4756,8.4022,8.3618,8.3618,8.3618,8.3618,8.3618,8.3618,8.3765,8.4095,8.4132,8.4278,8.4572,8.549,8.604,8.606,8.6941,8.7711,8.8372,8.9143,8.9784,9.0097,9.1063,9.1577,9.1362,9.1818,9.1909,9.1436,9.1289,9.1473,9.173,9.1803,9.1803,9.1803,9.1803,9.1803,9.1803,9.1803,9.1803,9.1803,9.1803,9.1803,9.1803,9.1803,9.1803,9.1803,9.1803,9.1803,9.1803,9.1803,9.1803,9.1803,9.1803,9.1803,9.1803,9.1803,9.1803,9.1803,9.1803,9.1803,9.1803,9.1803,9.1803,9.1803,9.1803,9.1803,9.1803,9.1803,9.1803,9.1803,9.1803,9.1803,9.1803,9.1803,9.1803,9.6392,9.5951,9.6465,9.6245,9.5382,9.4263,9.3639,9.3308,9.2537,9.1803,9.1289,9.1033,9.0188,8.883,8.7802,8.7105,8.6701,8.5967,8.571,8.5894,8.5913,8.593,8.5894,8.5913,8.593,8.5877,8.6004,8.5967,8.6004,8.6444,8.6995,8.7325,8.7325,8.7198,8.7014,8.7014,8.7014,8.6941,8.6407,8.6114,8.604,8.5563,8.5049,8.4682,8.4609,8.4609,8.4609,8.4609,8.4719,8.4903,8.5123,8.543,8.5789,8.7076,8.7862,8.8058,8.9254,9.001,9.0027,9.0801,9.1225,9.128,9.2094,9.2407,9.2233,9.2373,9.239,9.2143,9.2038,9.1948,9.1822,9.1803,9.1803,9.1803,9.1803,9.1803,9.1803,9.1803,9.1803,9.1803,9.1803,9.1803,9.1803,9.1803,9.1803,9.1803,9.1803,9.1803,9.1803,9.1803,9.1803,9.1803,9.1803,9.1803,9.1803,9.1803,9.1803,9.1803,9.1803,9.1803,9.1803,9.1803,9.1803,9.1803,9.1803,9.1803,9.1803,9.1803,9.1803,9.1803,9.1803,9.1803,9.1803,9.1803,9.1803,9.6685,9.6649,9.6685,9.6245,9.5474,9.5364,9.4923,9.4245,9.34,9.3015,9.2776,9.2097,9.1289,9.0354,8.894,8.8556,8.8996,8.828,8.8243,8.8849,8.8959,8.9106,8.9179,8.9216,8.9106,8.8849,8.8739,8.8886,8.9033,8.9106,8.8867,8.8206,8.8187,8.7766,8.7252,8.7196,8.7068,8.7161,8.7085,8.7012,8.7012,8.6939,8.6275,8.508,8.4699,8.4809,8.4756,8.4699,8.5066,8.5764,8.6569,8.7404,8.8481,8.9344,8.9938,9.0365,9.1119,9.1564,9.1659,9.2258,9.2686,9.272,9.2773,9.2864,9.2781,9.2831,9.2847,9.281,9.251,9.2215,9.1948,9.1858,9.1822,9.1803,9.1803,9.1803,9.1803,9.1803,9.1803,9.1803,9.1803,9.1803,9.1803,9.1803,9.1803,9.1803,9.1803,9.1803,9.1803,9.1803,9.1803,9.1803,9.1803,9.1803,9.1803,9.1803,9.1803,9.1803,9.1803,9.1803,9.1803,9.1803,9.1803,9.1803,9.1803,9.1803,9.1803,9.1803,9.1803,9.1803,9.1803,9.1803,9.1803,9.1803,9.1803,9.6722,9.6649,9.6171,9.6061,9.6227,9.5976,9.5645,9.5313,9.4539,9.3875,9.3379,9.2868,9.217,9.1326,9.0776,9.0115,8.94,8.9069,8.9106,8.94,8.94,8.94,8.94,8.94,8.9693,9.006,8.9657,8.9657,9.006,8.9657,8.9546,8.9691,8.9497,8.9055,8.868,8.878,8.8797,8.8572,8.8763,8.8917,8.8897,8.9135,8.8935,8.84,8.7669,8.7435,8.7655,8.8116,8.8429,8.8491,8.8988,8.9428,8.9876,9.0634,9.1388,9.1968,9.2282,9.2484,9.2505,9.2728,9.2897,9.2914,9.3072,9.3104,9.2996,9.3093,9.3157,9.2946,9.2814,9.2647,9.2439,9.2072,9.1822,9.1803,9.1822,9.1822,9.1803,9.1803,9.1803,9.1803,9.1803,9.1803,9.1803,9.1803,9.1803,9.1803,9.1803,9.1803,9.1803,9.1803,9.1803,9.1803,9.1803,9.1803,9.1803,9.1803,9.1803,9.1803,9.1803,9.1803,9.1803,9.1803,9.1803,9.1803,9.1803,9.1803,9.1803,9.1803,9.1803,9.1803,9.1803,9.1803,9.1803,9.1803,9.1803,9.7045,9.699,9.6492,9.6548,9.699,9.6729,9.6559,9.6485,9.5708,9.5078,9.4545,9.4057,9.3525,9.2936,9.2571,9.1855,9.0753,9.0389,9.0188,9.017,9.017,9.017,9.017,9.017,9.0427,9.0849,9.0445,9.0536,9.1065,9.0623,9.055,9.0715,9.0617,9.0278,8.9907,9.0019,9.0022,8.9833,9.0002,9.0136,9.0169,9.0365,9.0642,9.0738,9.0216,8.9839,8.9801,9.0235,9.0397,9.0239,9.0625,9.1062,9.1455,9.205,9.2672,9.3179,9.3253,9.3253,9.3253,9.3253,9.3253,9.3253,9.3442,9.3473,9.3285,9.3457,9.3442,9.3285,9.3125,9.3077,9.2963,9.2508,9.2127,9.202,9.2002,9.193,9.1822,9.1803,9.1803,9.1803,9.1803,9.1803,9.1822,9.1803,9.1803,9.1803,9.1803,9.1803,9.1803,9.1803,9.1803,9.1803,9.1803,9.1803,9.1803,9.1803,9.1803,9.1803,9.1803,9.1803,9.1803,9.1803,9.1803,9.1803,9.1803,9.1803,9.1803,9.1803,9.1803,9.1803,9.1803,9.1803,9.1803,9.1803,9.1803,9.7783,9.7748,9.78,9.7656,9.7713,9.7671,9.778,9.7557,9.6943,9.6497,9.62,9.5683,9.5189,9.5004,9.4007,9.3572,9.3224,9.2276,9.1728,9.1656,9.1638,9.1692,9.1692,9.1746,9.182,9.193,9.1821,9.1964,9.2262,9.2151,9.1855,9.1407,9.1577,9.1374,9.0573,9.0706,9.0626,9.0685,9.0738,9.0679,9.0547,9.0796,9.1179,9.1753,9.2011,9.169,9.0743,9.0706,9.0818,9.077,9.1381,9.2269,9.3127,9.3612,9.3933,9.3889,9.3956,9.3971,9.3956,9.3927,9.3897,9.3859,9.3971,9.3904,9.3859,9.3927,9.3927,9.3815,9.3633,9.3411,9.3379,9.3088,9.2764,9.2496,9.2373,9.225,9.2002,9.1858,9.184,9.1894,9.1912,9.184,9.184,9.1912,9.1947,9.1984,9.1912,9.1894,9.1894,9.1858,9.1822,9.1803,9.1803,9.1803,9.1803,9.1803,9.1803,9.1803,9.1803,9.1803,9.1803,9.1803,9.1803,9.1803,9.1803,9.1803,9.1803,9.1803,9.1803,9.1803,9.1803,9.1803,9.1803,9.1803,9.1803,9.7817,9.7817,9.7817,9.7817,9.7852,9.8037,9.8138,9.8117,9.7856,9.7446,9.6907,9.643,9.592,9.5457,9.4967,9.4841,9.4767,9.3832,9.2976,9.2324,9.2252,9.2375,9.2639,9.3134,9.3373,9.3373,9.3393,9.3148,9.2805,9.2764,9.2599,9.248,9.27,9.2604,9.2178,9.2359,9.2502,9.2427,9.2464,9.2558,9.2735,9.2855,9.3133,9.3489,9.368,9.3615,9.3464,9.313,9.2787,9.2496,9.3018,9.3447,9.3777,9.3904,9.4,9.4,9.4,9.4,9.4,9.4,9.4,9.4,9.4,9.4,9.4,9.4,9.4,9.4,9.3859,9.38,9.3785,9.3725,9.3364,9.2814,9.2748,9.2697,9.2545,9.2545,9.2542,9.2542,9.2542,9.2542,9.2525,9.2508,9.2473,9.2456,9.2355,9.2198,9.2162,9.1966,9.1822,9.1803,9.1803,9.1803,9.1803,9.1803,9.1803,9.1803,9.1803,9.1803,9.1803,9.1803,9.1803,9.1803,9.1803,9.1803,9.1803,9.1803,9.1803,9.1803,9.1803,9.1803,9.1803,9.1803,9.1803,9.8208,9.8208,9.8208,9.8208,9.8225,9.8455,9.8536,9.8498,9.8498,9.8215,9.7755,9.7556,9.7197,9.6605,9.5947,9.5583,9.5455,9.4574,9.3855,9.3397,9.3108,9.3324,9.3731,9.3933,9.4263,9.4302,9.3937,9.3544,9.3285,9.3226,9.3226,9.3273,9.371,9.3821,9.3612,9.3814,9.3894,9.3856,9.3894,9.3981,9.4137,9.4255,9.439,9.454,9.4567,9.4623,9.4767,9.4486,9.417,9.399,9.417,9.425,9.4189,9.4137,9.4117,9.4015,9.4,9.4,9.4,9.4,9.4,9.4,9.4,9.4,9.4,9.4,9.4,9.4,9.4,9.4,9.4,9.4,9.3755,9.3364,9.3173,9.3061,9.2963,9.2897,9.2897,9.2864,9.2881,9.2897,9.2897,9.2897,9.2897,9.2864,9.2731,9.2493,9.239,9.2217,9.202,9.1876,9.1803,9.1803,9.1803,9.1803,9.1803,9.1803,9.1803,9.1803,9.1803,9.1803,9.1803,9.1803,9.1803,9.1803,9.1803,9.1803,9.1803,9.1803,9.1803,9.1803,9.1803,9.1803,9.1803,9.8889,9.8905,9.8905,9.8905,9.8889,9.892,9.8913,9.8966,9.8874,9.8867,9.8876,9.8708,9.8745,9.8377,9.7049,9.6393,9.5924,9.523,9.5096,9.5192,9.4936,9.4968,9.5523,9.483,9.4784,9.506,9.3928,9.3457,9.3865,9.3842,9.3842,9.3952,9.4411,9.4767,9.4599,9.4767,9.4677,9.469,9.4741,9.469,9.478,9.4754,9.4793,9.4819,9.4819,9.4857,9.4908,9.487,9.4819,9.4793,9.4715,9.461,9.4486,9.4431,9.4321,9.4102,9.4044,9.403,9.4015,9.4,9.4,9.4,9.4,9.4,9.4,9.4,9.4,9.4,9.4,9.4,9.4,9.4,9.3971,9.3956,9.3649,9.3348,9.3044,9.3028,9.3093,9.3061,9.2979,9.2979,9.3077,9.3061,9.3061,9.3044,9.3012,9.2814,9.2545,9.2355,9.218,9.2002,9.1822,9.1803,9.1803,9.1803,9.1803,9.1803,9.1803,9.1803,9.1803,9.1803,9.1803,9.1803,9.1803,9.1803,9.1803,9.1803,9.1803,9.1803,9.1803,9.1803,9.1803,9.1803,9.1803,9.8889,9.892,9.9126,9.9192,9.9177,9.9177,9.9361,9.9476,9.905,9.9141,9.9376,9.9103,9.9058,9.9125,9.8651,9.8395,9.8057,9.7548,9.7661,9.8038,9.7625,9.746,9.7347,9.6187,9.5903,9.6316,9.4994,9.4397,9.4532,9.4557,9.4557,9.4545,9.4842,9.4908,9.4806,9.4908,9.4921,9.5033,9.4933,9.4997,9.5121,9.4984,9.4908,9.5082,9.5132,9.5217,9.5345,9.5368,9.5179,9.4832,9.4806,9.478,9.4702,9.4689,9.4557,9.4349,9.4279,9.4217,9.4059,9.4,9.4,9.4,9.4,9.4,9.4,9.4,9.4,9.4,9.4,9.4,9.4,9.4,9.4,9.4,9.3897,9.377,9.3694,9.3709,9.3709,9.3709,9.3679,9.3649,9.3649,9.3649,9.3649,9.3618,9.3395,9.3125,9.2798,9.2459,9.2287,9.1984,9.1803,9.1803,9.1803,9.1803,9.1803,9.1803,9.1803,9.1803,9.1803,9.1803,9.1803,9.1803,9.1803,9.1803,9.1803,9.1803,9.1803,9.1803,9.1803,9.1803,9.1803,9.1803,9.1803,9.9066,9.9096,9.9367,9.9495,9.9495,9.9509,9.9645,9.9714,9.9448,9.9361,9.9533,9.9405,9.9288,9.9286,9.9061,9.8942,9.8932,9.863,9.8708,9.9141,9.9263,9.9009,9.8295,9.7105,9.6703,9.6717,9.554,9.4933,9.5022,9.5313,9.5464,9.5641,9.5957,9.6158,9.6296,9.6208,9.6219,9.6403,9.6269,9.6281,9.6388,9.6281,9.6053,9.6019,9.5928,9.5895,9.5664,9.5598,9.5417,9.5082,9.5058,9.5082,9.4971,9.4958,9.4844,9.4583,9.4486,9.4321,9.418,9.405,9.4,9.4,9.4,9.4,9.4,9.4,9.4,9.4,9.4,9.4,9.4,9.4,9.4,9.4,9.4,9.4,9.4,9.3971,9.4,9.4,9.4,9.4,9.4,9.4,9.4,9.3889,9.3565,9.3269,9.2909,9.2613,9.2322,9.202,9.1822,9.1803,9.1803,9.1803,9.1803,9.1803,9.1803,9.1803,9.1803,9.1803,9.1803,9.1803,9.1803,9.1803,9.1803,9.1803,9.1803,9.1803,9.1803,9.1803,9.1803,9.1803,9.1803,9.9367,9.9381,9.9714,9.9837,9.9837,9.9837,9.9877,9.989,9.9783,9.9687,9.9593,9.9728,9.9645,9.9349,9.9163,9.875,9.8802,9.8919,9.9048,9.9505,9.9831,9.9757,9.868,9.8022,9.7351,9.6816,9.5591,9.54,9.5724,9.6267,9.661,9.6798,9.7535,9.7922,9.7723,9.7872,9.8021,9.7845,9.7746,9.7685,9.7719,9.7658,9.7353,9.6715,9.6432,9.6138,9.5751,9.5598,9.5498,9.5239,9.5448,9.5452,9.5289,9.5227,9.5094,9.4883,9.4663,9.454,9.4431,9.425,9.4108,9.4137,9.4079,9.4073,9.4146,9.4146,9.4102,9.4102,9.4059,9.4059,9.4,9.4,9.4,9.4,9.4,9.4,9.4,9.4,9.4,9.4,9.4,9.4,9.4,9.4,9.4,9.4,9.374,9.3473,9.3141,9.2798,9.2424,9.2056,9.1912,9.1803,9.1803,9.1803,9.1803,9.1803,9.1803,9.1803,9.1803,9.1803,9.1803,9.1803,9.1803,9.1803,9.1803,9.1803,9.1767,9.1803,9.1803,9.1803,9.1803,9.1803,9.1803,9.97,9.9728,9.9972,10.0088,10.0139,10.0139,10.0253,10.0389,9.9983,10.001,10.0165,9.997,9.9904,9.9985,9.9859,9.9835,9.986,9.996,10.0219,10.0219,10.0188,9.9905,9.9271,9.8952,9.8466,9.7764,9.7524,9.7066,9.6883,9.728,9.7773,9.7811,9.8063,9.8109,9.8223,9.83,9.8109,9.8109,9.8147,9.8223,9.8262,9.8223,9.7891,9.7089,9.6401,9.5904,9.5675,9.5609,9.5576,9.5554,9.5603,9.568,9.5509,9.5498,9.5394,9.5155,9.5045,9.4908,9.4741,9.4636,9.461,9.4557,9.4431,9.4404,9.4583,9.4418,9.4335,9.4307,9.4307,9.4222,9.4073,9.4015,9.4,9.4,9.4,9.4,9.4,9.4,9.4,9.4,9.4,9.4,9.4,9.4,9.4,9.3986,9.383,9.3642,9.3332,9.2963,9.2596,9.2198,9.2038,9.193,9.1803,9.1803,9.1803,9.1803,9.1803,9.1803,9.1803,9.1767,9.173,9.1767,9.1803,9.1693,9.1363,9.1657,9.1583,9.1693,9.1657,9.1473,9.1363,9.151,9.162,9.9958,10.0023,10.029,10.0401,10.0401,10.0413,10.0436,10.0533,10.0328,10.0265,10.0377,10.0177,10.0406,10.0735,10.053,10.0554,10.0845,10.0686,10.0592,10.053,10.0424,10.0219,10.0072,9.984,9.9381,9.83,9.8059,9.7803,9.7765,9.8235,9.872,9.877,9.9037,9.937,9.9293,9.9228,9.9331,9.9331,9.9266,9.9266,9.9255,9.9266,9.8884,9.8082,9.728,9.6783,9.6821,9.6783,9.6554,9.6324,9.621,9.5981,9.5675,9.5609,9.5531,9.5429,9.5265,9.5155,9.5008,9.487,9.4793,9.4819,9.465,9.4689,9.4754,9.465,9.4597,9.457,9.4543,9.4462,9.4208,9.4044,9.403,9.4,9.4,9.4,9.4,9.4,9.4,9.4,9.4,9.4,9.4,9.4,9.4,9.4,9.3725,9.3535,9.3411,9.3061,9.2731,9.2407,9.2215,9.2056,9.1876,9.1803,9.1803,9.1803,9.1803,9.1803,9.1803,9.173,9.1657,9.162,9.151,9.0849,9.0629,9.0959,9.1179,9.0702,9.0519,9.0665,9.0812,9.0959,9.1033,10.024,10.0303,10.051,10.0604,10.0604,10.0592,10.0592,10.0604,10.0604,10.0462,10.0352,10.0521,10.0781,10.1089,10.0791,10.1051,10.128,10.1012,10.0604,10.0592,10.058,10.0492,10.0489,10.0336,9.9916,9.8567,9.8682,9.8567,9.8579,9.8999,9.9343,9.961,9.9954,10.0107,10.0413,10.0566,10.0375,10.0298,10.0298,10.0336,10.0375,10.0375,9.9954,9.919,9.8349,9.788,9.7841,9.7841,9.7727,9.7165,9.6974,9.6515,9.6019,9.5637,9.5609,9.5587,9.5406,9.5286,9.5239,9.5094,9.4983,9.4921,9.487,9.4908,9.4933,9.4908,9.4857,9.4832,9.4793,9.4676,9.4486,9.4335,9.4151,9.4102,9.4088,9.4044,9.4015,9.4,9.4,9.4,9.4,9.4,9.4,9.4,9.4,9.3956,9.3679,9.3457,9.3417,9.3157,9.2885,9.2493,9.2268,9.2038,9.1858,9.1803,9.1803,9.1803,9.1803,9.1803,9.173,9.1436,9.1289,9.1253,9.0996,9.0555,9.0519,9.1033,9.0849,8.984,9.0024,9.0849,9.0812,9.0482,9.0629,10.0545,10.0545,10.058,10.0604,10.0604,10.0604,10.0604,10.0604,10.0604,10.058,10.0545,10.058,10.0619,10.0736,10.0671,10.0718,10.0833,10.0566,10.0489,10.0489,10.0451,10.0375,10.0336,10.0413,10.0298,10.0298,10.0031,9.9687,9.9305,9.9354,9.9801,10.0145,9.9954,9.9992,10.0489,10.0604,10.0604,10.0604,10.0604,10.0604,10.0604,10.0527,10.0298,9.9534,9.8808,9.8414,9.8223,9.8147,9.8032,9.7841,9.728,9.6898,9.6439,9.5904,9.5637,9.5587,9.5543,9.5498,9.5486,9.5486,9.5437,9.5402,9.5251,9.5251,9.531,9.5251,9.5143,9.507,9.4946,9.4793,9.4741,9.4661,9.4554,9.4418,9.4293,9.4246,9.4073,9.4,9.4,9.4,9.4,9.4,9.4,9.4,9.4,9.4113,9.4085,9.398,9.3987,9.3588,9.3058,9.2687,9.2268,9.2038,9.1822,9.1803,9.1803,9.1803,9.1803,9.1803,9.1583,9.1069,9.0886,9.1179,9.1289,9.1143,9.1179,9.1179,9.0959,9.0372,9.0776,9.1216,9.0886,9.0555,9.1033,10.0604,10.0604,10.0604,10.0604,10.0604,10.0604,10.0604,10.0604,10.0604,10.0604,10.0451,10.0222,10.0527,10.0833,10.026,10.0183,10.0413,10.0107,9.9992,9.9954,9.9572,9.9293,9.9496,9.9763,10.0222,10.0451,10.0566,10.0451,10.0069,10.0031,10.0222,10.0375,10.0145,10.0222,10.0489,10.0604,10.0604,10.0604,10.0604,10.0604,10.0604,10.0604,10.0336,9.9992,9.9649,9.9419,9.9419,9.9381,9.8949,9.8223,9.7727,9.7089,9.6401,9.5942,9.5609,9.5609,9.5609,9.5609,9.5609,9.5609,9.5587,9.5587,9.5475,9.5475,9.5543,9.5448,9.5417,9.5321,9.5205,9.5198,9.5616,9.5174,9.4903,9.4939,9.4668,9.4316,9.4102,9.403,9.4,9.4,9.4,9.4,9.4,9.4,9.4,9.4151,9.4413,9.4511,9.4572,9.4074,9.354,9.2903,9.2468,9.1983,9.184,9.1803,9.1803,9.1803,9.1803,9.1803,9.173,9.1326,9.1326,9.1583,9.1583,9.1436,9.0849,9.0482,9.0629,9.0812,9.0629,9.0537,9.0629,9.0739,9.1216,10.0604,10.0604,10.0604,10.0604,10.0604,10.0604,10.0604,10.0604,10.0604,10.0489,10.026,9.9763,10.0031,10.0527,9.9916,9.9458,10.0031,9.9343,9.9152,9.9037,9.8617,9.8235,9.8651,9.9083,9.9909,10.0642,10.0662,10.0742,10.0718,10.0375,10.0375,10.0451,10.0489,10.0489,10.0527,10.0604,10.0604,10.0604,10.0604,10.0604,10.0604,10.0604,10.0604,10.0615,10.0627,10.0536,10.0459,10.0199,9.9614,9.8712,9.7963,9.7226,9.6106,9.5713,9.5609,9.5609,9.5609,9.5609,9.5609,9.5609,9.5609,9.5598,9.5598,9.5598,9.5598,9.5587,9.5576,9.5565,9.544,9.5465,9.5822,9.5487,9.5211,9.5179,9.4856,9.4404,9.4203,9.4073,9.4,9.4,9.4,9.4,9.4,9.4451,9.4526,9.4751,9.4999,9.5224,9.5209,9.4697,9.4116,9.3358,9.2705,9.2129,9.1876,9.1822,9.1803,9.1803,9.1803,9.1803,9.1803,9.1693,9.1767,9.1767,9.1546,9.1253,9.0519,9.0225,9.0812,9.0922,9.017,9.017,9.0849,9.1069,9.1326,10.0604,10.0604,10.0604,10.0604,10.0604,10.0566,10.0566,10.0566,10.0489,10.0183,9.9534,9.9343,9.8999,9.872,9.8567,9.8338,9.8414,9.8399,9.8284,9.8219,9.799,9.8287,9.9157,9.9474,10.0054,10.0738,10.0798,10.1205,10.1224,10.036,10.0042,10.0386,10.0119,9.9889,10.0589,10.0604,10.0604,10.0604,10.0604,10.0604,10.0604,10.0604,10.0604,10.0627,10.0685,10.073,10.0627,10.0251,9.9567,9.9195,9.7845,9.7112,9.6652,9.5981,9.5675,9.5609,9.5609,9.5609,9.5609,9.5609,9.5609,9.5609,9.5609,9.5609,9.5609,9.5609,9.5609,9.5598,9.5554,9.5684,9.5902,9.5623,9.5436,9.5284,9.5072,9.4648,9.439,9.4189,9.4079,9.4,9.4,9.4,9.4,9.4586,9.5112,9.5375,9.5608,9.5734,9.5601,9.4952,9.4121,9.3216,9.267,9.2094,9.1876,9.1822,9.1803,9.1803,9.1803,9.1803,9.1803,9.1803,9.1803,9.173,9.151,9.1473,9.1216,9.1179,9.1473,9.1326,9.0922,9.1143,9.1583,9.162,9.1473,10.0604,10.0604,10.0604,10.0604,10.0527,10.0145,9.9916,9.9801,9.9381,9.8999,9.8617,9.8158,9.7738,9.7585,9.7841,9.8109,9.8006,9.7729,9.7484,9.7429,9.7282,9.7461,9.8117,9.8828,9.9637,10.0759,10.1034,10.1335,10.1361,10.0914,10.036,10.0543,10.0344,10.0306,10.0623,10.0627,10.0604,10.0604,10.0604,10.0604,10.0604,10.0604,10.0604,10.0604,10.0662,10.0658,10.0501,9.9983,9.9348,9.8845,9.7653,9.688,9.6427,9.5985,9.5783,9.5697,9.5697,9.5664,9.5609,9.5609,9.5609,9.5609,9.5609,9.5609,9.5609,9.5648,9.5648,9.5609,9.5609,9.5789,9.6057,9.5866,9.5845,9.567,9.5309,9.487,9.4557,9.4376,9.4208,9.4079,9.403,9.4111,9.4163,9.433,9.4879,9.53,9.5413,9.5503,9.5258,9.4729,9.3776,9.2695,9.2308,9.1967,9.1858,9.1803,9.1803,9.1803,9.1803,9.1803,9.1803,9.1803,9.1803,9.1803,9.1693,9.1693,9.1803,9.1767,9.1657,9.173,9.1767,9.1803,9.1803,9.1767,9.1657,10.0489,10.0336,10.0527,10.0604,10.0527,9.9916,9.961,9.9343,9.9075,9.8567,9.7994,9.7547,9.728,9.7329,9.7837,9.8138,9.81,9.7599,9.7412,9.7148,9.6971,9.7291,9.8194,9.8866,9.9721,10.1046,10.1064,10.1349,10.1428,10.1115,10.0631,10.0787,10.0676,10.0669,10.0669,10.0685,10.065,10.0604,10.0604,10.0604,10.0604,10.0604,10.0604,10.0539,10.0459,10.0352,10.0249,9.937,9.8591,9.811,9.7319,9.6544,9.6043,9.5908,9.5849,9.5825,9.5814,9.5783,9.5719,9.5664,9.5621,9.5609,9.5609,9.5609,9.5637,9.5713,9.5942,9.6019,9.6363,9.6592,9.663,9.627,9.6122,9.5933,9.5626,9.5147,9.4742,9.4638,9.4543,9.4445,9.4424,9.4486,9.442,9.4192,9.4495,9.5089,9.53,9.53,9.4961,9.45,9.3816,9.2859,9.251,9.225,9.2038,9.1966,9.1912,9.1822,9.1822,9.1803,9.1803,9.1803,9.1803,9.1803,9.1803,9.1803,9.1803,9.1803,9.1803,9.1803,9.1803,9.1803,9.1803,9.1803,9.1803,10.0145,9.9534,10.026,10.0489,10.0489,10.0527,9.9992,9.9228,9.9878,9.9152,9.7918,9.788,9.765,9.7875,9.779,9.7998,9.8173,9.834,9.8016,9.8037,9.8365,9.8503,9.9043,9.9544,10.0199,10.1095,10.1198,10.1244,10.1231,10.1132,10.0831,10.0787,10.0836,10.0753,10.073,10.0708,10.0673,10.0615,10.0604,10.0527,10.0489,10.0489,10.0451,10.0318,10.0032,9.9741,9.9675,9.8554,9.7797,9.7536,9.6836,9.6327,9.6019,9.5961,9.5979,9.591,9.5928,9.587,9.5818,9.5702,9.5632,9.5609,9.5609,9.5609,9.5637,9.6324,9.6668,9.6554,9.6668,9.6974,9.6958,9.6811,9.6265,9.5964,9.5673,9.5505,9.5165,9.5093,9.4958,9.4819,9.4725,9.4716,9.464,9.4378,9.4617,9.5199,9.5149,9.5171,9.4872,9.4463,9.4024,9.3397,9.3,9.268,9.2373,9.2215,9.2056,9.193,9.1876,9.184,9.1803,9.1803,9.1803,9.1803,9.1803,9.1803,9.1803,9.1803,9.1803,9.1803,9.1803,9.1803,9.1803,9.1803,9.1803,9.8884,9.8655,9.8911,9.9064,9.9026,9.8541,9.8158,9.7815,9.7623,9.7241,9.6668,9.6554,9.6554,9.6702,9.6702,9.6767,9.6799,9.6928,9.714,9.7209,9.7556,9.8335,9.9028,9.9893,10.0442,10.1115,10.1278,10.1228,10.1196,10.1106,10.094,10.0875,10.082,10.0858,10.0825,10.0642,10.0612,10.06,10.0527,10.0413,9.9878,9.9813,9.9645,9.9162,9.9042,9.8866,9.8766,9.795,9.7567,9.7202,9.6578,9.63,9.6127,9.6117,9.6088,9.601,9.6039,9.5981,9.592,9.5828,9.5755,9.5697,9.5653,9.5609,9.5632,9.5992,9.6057,9.6172,9.6565,9.6778,9.627,9.6139,9.591,9.5741,9.5675,9.5626,9.5571,9.5466,9.5292,9.5141,9.4933,9.4778,9.4721,9.4586,9.4928,9.5305,9.5129,9.4952,9.4669,9.4369,9.3986,9.365,9.3227,9.3028,9.2731,9.2442,9.218,9.2056,9.1966,9.1894,9.1858,9.1803,9.1803,9.1803,9.1803,9.1803,9.1803,9.1803,9.1803,9.1803,9.1803,9.1803,9.1803,9.1803,9.1858,9.8197,9.7803,9.7994,9.8071,9.8032,9.7776,9.7471,9.7203,9.705,9.6706,9.6756,9.6745,9.6898,9.7046,9.7325,9.7533,9.7827,9.7897,9.7756,9.8075,9.8682,9.8923,9.949,10.0125,10.0817,10.1241,10.1279,10.1278,10.1238,10.1268,10.1167,10.0972,10.0798,10.0754,10.037,10.0375,10.0272,10.0306,10.0509,10.0226,9.9637,9.9506,9.9135,9.8544,9.8242,9.8075,9.7917,9.7403,9.7068,9.6857,9.6587,9.6317,9.6279,9.6279,9.6251,9.6203,9.6175,9.6107,9.6049,9.5931,9.588,9.5825,9.5772,9.5729,9.5708,9.5899,9.6352,9.6303,9.6407,9.6309,9.6096,9.6314,9.6117,9.6016,9.5977,9.5938,9.5898,9.5797,9.5621,9.5428,9.5272,9.5167,9.487,9.4765,9.474,9.497,9.482,9.4646,9.4403,9.4159,9.395,9.3656,9.3385,9.3205,9.3044,9.2798,9.251,9.225,9.2145,9.1966,9.1912,9.1876,9.1822,9.1803,9.1803,9.1803,9.1803,9.1803,9.1803,9.1803,9.1803,9.1803,9.1803,9.1822,9.193,9.8311,9.7089,9.7738,9.8006,9.8006,9.8923,9.8693,9.7929,9.8475,9.8754,9.8662,9.8766,9.9148,9.9629,9.9332,9.9463,9.9583,10.0059,10.0169,9.9997,9.999,10.0769,10.0923,10.1038,10.1087,10.1241,10.1279,10.1269,10.1288,10.1258,10.1228,10.1024,10.0704,10.0317,9.9542,9.9481,9.9526,9.9704,10.0327,10.0114,9.9507,9.926,9.8762,9.8086,9.7562,9.7344,9.725,9.6886,9.6587,9.6452,9.6423,9.6288,9.6288,9.6288,9.6279,9.6269,9.6269,9.6269,9.626,9.6058,9.5941,9.5938,9.5849,9.5839,9.6033,9.6455,9.6769,9.6469,9.718,9.7378,9.7284,9.6943,9.6416,9.6189,9.6135,9.6146,9.6058,9.6068,9.59,9.5748,9.5759,9.5674,9.526,9.4946,9.4689,9.463,9.4483,9.4321,9.4208,9.4122,9.4021,9.3896,9.3687,9.3642,9.3519,9.3157,9.2847,9.2562,9.2355,9.2233,9.2074,9.1984,9.193,9.1858,9.1803,9.1803,9.1803,9.1803,9.1803,9.1803,9.1803,9.1803,9.1803,9.1912,9.2074,9.6554,9.6068,9.644,9.6549,9.6615,9.6778,9.7012,9.7329,9.7664,9.7894,9.7921,9.7931,9.8046,9.8461,9.9166,9.9498,9.9529,9.9488,9.9567,9.969,10.0278,10.0336,10.0576,10.1067,10.1279,10.1279,10.1279,10.1278,10.1218,10.1238,10.1178,10.0962,10.0125,9.9522,9.954,9.9534,9.9409,9.9113,9.9441,9.9462,9.8239,9.8058,9.7782,9.7037,9.6741,9.6664,9.6751,9.6385,9.6317,9.6288,9.6288,9.6288,9.6288,9.6288,9.6288,9.6288,9.6288,9.6288,9.6279,9.6203,9.6117,9.6058,9.5961,9.5931,9.5987,9.614,9.6284,9.6409,9.6813,9.6733,9.635,9.6284,9.6025,9.6046,9.6039,9.6088,9.6098,9.6213,9.6146,9.6078,9.6049,9.5734,9.533,9.5131,9.4895,9.4702,9.4597,9.4486,9.4362,9.4335,9.4265,9.4265,9.4142,9.4113,9.3969,9.3626,9.3358,9.3168,9.2881,9.2579,9.2407,9.2215,9.2074,9.202,9.1912,9.1822,9.1894,9.193,9.184,9.1803,9.1894,9.2002,9.2091,9.2215,9.2373,9.5986,9.5768,9.6148,9.6103,9.5901,9.6057,9.6637,9.7386,9.7489,9.7563,9.7692,9.7702,9.7922,9.826,9.8646,9.9263,9.9399,9.9566,9.9644,9.9574,10.0163,10.0548,10.0778,10.0932,10.1231,10.1279,10.1279,10.1288,10.1248,10.1298,10.1028,10.0409,9.9281,9.8831,9.8828,9.8633,9.8493,9.8337,9.8723,9.8744,9.7815,9.7335,9.7048,9.652,9.6242,9.6261,9.6269,9.6288,9.6288,9.6288,9.6288,9.6288,9.6288,9.6288,9.6288,9.6288,9.6288,9.6288,9.6279,9.6279,9.6193,9.6155,9.6078,9.6058,9.6058,9.6155,9.6107,9.6107,9.6,9.6019,9.6009,9.5971,9.6039,9.6058,9.6078,9.6136,9.6165,9.6269,9.6279,9.6222,9.6136,9.5787,9.5455,9.5274,9.5082,9.4933,9.478,9.4636,9.4503,9.45,9.4459,9.4431,9.4418,9.4311,9.4227,9.4085,9.3896,9.3777,9.3426,9.3028,9.2714,9.2473,9.2318,9.2162,9.202,9.1948,9.2056,9.2091,9.2161,9.218,9.2145,9.225,9.2409,9.253,9.263,9.6629,9.6054,9.6782,9.6514,9.5987,9.6409,9.7329,9.8288,9.8365,9.8375,9.8385,9.8281,9.8559,9.9383,9.9613,10.0017,10.0586,10.0832,10.0929,10.0988,10.1019,10.1144,10.1154,10.1231,10.1279,10.1279,10.1279,10.1279,10.1279,10.1279,10.0923,10.0029,9.9095,9.8375,9.7855,9.7499,9.7411,9.7576,9.8028,9.7942,9.7279,9.725,9.6856,9.6452,9.626,9.6269,9.6288,9.6288,9.6288,9.6288,9.6288,9.6288,9.6288,9.6288,9.6288,9.6288,9.6288,9.6288,9.6288,9.6288,9.6279,9.626,9.626,9.6269,9.626,9.6232,9.6222,9.6222,9.6174,9.6146,9.6127,9.6184,9.6213,9.6222,9.6222,9.6251,9.626,9.6288,9.6288,9.6269,9.6269,9.6049,9.5787,9.5571,9.5345,9.5215,9.5094,9.4996,9.4844,9.4661,9.4608,9.4489,9.4462,9.4435,9.4366,9.4311,9.4199,9.4013,9.3792,9.3442,9.3141,9.281,9.2677,9.2473,9.218,9.2127,9.2338,9.2562,9.2748,9.268,9.2545,9.263,9.2764,9.2748,9.2881,9.5287,9.5105,9.5367,9.5012,9.4369,9.459,9.5512,9.675,9.7392,9.7739,9.7779,9.7818,9.8336,9.9048,9.9662,10.0085,10.0518,10.0922,10.1163,10.1298,10.1298,10.1279,10.1279,10.1279,10.1279,10.1279,10.1279,10.1279,10.1279,10.1279,10.0481,9.9279,9.8904,9.7991,9.7135,9.6616,9.6645,9.6837,9.7462,9.7289,9.6923,9.6749,9.648,9.6365,9.6288,9.6288,9.6288,9.6288,9.6288,9.6288,9.6288,9.6288,9.6288,9.6288,9.6288,9.6288,9.6288,9.6288,9.6288,9.6288,9.6288,9.6288,9.6288,9.6288,9.6288,9.6288,9.6288,9.6288,9.6288,9.6241,9.6222,9.6251,9.6269,9.6269,9.6269,9.6269,9.6288,9.6288,9.6288,9.6288,9.6288,9.6222,9.5979,9.5828,9.5588,9.5504,9.5391,9.5286,9.5131,9.4895,9.4741,9.4663,9.453,9.4527,9.4503,9.4462,9.4404,9.4265,9.4036,9.38,9.3473,9.3184,9.3077,9.2897,9.2626,9.2593,9.2731,9.293,9.3125,9.3061,9.2963,9.3023,9.3088,9.3125,9.3189,9.41,9.3851,9.386,9.3619,9.3282,9.3529,9.4174,9.4858,9.5925,9.677,9.7471,9.7509,9.798,9.8779,9.9317,9.974,10.0173,10.051,10.0894,10.1269,10.1279,10.1279,10.1279,10.1279,10.1279,10.1279,10.1279,10.1279,10.1279,10.1125,10.0481,9.8981,9.8788,9.775,9.6817,9.6346,9.6355,9.6509,9.6663,9.6634,9.648,9.6288,9.6288,9.6288,9.6288,9.6288,9.6288,9.6288,9.6288,9.6288,9.6288,9.6288,9.6288,9.6288,9.6288,9.6288,9.6288,9.6288,9.6288,9.6288,9.6288,9.6288,9.6288,9.6288,9.6288,9.6288,9.6288,9.6288,9.6288,9.6279,9.6279,9.6288,9.6288,9.6288,9.6288,9.6288,9.6288,9.6288,9.6288,9.6288,9.626,9.6222,9.6098,9.5981,9.588,9.5723,9.5593,9.552,9.531,9.5082,9.4946,9.4844,9.4676,9.4567,9.457,9.457,9.4473,9.4349,9.4194,9.3963,9.3702,9.3473,9.3237,9.3189,9.3173,9.3157,9.3157,9.3301,9.3479,9.3379,9.3332,9.3364,9.3442,9.3572,9.3679,9.321,9.2547,9.2441,9.2509,9.2595,9.3172,9.3056,9.2595,9.3894,9.5595,9.6903,9.7365,9.7788,9.8442,9.8865,9.9173,9.9606,9.999,10.0558,10.1202,10.1279,10.1279,10.1279,10.1279,10.1279,10.1279,10.1279,10.1279,10.1279,10.0981,10.0212,9.8865,9.8596,9.775,9.6519,9.6326,9.6288,9.6326,9.6403,9.6403,9.6365,9.6288,9.6288,9.6288,9.6288,9.6288,9.6288,9.6288,9.6288,9.6288,9.6288,9.6288,9.6288,9.6288,9.6288,9.6288,9.6288,9.6288,9.6288,9.6288,9.6288,9.6288,9.6288,9.6288,9.6288,9.6288,9.6288,9.6288,9.6288,9.6288,9.6288,9.6288,9.6288,9.6288,9.6288,9.6288,9.6288,9.6288,9.6288,9.6288,9.6279,9.6241,9.6232,9.6107,9.6068,9.591,9.5877,9.5772,9.5609,9.5356,9.5215,9.5107,9.4996,9.4844,9.4676,9.465,9.4513,9.439,9.4265,9.4122,9.3904,9.3626,9.3364,9.3426,9.3541,9.355,9.3581,9.3694,9.374,9.3755,9.3725,9.3694,9.377,9.3882,9.3912,9.2672,9.2441,9.1787,9.1864,9.2364,9.1979,9.171,9.1479,9.1171,9.2941,9.5326,9.6288,9.7019,9.775,9.8365,9.8596,9.8442,9.9336,10.0106,10.0635,10.0943,10.1202,10.1279,10.1279,10.1279,10.1279,10.1279,10.1241,10.1096,10.0635,9.9942,9.8827,9.8327,9.7326,9.6403,9.6288,9.6288,9.6288,9.6288,9.6288,9.6288,9.6288,9.6288,9.6288,9.6288,9.6288,9.6288,9.6288,9.6288,9.6288,9.6288,9.6288,9.6288,9.6288,9.6288,9.6288,9.6288,9.6288,9.6288,9.6288,9.6288,9.6288,9.6288,9.6288,9.6288,9.6288,9.6288,9.6288,9.6288,9.6288,9.6288,9.6288,9.6288,9.6288,9.6288,9.6288,9.6288,9.6288,9.6288,9.6288,9.6288,9.6279,9.6269,9.626,9.6232,9.6203,9.6203,9.6136,9.5989,9.5787,9.5604,9.5493,9.5463,9.5274,9.5008,9.4793,9.4676,9.4462,9.4311,9.4208,9.4065,9.3859,9.3664,9.377,9.3897,9.383,9.3815,9.3874,9.3956,9.4015,9.4044,9.3977,9.3963,9.4021,9.4015,9.0594,9.0171,8.971,9.0017,9.0671,9.0671,9.0816,9.1095,9.0671,9.1748,9.3719,9.448,9.548,9.6749,9.7519,9.7865,9.7596,9.8442,9.9365,10.0058,10.0442,10.0943,10.1087,10.1202,10.1279,10.1279,10.1241,10.1173,10.0789,10.0404,9.9721,9.8798,9.7942,9.7096,9.6403,9.6288,9.6288,9.6288,9.6288,9.6288,9.6288,9.6288,9.6288,9.6288,9.6288,9.6288,9.6288,9.6288,9.6288,9.6288,9.6288,9.6288,9.6288,9.6288,9.6288,9.6288,9.6288,9.6288,9.6288,9.6288,9.6288,9.6288,9.6288,9.6288,9.6288,9.6288,9.6288,9.6288,9.6288,9.6288,9.6288,9.6288,9.6288,9.6288,9.6288,9.6288,9.6288,9.6288,9.6288,9.6288,9.6288,9.6279,9.6279,9.6279,9.626,9.6251,9.6279,9.6279,9.6165,9.6117,9.5969,9.5846,9.574,9.5482,9.5117,9.4958,9.4883,9.4664,9.4438,9.438,9.4349,9.4108,9.3986,9.4015,9.4015,9.3971,9.3986,9.4,9.4131,9.4194,9.4208,9.4222,9.4208,9.4194,9.418,8.8372,8.7594,8.7632,8.8017,8.8756,8.9586,9.0316,9.0902,9.1009,9.1479,9.2287,9.2287,9.3749,9.5403,9.6365,9.6826,9.7288,9.775,9.8634,9.9288,9.9798,10.0096,10.0558,10.0971,10.0981,10.0866,10.0789,10.0558,10.026,9.9721,9.9067,9.8596,9.7865,9.698,9.648,9.6288,9.6288,9.6288,9.6288,9.6288,9.6288,9.6288,9.6288,9.6288,9.6288,9.6288,9.6288,9.6288,9.6288,9.6288,9.6288,9.6288,9.6288,9.6288,9.6288,9.6288,9.6288,9.6288,9.6288,9.6288,9.6288,9.6288,9.6288,9.6288,9.6288,9.6288,9.6288,9.6288,9.6288,9.6288,9.6288,9.6288,9.6288,9.6288,9.6288,9.6288,9.6288,9.6288,9.6288,9.6288,9.6288,9.6288,9.6288,9.6288,9.6288,9.6288,9.6288,9.6288,9.6269,9.6241,9.6127,9.6019,9.5918,9.5588,9.5292,9.5198,9.5163,9.4969,9.4794,9.469,9.4583,9.4407,9.4265,9.4117,9.4102,9.4117,9.4044,9.4,9.4174,9.4321,9.4335,9.4335,9.4431,9.4418,9.4404,8.8641,8.8449,8.8449,8.8526,8.8795,8.9556,9.0009,9.0124,9.0201,9.0624,9.121,9.0979,9.2133,9.5297,9.6057,9.6442,9.6519,9.698,9.7403,9.798,9.8788,9.9135,9.9519,10.0135,10.0298,10.0106,9.9827,9.9673,9.9567,9.875,9.8365,9.8711,9.7173,9.6519,9.6403,9.6288,9.6288,9.6288,9.6288,9.6288,9.6288,9.6288,9.6288,9.6288,9.6288,9.6288,9.6288,9.6288,9.6288,9.6288,9.6288,9.6288,9.6288,9.6288,9.6288,9.6288,9.6288,9.6288,9.6288,9.6288,9.6288,9.6288,9.6288,9.6288,9.6288,9.6288,9.6288,9.6288,9.6288,9.6288,9.6288,9.6288,9.6288,9.6288,9.6288,9.6288,9.6288,9.6288,9.6288,9.6288,9.6288,9.6288,9.6288,9.6288,9.6288,9.6288,9.6288,9.6288,9.6288,9.6288,9.6288,9.6165,9.6058,9.6009,9.5818,9.5631,9.5544,9.5326,9.5127,9.4983,9.4832,9.4742,9.461,9.4404,9.4279,9.4279,9.418,9.4165,9.4165,9.4335,9.4376,9.4418,9.4567,9.4634,9.4583]}]]